     2              OBSERVATION DATA    GPS                 RINEX VERSION / TYPE
teqc 1997Jul24 19970902 21:13:03UTC                         PGM / RUN BY / DATE
                                                            COMMENT
BIT 2 OF LLI FLAGS DATA COLLECTED UNDER A-S CONDITION       COMMENT
BIT 2 OF LLI FLAGS DATA COLLECTED UNDER A-S CONDITION       COMMENT
Original Marker Name: 55455.SAND                            COMMENT
Campaign Name: Salt. Tr. Crust. Monit. May-Jun 1986         COMMENT
4-Character Station Name: SAND                              COMMENT
6-Character Antenna Code: TI4100                            COMMENT
Vertical Measurement Point: PAE                             COMMENT
Vertical Offset to Rinex Ref. Point: 0.0000                 COMMENT
Radial Measurement Point: RRP                               COMMENT
Radial Offset to Rinex Ref. Point: 0.0000                   COMMENT
Antenna Height from Field Measurement: 1.2610 m             COMMENT
Original XYZ: -2337013.7104 -4728587.9163 3573986.5301      COMMENT
New XYZ position is based on association with SCEC monument COMMENT
E1F2G8K4+0012. Position of that monument is believed to be  COMMENT
valid to within 1 m horizontally; vertical accuracy         COMMENT
should be no worse than 3-times this value.                 COMMENT
                                                            COMMENT
Revised Rinex header created by UCSD GPS archive for        COMMENT
GSAC on 14-Apr-1999 (1999:104) 17:45:57 GMT                 COMMENT
For assistance contact dagnew@ucsd.edu or hjohnson@ucsd.edu COMMENT
                                                            COMMENT
SAND HILL 1939 1981                                         MARKER NAME
5 NATIONAL GEODETIC SURVEY                                  OBSERVER / AGENCY
UT-16 TI 4100 1.0                                           REC # / TYPE / VERS
4011 TI 4100                                                ANT # / TYPE
 -2336820.0000 -4732587.0000  3570330.0000                  APPROX POSITION XYZ
        1.2610        0.0000        0.0000                  ANTENNA: DELTA H/E/N
     1     1     0                                          WAVELENGTH FACT L1/2
     4    P1    P2    L1    L2                              # / TYPES OF OBSERV
     6                                                      INTERVAL
  1986     6    12     1     9   59.000000                  TIME OF FIRST OBS
  1986     6    12     2    58   11.000000                  TIME OF LAST OBS
     0                                                      # OF SATELLITES
                                                            END OF HEADER
 86  6 12  1  9 59.0800000  0  4G 6G 8G 9G11
  20796231.420    20796232.730    37092650.203 9 -48604091.936 8
  24519965.125    24519966.106    57226797.895 9 -33091581.685 9
  20417268.215    20417268.402    22296645.261 9 -60227264.938 9
  21081621.852    21081622.868    37257439.968 9 -48597364.159 9
 86  6 12  1 10  5.0800000  0  4G 6G 8G 9G11
  20797933.661    20797935.490    37101598.426 8 -48597119.277 9
  24524195.078    24524197.623    57249033.066 8 -33074255.592 9
  20415569.343    20415570.714    22287723.000 9 -60234217.344 8
  21083536.116    21083538.657    37267502.306 9 -48589523.377 8
 86  6 12  1 10 11.0800000  0  4G 6G 8G 9G11
  20799640.654    20799642.079    37110567.907 9 -48590130.079 8
  24528426.067    24528428.703    57271268.004 8 -33056929.675 9
  20413875.992    20413875.805    22278819.604 9 -60241155.066 9
  21085454.520    21085456.341    37277580.356 9 -48581670.351 9
 86  6 12  1 10 17.0800000  0  4G 6G 8G 9G11
  20801351.630    20801352.480    37119558.672 9 -48583124.286 8
  24532658.031    24532661.000    57293502.852 8 -33039603.832 9
  20412185.617    20412185.964    22269935.059 9 -60248078.075 9
  21087374.805    21087376.392    37287674.251 9 -48573804.981 9
 86  6 12  1 10 23.0800000  0  4G 6G 8G 9G11
  20803066.509    20803069.096    37128570.686 9 -48576101.946 9
  24536888.906    24536891.534    57315737.392 9 -33022278.220 9
  20410498.447    20410499.705    22261069.420 9 -60254986.367 9
  21089299.178    21089301.973    37297783.870 9 -48565927.355 8
 86  6 12  1 10 29.0800000  0  4G 6G 8G 9G11
  20804784.920    20804787.344    37137603.896 9 -48569063.084 8
  24541120.579    24541123.007    57337971.783 8 -33004952.724 9
  20408814.772    20408815.390    22252222.719 9 -60261879.898 8
  21091225.008    21091227.436    37307909.147 9 -48558037.534 8
 86  6 12  1 10 35.0800000  0  4G 6G 8G 9G11
  20806507.890    20806509.243    37146658.358 9 -48562007.662 8
  24545352.202    24545353.340    57360205.894 7 -32987627.456 9
  20407134.671    20407134.542    22243394.868 9 -60268758.751 9
  21093155.906    21093157.060    37318050.057 9 -48550135.526 9
 86  6 12  1 10 41.0800000  0  4G 6G 8G 9G11
  20808236.097    20808236.363    37155734.082 9 -48554935.674 8
  24549582.110    24549584.261    57382439.696 8 -32970302.430 8
  20405458.322    20405457.966    22234585.925 8 -60275622.857 9
  21095088.437    21095090.565    37328206.680 9 -48542221.275 8
 86  6 12  1 10 47.0800000  0  4G 6G 8G 9G11
  20809966.290    20809968.496    37164831.021 8 -48547847.164 9
  24553812.797    24553814.885    57404673.211 8 -32952977.616 8
  20403785.062    20403786.365    22225796.057 8 -60282472.100 7
  21097024.425    21097025.228    37338378.994 9 -48534294.798 8
 86  6 12  1 10 53.0800000  0  4G 6G 8G 9G11
  20811701.729    20811702.690    37173949.212 9 -48540742.069 8
  24558044.019    24558045.843    57426906.465 7 -32935653.013 9
  20402116.377    20402117.037    22217025.188 8 -60289306.548 8
  21098962.768    21098964.809    37348566.928 9 -48526356.149 8
 86  6 12  1 10 59.0800000  0  4G 6G 8G 9G11
  20813441.180    20813442.070    37183088.632 9 -48533620.449 8
  24562274.055    24562276.923    57449139.398 7 -32918328.658 9
  20400450.817    20400452.662    22208273.298 9 -60296126.194 9
  21100904.453    21100905.573    37358770.488 9 -48518405.334 9
 86  6 12  1 11  5.0800000  0  4G 6G 8G 9G11
  20815184.060    20815184.621    37192249.361 9 -48526482.224 8
  24566505.674    24566507.901    57471372.030 6 -32901004.556 9
  20398788.546    20398790.090    22199540.524 9 -60302930.956 8
  21102848.181    21102850.477    37368989.650 9 -48510442.353 8
 86  6 12  1 11 11.0800000  0  4G 6G 8G 9G11
  20816931.209    20816932.563    37201431.308 9 -48519327.468 8
  24570735.051    24570738.869    57493604.240 7 -32883680.762 9
  20397130.627    20397131.289    22190826.759 9 -60309720.904 8
  21104796.041    21104797.998    37379224.316 9 -48502467.283 8
 86  6 12  1 11 17.0800000  0  4G 6G 8G 9G11
  20818682.291    20818684.409    37210634.420 8 -48512156.214 8
  24574967.683    24574968.822    57515836.106 7 -32866357.248 9
  20395475.708    20395476.868    22182132.043 9 -60316496.004 8
  21106746.294    21106748.962    37389474.502 9 -48494480.126 8
 86  6 12  1 11 23.0800000  0  4G 6G 8G 9G11
  20820438.785    20820439.689    37219858.805 9 -48504968.383 8
  24579197.657    24579198.757    57538067.583 7 -32849034.046 9
  20393825.742    20393826.130    22173456.462 8 -60323256.197 9
  21108700.264    21108702.628    37399740.249 9 -48486480.849 8
 86  6 12  1 11 29.0800000  0  4G 6G 8G 9G11
  20822197.733    20822198.518    37229104.462 9 -48497763.972 8
  24583426.860    24583429.952    57560298.633 7 -32831711.145 9
  20392177.785    20392179.872    22164799.989 9 -60330001.505 9
  21110657.777    21110658.378    37410021.515 9 -48478469.465 8
 86  6 12  1 11 35.0800000  0  4G 6G 8G 9G11
  20823960.746    20823961.593    37238371.363 9 -48490543.025 8
  24587657.576    24587659.481    57582529.270 7 -32814388.592 9
  20390533.484    20390535.087    22156162.727 8 -60336731.837 8
  21112615.986    21112618.431    37420318.295 9 -48470446.010 8
 86  6 12  1 11 41.0800000  0  4G 6G 8G 9G11
  20825728.129    20825729.694    37247659.520 9 -48483305.507 8
  24591886.753    24591890.447    57604759.423 7 -32797066.395 8
  20388894.595    20388895.026    22147544.604 9 -60343447.254 8
  21114578.692    21114579.881    37430630.549 9 -48462410.484 8
 86  6 12  1 11 47.0800000  0  4G 6G 8G 9G11
  20827499.693    20827500.468    37256968.895 9 -48476051.447 9
  24596119.056    24596120.171    57626989.184 6 -32779744.513 9
  20387258.651    20387258.798    22138945.659 9 -60350147.722 7
  21116543.850    21116546.326    37440958.262 9 -48454362.915 8
 86  6 12  1 11 53.0800000  0  4G 6G 8G 9G11
  20829275.821    20829275.466    37266299.498 9 -48468780.852 8
  24600347.778    24600350.743    57649218.405 6 -32762423.079 9
  20385625.745    20385626.629    22130365.919 9 -60356833.242 8
  21118512.268    21118513.179    37451301.373 9 -48446303.345 9
 86  6 12  1 11 59.0800000  0  4G 6G 8G 9G11
  20831054.631    20831056.846    37275651.312 8 -48461493.724 7
  24604578.498    24604580.415    57671447.069 6 -32745102.039 8
  20383996.614    20383997.270    22121805.443 9 -60363503.744 9
  21120483.180    21120485.256    37461659.910 9 -48438231.770 9
 86  6 12  1 12  5.0800000  0  4G 6G 8G 9G11
  20832837.834    20832839.154    37285024.332 9 -48454190.079 8
  24608806.804    24608810.587    57693675.276 6 -32727781.388 8
  20382371.661    20382371.790    22113264.078 9 -60370159.353 8
  21122457.562    21122458.820    37472033.822 9 -48430148.210 9
 86  6 12  1 12 11.0800000  0  4G 6G 8G 9G11
  20834626.146    20834627.734    37294418.588 9 -48446869.881 9
  24613035.971    24613040.356    57715902.880 5 -32710461.190 9
  20380749.828    20380751.185    22104742.045 9 -60376799.887 8
  21124435.395    21124436.388    37482423.097 9 -48422052.669 8
 86  6 12  1 12 17.0800000  0  4G 6G 8G 9G11
  20836417.631    20836419.107    37303834.071 9 -48439533.153 8
  24617267.197    24617270.296    57738129.945 6 -32693141.426 9
  20379131.802    20379132.205    22096239.310 9 -60383425.398 8
  21126414.482    21126416.120    37492827.673 9 -48413945.208 8
 86  6 12  1 12 23.0800000  0  4G 6G 8G 9G11
  20838213.091    20838214.425    37313270.763 9 -48432179.873 9
  24621497.280    24621499.521    57760356.449 6 -32675822.097 9
  20377516.581    20377518.155    22087755.822 8 -60390035.911 9
  21128397.115    21128398.288    37503247.610 9 -48405825.773 8
 86  6 12  1 12 29.0800000  0  4G 6G 8G 9G11
  20840013.001    20840014.630    37322728.705 9 -48424810.054 8
  24625726.943    24625729.282    57782582.322 6 -32658503.258 9
  20375906.624    20375906.525    22079291.749 9 -60396631.296 8
  21130383.533    21130385.166    37513682.935 9 -48397694.359 8
 86  6 12  1 12 35.0800000  0  4G 6G 8G 9G11
  20841816.727    20841818.120    37332207.903 8 -48417423.675 8
  24629956.797    24629958.613    57804807.618 7 -32641184.848 8
  20374299.212    20374300.503    22070847.048 9 -60403211.583 8
  21132371.537    21132372.858    37524133.576 9 -48389551.008 8
 86  6 12  1 12 41.0800000  0  4G 6G 8G 9G11
  20843625.185    20843626.768    37341708.323 8 -48410020.748 8
  24634184.102    24634186.587    57827032.281 6 -32623866.947 8
  20372695.666    20372696.881    22062421.646 9 -60409776.837 9
  21134363.026    21134365.107    37534599.510 9 -48381395.734 9
 86  6 12  1 12 47.0800000  0  4G 6G 8G 9G11
  20845437.694    20845438.249    37351229.972 9 -48402601.287 8
  24638414.128    24638416.707    57849256.339 6 -32606549.513 8
  20371096.959    20371098.375    22054015.655 8 -60416326.952 8
  21136357.972    21136359.840    37545080.716 9 -48373228.559 8
 86  6 12  1 12 53.0800000  0  4G 6G 8G 9G11
  20847253.376    20847254.246    37360772.786 9 -48395165.335 8
  24642642.572    24642644.696    57871479.690 6 -32589232.621 9
  20369500.252    20369501.313    22045629.132 9 -60422861.914 8
  21138355.961    21138356.755    37555577.083 9 -48365049.579 8
 86  6 12  1 12 59.0800000  0  4G 6G 8G 9G11
  20849071.682    20849074.106    37370336.758 8 -48387712.900 8
  24646872.760    24646874.209    57893702.311 7 -32571916.307 9
  20367909.266    20367908.270    22037261.920 9 -60429381.818 9
  21140355.208    21140357.522    37566088.663 9 -48356858.744 8
 86  6 12  1 13  5.0800000  0  4G 6G 8G 9G11
  20850897.063    20850897.950    37379922.002 9 -48380243.888 8
  24651099.965    24651104.186    57915924.257 6 -32554600.510 8
  20366320.978    20366321.352    22028914.140 9 -60435886.579 9
  21142359.301    21142360.580    37576615.459 9 -48348656.043 8
 86  6 12  1 13 11.0800000  0  3G 6G 9G11
  20852724.284    20852724.896    37389528.455 9 -48372758.331 8
  20364736.207    20364736.205    22020585.895 9 -60442376.124 8
  21144365.052    21144365.754    37587157.415 9 -48340441.528 8
 86  6 12  1 13 17.0800000  0  3G 6G 9G11
  20854557.589    20854557.234    37399156.081 9 -48365256.286 8
  20363154.178    20363155.124    22012277.088 9 -60448850.520 9
  21146373.441    21146375.397    37597714.545 9 -48332215.197 8
 86  6 12  1 13 23.0800000  0  3G 6G 9G11
  20856392.886    20856393.607    37408804.865 9 -48357737.761 8
  20361577.192    20361576.520    22003987.728 9 -60455309.759 9
  21148386.016    21148385.913    37608286.769 9 -48323977.106 9
 86  6 12  1 13 29.0800000  0  3G 6G 9G11
  20858233.801    20858234.342    37418474.935 9 -48350202.644 8
  20360002.720    20360004.250    21995718.036 9 -60461753.681 8
  21150399.909    21150401.548    37618874.163 9 -48315727.182 8
 86  6 12  1 13 35.0800000  0  3G 6G 9G11
  20860076.856    20860078.493    37428166.081 9 -48342651.102 8
  20358433.690    20358433.529    21987467.794 8 -60468182.439 9
  21152417.395    21152419.334    37629476.632 9 -48307465.526 8
 86  6 12  1 13 41.0800000  0  3G 6G 9G11
  20861924.602    20861926.348    37437878.481 9 -48335083.011 9
  20356866.889    20356868.049    21979237.135 8 -60474595.938 7
  21154438.114    21154440.252    37640094.169 9 -48299192.117 8
 86  6 12  1 13 47.0800000  0  3G 6G 9G11
  20863778.023    20863778.095    37447612.075 9 -48327498.393 8
  20355304.008    20355305.714    21971026.031 9 -60480994.196 9
  21156461.805    21156464.650    37650726.680 9 -48290907.051 8
 86  6 12  1 13 53.0800000  0  3G 6G 9G11
  20865635.806    20865634.655    37457366.844 9 -48319897.277 8
  20353744.053    20353746.235    21962834.488 9 -60487377.220 8
  21158487.668    21158488.189    37661374.243 9 -48282610.258 8
 86  6 12  1 13 59.0800000  0  3G 6G 9G11
  20867494.690    20867492.939    37467142.709 8 -48312279.736 8
  20352190.929    20352191.729    21954662.633 8 -60493744.899 8
  21160516.344    21160518.184    37672036.766 9 -48274301.793 9
 86  6 12  1 14  5.0800000  0  3G 6G 9G11
  20869358.849    20869360.094    37476939.755 9 -48304645.673 9
  20350638.613    20350638.998    21946510.245 8 -60500097.414 9
  21162549.752    21162550.665    37682714.249 9 -48265981.685 8
 86  6 12  1 14 11.0800000  0  3G 6G 9G11
  20871227.083    20871226.653    37486758.065 9 -48296995.039 8
  20349091.101    20349092.444    21938377.660 9 -60506434.492 9
  21164583.444    21164585.583    37693406.828 9 -48257649.801 8
 86  6 12  1 14 17.0800000  0  3G 6G 9G11
  20873099.821    20873100.825    37496597.470 9 -48289327.975 7
  20347548.740    20347548.600    21930264.723 9 -60512756.267 8
  21166620.256    21166622.505    37704114.320 8 -48249306.302 8
 86  6 12  1 14 23.0800000  0  3G 6G 9G11
  20874976.228    20874976.274    37506458.099 8 -48281644.374 8
  20346006.957    20346009.228    21922171.486 9 -60519062.677 8
  21168661.172    21168662.387    37714836.802 9 -48240951.131 8
 86  6 12  1 14 29.0800000  0  3G 6G 9G11
  20876857.329    20876855.666    37516339.937 9 -48273944.251 8
  20344470.775    20344472.707    21914097.944 9 -60525353.752 8
  21170703.899    21170705.328    37725574.214 8 -48232584.311 8
 86  6 12  1 14 35.0800000  0  3G 6G 9G11
  20878741.864    20878740.273    37526242.912 9 -48266227.644 8
  20342938.033    20342938.547    21906044.192 9 -60531629.401 8
  21172750.534    21172753.132    37736326.574 9 -48224205.860 9
 86  6 12  1 14 41.0800000  0  3G 6G 9G11
  20880629.407    20880629.888    37536167.070 9 -48258494.539 7
  20341410.036    20341411.082    21898010.136 9 -60537889.699 8
  21174799.223    21174801.919    37747093.852 9 -48215815.765 7
 86  6 12  1 14 47.0800000  0  3G 6G 9G11
  20882522.676    20882521.563    37546112.430 9 -48250744.907 8
  20339884.646    20339885.794    21889995.991 8 -60544134.491 9
  21176850.923    21176853.267    37757876.007 9 -48207414.080 8
 86  6 12  1 14 53.0800000  0  3G 6G 9G11
  20884419.929    20884419.757    37556078.933 9 -48242978.808 9
  20338362.747    20338365.170    21882001.553 9 -60550363.922 8
  21178905.347    21178907.352    37768672.982 9 -48199000.865 9
 86  6 12  1 14 59.0800000  0  3G 6G 9G11
  20886318.547    20886320.413    37566066.600 9 -48235196.226 8
  20336846.001    20336846.319    21874026.928 9 -60556577.905 8
  21180963.533    21180963.277    37779484.749 9 -48190576.109 8
 86  6 12  1 15  5.0800000  0  3G 6G 9G11
  20888223.790    20888224.234    37576075.527 9 -48227397.064 8
  20335331.832    20335333.851    21866072.309 7 -60562776.312 9
  21183023.324    21183024.662    37790311.384 8 -48182139.772 8
 86  6 12  1 15 11.0800000  0  3G 6G 9G11
  20890132.348    20890133.029    37586105.473 9 -48219581.527 7
  20333822.587    20333822.579    21858137.396 8 -60568959.360 8
  21185086.692    21185088.888    37801152.757 9 -48173691.961 9
 86  6 12  1 15 17.0800000  0  3G 6G 9G11
  20892045.712    20892045.189    37596156.684 9 -48211749.414 8
  20332316.399    20332316.429    21850222.473 8 -60575126.821 8
  21187151.836    21187154.608    37812008.974 9 -48165232.565 8
 86  6 12  1 15 23.0800000  0  3G 6G 9G11
  20893962.366    20893962.363    37606228.998 9 -48203900.867 7
  20330813.191    20330814.719    21842327.355 9 -60581278.868 9
  21189221.657    21189222.495    37822879.867 9 -48156761.741 9
 86  6 12  1 15 29.0800000  0  3G 6G 9G11
  20895883.570    20895883.326    37616322.536 9 -48196035.774 8
  20329313.903    20329316.562    21834452.254 9 -60587415.317 8
  21191291.882    21191294.582    37833765.516 9 -48148279.420 8
 86  6 12  1 15 35.0800000  0  3G 6G 9G11
  20897807.882    20897808.280    37626437.124 9 -48188154.282 9
  20327819.794    20327821.149    21826597.072 8 -60593536.234 9
  21193366.065    21193368.336    37844665.824 8 -48139785.673 9
 86  6 12  1 15 41.0800000  0  3G 6G 9G11
  20899736.415    20899736.231    37636572.851 9 -48180256.319 8
  20326330.237    20326330.402    21818761.809 7 -60599641.618 8
  21195442.962    21195445.669    37855580.843 8 -48131280.474 8
 86  6 12  1 15 47.0800000  0  3G 6G 9G11
  20901668.894    20901669.838    37646729.740 9 -48172341.861 9
  20324843.076    20324842.907    21810946.497 8 -60605731.489 8
  21197523.212    21197525.081    37866510.541 9 -48122763.824 8
 86  6 12  1 15 53.0800000  0  3G 6G 9G11
  20903606.665    20903607.555    37656907.777 9 -48164410.938 8
  20323358.213    20323359.356    21803151.237 9 -60611805.705 8
  21199605.597    21199608.290    37877454.890 9 -48114235.755 8
 86  6 12  1 15 59.0800000  0  3G 6G 9G11
  20905546.118    20905547.452    37667106.991 9 -48156463.496 8
  20321878.871    20321880.455    21795376.075 9 -60617864.281 7
  21201691.614    21201694.076    37888413.939 9 -48105696.245 9
 86  6 12  1 16  5.0800000  0  3G 6G 9G11
  20907491.313    20907492.392    37677327.302 8 -48148499.623 8
  20320403.705    20320403.648    21787620.772 9 -60623907.373 7
  21203779.951    21203781.958    37899387.505 9 -48097145.411 8
 86  6 12  1 16 11.0800000  0  3G 6G 9G11
  20909439.707    20909440.428    37687568.725 9 -48140519.304 8
  20318930.376    20318931.948    21779885.653 9 -60629934.741 8
  21205871.162    21205872.418    37910375.704 9 -48088583.185 8
 86  6 12  1 16 17.0800000  0  3G 6G 9G11
  20911393.690    20911393.381    37697831.254 9 -48132522.529 9
  20317463.195    20317463.308    21772170.605 9 -60635946.458 8
  21207964.285    21207966.776    37921378.400 9 -48080009.663 8
 86  6 12  1 16 23.0800000  0  3G 6G 9G11
  20913351.906    20913350.884    37708114.937 9 -48124509.285 7
  20315998.047    20315999.380    21764475.662 9 -60641942.526 8
  21210060.859    21210063.034    37932395.664 9 -48071424.783 9
 86  6 12  1 16 29.0800000  0  3G 6G 9G11
  20915311.198    20915311.278    37718419.768 9 -48116479.543 8
  20314539.255    20314540.229    21756800.848 9 -60647922.895 8
  21212160.378    21212161.763    37943427.512 9 -48062828.535 8
 86  6 12  1 16 35.0800000  0  3G 6G 9G11
  20917277.595    20917276.737    37728745.686 9 -48108433.383 8
  20313082.317    20313082.975    21749146.106 8 -60653887.625 7
  21214262.742    21214263.987    37954473.863 9 -48054220.995 8
 86  6 12  1 16 41.0800000  0  3G 6G 9G11
  20919245.590    20919245.115    37739092.741 8 -48100370.749 9
  20311629.277    20311628.889    21741511.554 8 -60659836.621 8
  21216367.583    21216369.899    37965534.745 8 -48045602.132 8
 86  6 12  1 16 47.0800000  0  3G 6G 9G11
  20921218.613    20921219.938    37749460.834 9 -48092291.711 8
  20310180.043    20310179.359    21733897.185 9 -60665769.900 8
  21218474.395    21218476.241    37976609.984 9 -48036972.069 8
 86  6 12  1 16 53.0800000  0  3G 6G 9G11
  20923194.174    20923195.202    37759850.104 8 -48084196.187 8
  20308735.273    20308735.942    21726303.036 9 -60671687.435 8
  21220585.315    21220587.040    37987699.768 9 -48028330.688 9
 86  6 12  1 16 59.0800000  0  3G 6G 9G11
  20925176.301    20925176.705    37770260.370 9 -48076084.296 9
  20307293.533    20307294.756    21718729.107 9 -60677589.200 8
  21222698.187    21222700.377    37998803.783 9 -48019678.206 8
 86  6 12  1 17  5.0800000  0  3G 6G 9G11
  20927162.057    20927162.071    37780691.811 9 -48067955.902 9
  20305856.202    20305856.884    21711175.298 9 -60683475.280 8
  21224813.661    21224816.016    38009922.299 9 -48011014.432 9
 86  6 12  1 17 11.0800000  0  3G 6G 9G11
  20929150.476    20929150.653    37791144.358 9 -48059811.066 8
  20304423.083    20304422.648    21703641.769 8 -60689345.568 8
  21226932.733    21226934.825    38021055.177 9 -48002339.458 9
 86  6 12  1 17 17.0800000  0  3G 6G 9G11
  20931143.234    20931144.313    37801617.959 9 -48051649.822 8
  20302993.334    20302993.733    21696128.550 9 -60695200.028 7
  21229053.981    21229056.100    38032202.393 9 -47993653.313 9
 86  6 12  1 17 23.0800000  0  3G 6G 9G11
  20933140.984    20933142.232    37812112.644 8 -48043472.146 9
  20301566.763    20301569.050    21688635.591 8 -60701038.696 8
  21231177.491    21231179.718    38043364.005 9 -47984955.955 8
 86  6 12  1 17 29.0800000  0  3G 6G 9G11
  20935141.586    20935142.153    37822628.391 8 -48035278.065 9
  20300145.146    20300145.171    21681162.868 9 -60706861.594 8
  21233304.024    21233306.025    38054539.947 9 -47976247.434 9
 86  6 12  1 17 35.0800000  0  3G 6G 9G11
  20937146.556    20937147.998    37833165.219 9 -48027067.553 8
  20298726.987    20298727.645    21673710.499 9 -60712668.647 8
  21235433.996    21235436.456    38065730.212 9 -47967527.754 8
 86  6 12  1 17 41.0800000  0  3G 6G 9G11
  20939156.514    20939156.820    37843723.106 9 -48018840.646 8
  20297312.469    20297312.879    21666278.601 8 -60718459.734 8
  21237565.820    21237568.732    38076934.751 9 -47958796.943 8
 86  6 12  1 17 47.0800000  0  3G 6G 9G11
  20941169.205    20941169.603    37854302.183 9 -48010597.209 8
  20295901.811    20295902.897    21658867.001 9 -60724235.002 8
  21239701.385    21239703.313    38088153.588 9 -47950054.992 8
 86  6 12  1 17 53.0800000  0  3G 6G 9G11
  20943186.512    20943186.380    37864902.275 9 -48002337.404 8
  20294495.331    20294496.929    21651475.767 9 -60729994.400 9
  21241838.533    21241840.428    38099386.619 9 -47941301.985 8
 86  6 12  1 17 59.0800000  0  3G 6G 9G11
  20945208.166    20945208.046    37875523.377 8 -47994061.221 8
  20293094.057    20293094.387    21644104.934 8 -60735737.920 9
  21243979.396    21243980.810    38110633.909 9 -47932537.859 8
 86  6 12  1 18  5.0800000  0  3G 6G 9G11
  20947232.619    20947232.762    37886165.545 9 -47985768.634 8
  20291693.930    20291695.235    21636754.562 8 -60741465.466 9
  21246121.523    21246123.724    38121895.420 9 -47923762.659 8
 86  6 12  1 18 11.0800000  0  3G 6G 9G11
  20949260.166    20949263.231    37896828.775 9 -47977459.621 8
  20290300.900    20290300.343    21629424.655 8 -60747177.084 8
  21248267.535    21248270.351    38133171.098 9 -47914976.417 8
 86  6 12  1 18 17.0800000  0  3G 6G 9G11
  20951295.497    20951296.424    37907513.131 9 -47969134.160 8
  20288908.501    20288908.502    21622115.240 9 -60752872.745 8
  21250417.065    21250417.491    38144461.023 8 -47906179.071 8
 86  6 12  1 18 23.0800000  0  3G 6G 9G11
  20953332.462    20953333.246    37918218.440 9 -47960792.358 8
  20287522.055    20287521.855    21614826.265 8 -60758552.462 8
  21252566.681    21252569.426    38155765.018 9 -47897370.772 9
 86  6 12  1 18 29.0800000  0  3G 6G 9G11
  20955371.937    20955374.212    37928944.867 9 -47952434.113 8
  20286138.613    20286138.941    21607557.776 8 -60764216.216 7
  21254721.016    21254723.414    38167083.225 9 -47888551.389 8
 86  6 12  1 18 35.0800000  0  3G 6G 9G11
  20957418.669    20957417.244    37939692.226 9 -47944059.546 8
  20284758.295    20284759.538    21600309.737 8 -60769864.039 8
  21256877.308    21256879.661    38178415.495 9 -47879721.044 9
 86  6 12  1 18 41.0800000  0  3G 6G 9G11
  20959467.451    20959467.769    37950460.763 9 -47935668.486 8
  20283384.093    20283384.738    21593082.262 8 -60775495.833 9
  21259036.975    21259039.132    38189761.942 9 -47870879.671 8
 86  6 12  1 18 47.0800000  0  3G 6G 9G11
  20961521.498    20961521.550    37961250.245 9 -47927261.104 8
  20282012.756    20282012.816    21585875.394 8 -60781111.577 9
  21261198.112    21261199.862    38201122.376 9 -47862027.379 9
 86  6 12  1 18 53.0800000  0  3G 6G 9G11
  20963578.425    20963578.405    37972060.770 9 -47918837.323 8
  20280644.082    20280645.986    21578689.067 9 -60786711.318 8
  21263362.423    21263364.833    38212496.856 9 -47853164.147 8
 86  6 12  1 18 59.0800000  0  3G 6G 9G11
  20965639.466    20965639.999    37982892.376 9 -47910397.118 9
  20279280.361    20279283.095    21571523.347 8 -60792294.992 8
  21265530.293    21265532.811    38223885.435 8 -47844289.934 9
 86  6 12  1 19  5.0800000  0  3G 6G 9G11
  20967704.023    20967703.893    37993744.937 9 -47901940.586 8
  20277921.957    20277921.954    21564378.288 8 -60797862.574 7
  21267700.099    21267701.779    38235287.985 9 -47835404.832 9
 86  6 12  1 19 11.0800000  0  3G 6G 9G11
  20969773.120    20969774.943    38004618.530 9 -47893467.648 8
  20276565.928    20276566.635    21557253.831 9 -60803414.093 8
  21269872.512    21269874.514    38246704.527 9 -47826508.833 9
 86  6 12  1 19 17.0800000  0  3G 6G 9G11
  20971847.035    20971847.429    38015513.069 9 -47884978.416 8
  20275213.829    20275215.343    21550149.940 9 -60808949.602 8
  21272047.811    21272049.870    38258134.970 9 -47817601.985 8
 86  6 12  1 19 23.0800000  0  3G 6G 9G11
  20973923.555    20973924.002    38026428.705 9 -47876472.724 8
  20273866.585    20273866.300    21543066.832 8 -60814468.895 8
  21274225.441    21274227.200    38269579.455 9 -47808684.209 8
 86  6 12  1 19 29.0800000  0  3G 6G 9G11
  20976004.682    20976005.967    38037365.363 8 -47867950.652 8
  20272522.353    20272523.281    21536004.416 8 -60819972.074 8
  21276405.778    21276407.350    38281037.812 9 -47799755.622 8
 86  6 12  1 19 35.0800000  0  3G 6G 9G11
  20978090.456    20978091.469    38048323.014 9 -47859412.235 7
  20271182.151    20271182.469    21528962.712 8 -60825459.119 7
  21278589.565    21278591.210    38292510.037 9 -47790816.227 8
 86  6 12  1 19 41.0800000  0  3G 6G 9G11
  20980179.529    20980181.183    38059301.613 9 -47850857.487 8
  20269845.158    20269846.688    21521941.653 8 -60830930.078 8
  21280775.584    21280776.928    38303996.116 9 -47781866.041 7
 86  6 12  1 19 47.0800000  0  3G 6G 9G11
  20982272.915    20982274.069    38070301.182 9 -47842286.397 8
  20268514.260    20268514.718    21514941.484 9 -60836384.759 9
  21282963.500    21282965.778    38315496.102 9 -47772905.013 9
 86  6 12  1 19 53.0800000  0  3G 6G 9G11
  20984369.813    20984370.491    38081321.802 8 -47833698.902 8
  20267185.279    20267186.510    21507961.994 9 -60841823.308 8
  21285153.637    21285157.210    38327010.028 9 -47763933.117 8
 86  6 12  1 19 59.0800000  0  3G 6G 9G11
  20986471.696    20986472.134    38092363.318 9 -47825095.136 9
  20265861.794    20265861.876    21501003.250 9 -60847245.708 8
  21287348.265    21287349.321    38338537.703 9 -47754950.526 9
 86  6 12  1 20  5.0800000  0  3G 6G 9G11
  20988575.717    20988577.171    38103425.838 9 -47816474.995 8
  20264541.797    20264541.769    21494065.399 9 -60852651.824 7
  21289544.204    21289545.957    38350079.292 9 -47745957.079 8
 86  6 12  1 20 11.0800000  0  3G 6G 9G11
  20990685.636    20990685.442    38114509.267 9 -47807838.557 8
  20263224.383    20263224.852    21487148.298 8 -60858041.792 7
  21291742.659    21291744.183    38361634.621 9 -47736952.918 9
 86  6 12  1 20 17.0800000  0  3G 6G 9G11
  20992797.504    20992800.008    38125613.805 9 -47799185.683 9
  20261912.856    20261913.028    21480252.082 8 -60863415.453 8
  21293943.766    21293945.882    38373203.821 9 -47727937.966 9
 86  6 12  1 20 23.0800000  0  3G 6G 9G11
  20994914.990    20994916.893    38136739.283 9 -47790516.486 8
  20260604.277    20260604.838    21473376.765 8 -60868772.860 9
  21296149.024    21296150.097    38384786.709 9 -47718912.346 9
 86  6 12  1 20 29.0800000  0  3G 6G 9G11
  20997035.904    20997038.958    38147885.691 9 -47781830.975 9
  20259298.933    20259300.773    21466522.238 9 -60874114.038 8
  21298355.746    21298358.235    38396383.320 9 -47709876.020 9
 86  6 12  1 20 35.0800000  0  3G 6G 9G11
  20999162.805    20999161.492    38159053.017 9 -47773129.166 8
  20258000.062    20257999.592    21459688.673 8 -60879438.902 8
  21300565.396    21300567.421    38407993.658 9 -47700829.012 9
 86  6 12  1 20 41.0800000  0  3G 6G 9G11
  21001289.586    21001291.964    38170241.281 9 -47764411.056 8
  20256703.302    20256702.931    21452875.991 9 -60884747.483 8
  21302777.106    21302779.117    38419617.603 9 -47691771.392 9
 86  6 12  1 20 47.0800000  0  3G 6G 9G11
  21003424.354    21003424.074    38181450.507 9 -47755676.588 9
  20255410.957    20255411.209    21446084.209 8 -60890039.767 8
  21304991.070    21304993.265    38431255.279 9 -47682703.076 8
 86  6 12  1 20 53.0800000  0  3G 6G 9G11
  21005560.917    21005561.810    38192680.669 9 -47746925.822 8
  20254121.639    20254123.068    21439313.354 8 -60895315.759 8
  21307209.158    21307211.035    38442906.580 9 -47673624.142 8
 86  6 12  1 20 59.0800000  0  3G 6G 9G11
  21007701.882    21007703.164    38203931.831 9 -47738158.677 9
  20252838.133    20252838.735    21432563.539 9 -60900575.362 8
  21309427.983    21309430.659    38454571.622 9 -47664534.500 8
 86  6 12  1 21  5.0800000  0  3G 6G 9G11
  21009847.402    21009848.381    38215203.878 9 -47729375.282 8
  20251557.687    20251559.117    21425834.661 9 -60905818.642 7
  21311650.020    21311654.099    38466250.116 9 -47655434.377 9
 86  6 12  1 21 11.0800000  0  3G 6G 9G11
  21011996.371    21011996.070    38226496.856 9 -47720575.563 9
  20250280.989    20250280.747    21419126.862 8 -60911045.500 8
  21313876.068    21313877.192    38477942.277 9 -47646323.604 9
 86  6 12  1 21 17.0800000  0  3G 6G 9G11
  21014149.177    21014150.536    38237810.730 9 -47711759.559 9
  20249007.757    20249009.059    21412440.074 8 -60916255.995 8
  21316103.207    21316105.291    38489647.990 9 -47637202.270 9
 86  6 12  1 21 23.0800000  0  3G 6G 9G11
  21016305.655    21016307.447    38249145.497 9 -47702927.279 9
  20247741.621    20247741.423    21405774.261 8 -60921450.135 8
  21318333.585    21318335.521    38501367.252 9 -47628070.380 9
 86  6 12  1 21 29.0800000  0  3G 6G 9G11
  21018466.864    21018467.402    38260501.221 9 -47694078.660 8
  20246475.202    20246476.245    21399129.569 9 -60926627.809 7
  21320565.753    21320568.157    38513100.052 9 -47618927.937 8
 86  6 12  1 21 35.0800000  0  3G 6G 9G11
  21020631.702    21020631.942    38271877.819 9 -47685213.795 9
  20245216.108    20245216.777    21392505.974 9 -60931789.056 8
  21322801.307    21322803.768    38524846.285 9 -47609775.033 9
 86  6 12  1 21 41.0800000  0  3G 6G 9G11
  21022799.479    21022801.285    38283275.384 9 -47676332.580 8
  20243958.672    20243959.549    21385903.512 9 -60936933.831 7
  21325039.716    21325041.610    38536606.131 9 -47600611.520 8
 86  6 12  1 21 47.0800000  0  3G 6G 9G11
  21024972.776    21024972.985    38294693.758 9 -47667435.151 9
  20242707.046    20242707.219    21379322.109 8 -60942062.199 7
  21327279.840    21327281.667    38548379.341 9 -47591437.588 9
 86  6 12  1 21 53.0800000  0  3G 6G 9G11
  21027150.870    21027150.924    38306133.130 9 -47658521.360 9
  20241457.512    20241457.867    21372761.859 9 -60947174.086 8
  21329522.229    21329524.468    38560166.091 9 -47582253.109 8
 86  6 12  1 21 59.0800000  0  3G 6G 9G11
  21029331.121    21029331.754    38317593.289 9 -47649591.374 8
  20240213.956    20240214.326    21366222.734 8 -60952269.502 7
  21331768.412    21331770.051    38571966.151 9 -47573058.261 8
 86  6 12  1 22  5.0800000  0  3G 6G 9G11
  21031515.050    21031517.409    38329074.306 9 -47640645.130 9
  20238973.434    20238975.536    21359704.824 9 -60957348.400 8
  21334016.165    21334018.130    38583779.681 9 -47563852.911 9
 86  6 12  1 22 11.0800000  0  3G 6G 9G11
  21033704.131    21033706.086    38340576.163 9 -47631682.647 8
  20237735.973    20237738.161    21353207.979 8 -60962410.876 8
  21336266.764    21336268.358    38595606.561 9 -47554637.162 8
 86  6 12  1 22 17.0800000  0  3G 6G 9G11
  21035896.176    21035898.053    38352098.959 9 -47622703.851 8
  20236504.896    20236505.468    21346732.397 9 -60967456.771 8
  21338519.162    21338520.728    38607446.834 9 -47545410.979 8
 86  6 12  1 22 23.0800000  0  3G 6G 9G11
  21038092.577    21038094.858    38363642.661 9 -47613708.772 8
  20235277.052    20235276.283    21340278.078 8 -60972486.113 8
  21340775.370    21340776.449    38619300.445 9 -47536174.400 9
 86  6 12  1 22 29.0800000  0  3G 6G 9G11
  21040295.034    21040294.518    38375207.086 8 -47604697.531 9
  20234052.928    20234053.399    21333844.995 9 -60977498.906 7
  21343033.973    21343035.658    38631167.307 9 -47526927.497 9
 86  6 12  1 22 35.0800000  0  3G 6G 9G11
  21042499.227    21042500.824    38386792.388 9 -47595670.039 9
  20232831.669    20232833.255    21327433.126 8 -60982495.178 8
  21345294.663    21345296.458    38643047.583 8 -47517670.140 8
 86  6 12  1 22 41.0800000  0  3G 6G 9G11
  21044706.552    21044708.686    38398398.514 9 -47586626.309 8
  20231616.786    20231617.046    21321042.534 8 -60987474.850 8
  21347557.689    21347559.034    38654941.079 9 -47508402.484 9
 86  6 12  1 22 47.0800000  0  3G 6G 9G11
  21046920.147    21046921.678    38410025.568 9 -47577566.269 9
  20230404.226    20230404.801    21314673.249 9 -60992437.925 8
  21349823.456    21349824.989    38666847.963 9 -47499124.389 9
 86  6 12  1 22 53.0800000  0  3G 6G 9G11
  21049136.758    21049136.661    38421673.375 9 -47568490.058 9
  20229197.355    20229196.529    21308325.255 9 -60997384.409 8
  21352092.255    21352093.625    38678768.054 9 -47489836.009 9
 86  6 12  1 22 59.0800000  0  3G 6G 9G11
  21051357.341    21051358.111    38433342.090 9 -47559397.555 9
  20227992.466    20227994.309    21301998.627 9 -61002314.260 8
  21354362.609    21354364.441    38690701.407 9 -47480537.298 8
 86  6 12  1 23  5.0800000  0  3G 6G 9G11
  21053581.007    21053582.676    38445031.539 9 -47550288.903 8
  20226791.413    20226793.312    21295693.336 8 -61007227.471 8
  21356636.307    21356638.114    38702647.958 9 -47471228.293 9
 86  6 12  1 23 11.0800000  0  3G 6G 9G11
  21055809.535    21055809.690    38456741.792 9 -47541164.036 8
  20225595.735    20225597.109    21289409.482 8 -61012123.980 8
  21358913.010    21358914.124    38714607.640 9 -47461909.071 8
 86  6 12  1 23 17.0800000  0  3G 6G 9G11
  21058041.577    21058044.568    38468472.977 9 -47532022.862 8
  20224405.296    20224406.136    21283146.987 9 -61017003.847 9
  21361190.269    21361191.966    38726580.544 9 -47452579.538 8
 86  6 12  1 23 23.0800000  0  3G 6G 9G11
  21060278.851    21060280.477    38480224.865 9 -47522865.552 9
  20223216.486    20223217.789    21276905.839 9 -61021867.081 7
  21363470.762    21363472.232    38738566.494 9 -47443239.840 9
 86  6 12  1 23 29.0800000  0  3G 6G 9G11
  21062518.666    21062519.110    38491997.633 9 -47513691.967 8
  20222034.260    20222034.905    21270686.157 8 -61026713.583 8
  21365753.818    21365755.239    38750565.632 9 -47433889.858 9
 86  6 12  1 23 35.0800000  0  3G 6G 9G11
  21064762.986    21064764.331    38503791.076 9 -47504502.276 9
  20220854.754    20220854.142    21264487.874 9 -61031543.408 7
  21368040.227    21368042.044    38762577.851 9 -47424529.691 8
 86  6 12  1 23 41.0800000  0  3G 6G 9G11
  21067010.877    21067012.265    38515605.405 9 -47495296.315 8
  20219678.308    20219679.252    21258311.138 8 -61036356.458 7
  21370329.009    21370330.733    38774603.271 9 -47415159.242 9
 86  6 12  1 23 47.0800000  0  3G 6G 9G11
  21069263.668    21069264.972    38527440.480 9 -47486074.180 8
  20218507.586    20218506.928    21252155.817 8 -61041152.808 8
  21372619.274    21372620.239    38786641.710 9 -47405778.645 8
 86  6 12  1 23 53.0800000  0  3G 6G 9G11
  21071518.627    21071520.021    38539296.329 9 -47476835.861 9
  20217339.556    20217340.281    21246022.017 8 -61045932.386 7
  21374912.514    21374914.790    38798693.175 9 -47396387.890 8
 86  6 12  1 23 59.0800000  0  3G 6G 9G11
  21073778.962    21073781.806    38551172.968 9 -47467581.343 9
  20216177.818    20216178.074    21239909.686 8 -61050695.245 8
  21377209.184    21377210.144    38810757.663 9 -47386986.985 9
 86  6 12  1 24  5.0800000  0  3G 6G 9G11
  21076043.320    21076044.685    38563070.313 9 -47458310.688 8
  20215017.572    20215019.204    21233818.841 8 -61055441.361 7
  21379506.018    21379508.299    38822835.080 9 -47377576.027 9
 86  6 12  1 24 11.0800000  0  2G 6G 9
  21078310.644    21078313.768    38574988.433 6 -47449023.840 7
  20213863.707    20213863.792    21227749.599 3 -61060170.623 5
 86  6 12  1 24 17.0800000  0  3G 6G 9G11
  21080582.510    21080584.515    38586927.261 9 -47439720.861 8
  20212712.204    20212713.591    21221701.882 8 -61064883.153 7
  21384110.989    21384111.698    38847028.831 9 -47358723.749 8
 86  6 12  1 24 23.0800000  0  4G 6G13G 9G11
  21082857.992    21082860.432    38598886.901 9 -47430401.672 9
                  21340168.958    -5102706.940 9
  20211565.867    20211566.566    21215675.844 9 -61069578.753 7
  21386417.098    21386418.227    38859145.195 9 -47349282.425 8
 86  6 12  1 24 29.0800000  0  4G 6G13G 9G11
  21085139.261    21085139.943    38610867.237 9 -47421066.344 8
                  21337861.254    -5114849.530 9
  20210423.706    20210422.286    21209671.295 9 -61074257.624 7
  21388724.746    21388726.184    38871274.444 9 -47339831.071 8
 86  6 12  1 24 35.0800000  0  4G 6G13G 9G11
  21087422.098    21087423.856    38622868.286 9 -47411714.898 8
                  21335574.692    -5126973.535 9
  20209285.379    20209284.291    21203688.382 9 -61078919.631 7
  21391034.766    21391037.213    38883416.616 9 -47330369.637 8
 86  6 12  1 24 41.0800000  0  4G 6G13G 9G11
  21089709.846    21089711.324    38634890.056 9 -47402347.279 9
  21333268.688    21333273.203    -5139078.368 9   6681265.811 9
  20208151.204    20208149.831    21197727.096 8 -61083564.781 8
  21393347.727    21393349.576    38895571.659 9 -47320898.176 9
 86  6 12  1 24 47.0800000  0  4G 6G13G 9G11
  21092000.593    21092003.995    38646932.582 9 -47392963.499 8
  21330970.898    21330973.851    -5151164.152 9   6671848.307 8
  20207020.144    20207020.148    21191787.427 9 -61088193.104 7
  21395664.515    21395664.433    38907739.572 9 -47311416.694 8
 86  6 12  1 24 53.0800000  0  4G 6G13G 9G11
  21094296.961    21094298.622    38658995.736 9 -47383563.654 9
  21328674.989    21328677.668    -5163230.956 9   6662445.117 8
  20205893.900    20205893.915    21185869.446 9 -61092804.518 7
  21397981.510    21397983.027    38919920.327 9 -47301925.194 8
 86  6 12  1 24 59.0800000  0  4G 6G13G 9G11
  21096596.068    21096598.900    38671079.649 8 -47374147.614 8
  21326381.743    21326385.082    -5175278.876 9   6653057.129 8
  20204772.460    20204773.029    21179973.038 8 -61097399.120 7
  21400302.289    21400302.894    38932113.923 9 -47292423.699 9
 86  6 12  1 25  5.0800000  0  4G 6G13G 9G11
  21098900.623    21098901.787    38683184.231 9 -47364715.485 9
  21324092.404    21324095.071    -5187307.819 9   6643683.933 9
  20203653.536    20203655.135    21174098.483 8 -61101976.700 8
  21402624.703    21402626.478    38944320.308 9 -47282912.233 8
 86  6 12  1 25 11.0800000  0  4G 6G13G 9G11
  21101207.912    21101208.846    38695309.533 9 -47355267.199 9
  21321808.265    21321810.041    -5199317.789 8   6634325.518 7
  20202540.284    20202541.549    21168245.690 8 -61106537.320 8
  21404950.016    21404951.395    38956539.485 9 -47273390.794 9
 86  6 12  1 25 17.0800000  0  4G 6G13G 9G11
  21103518.772    21103519.306    38707455.531 9 -47345802.793 8
  21319526.759    21319528.432    -5211308.784 9   6624981.887 8
  20201431.464    20201430.259    21162414.485 8 -61111081.118 8
  21407277.202    21407279.026    38968771.324 9 -47263859.492 8
 86  6 12  1 25 23.0800000  0  4G 6G13G 9G11
  21105833.250    21105835.603    38719622.223 9 -47336322.254 9
  21317247.112    21317249.798    -5223280.862 9   6615652.991 8
  20200325.559    20200325.659    21156605.070 8 -61115607.937 8
  21409608.193    21409608.982    38981015.928 9 -47254318.245 8
 86  6 12  1 25 29.0800000  0  4G 6G13G 9G11
  21108153.626    21108154.145    38731809.561 9 -47326825.627 9
  21314973.410    21314975.343    -5235233.953 9   6606338.902 9
  20199223.694    20199223.722    21150817.422 9 -61120117.774 8
  21411940.019    21411940.702    38993273.251 9 -47244767.086 9
 86  6 12  1 25 35.0800000  0  4G 6G13G 9G11
  21110476.385    21110476.887    38744017.624 8 -47317312.855 8
  21312702.348    21312705.856    -5247167.995 9   6597039.657 9
  20198125.778    20198125.705    21145051.575 8 -61124610.651 8
  21414275.582    21414276.716    39005543.347 9 -47235205.981 9
 86  6 12  1 25 41.0800000  0  4G 6G13G 9G11
  21112803.263    21112803.997    38756246.307 9 -47307784.022 8
  21310435.171    21310437.638    -5259083.025 9   6587755.219 8
  20197032.701    20197032.870    21139307.545 8 -61129086.521 8
  21416612.931    21416613.091    39017826.096 9 -47225635.004 9
 86  6 12  1 25 47.0800000  0  4G 6G13G 9G11
  21115134.649    21115135.285    38768495.671 8 -47298239.066 8
  21308171.613    21308173.732    -5270979.010 8   6578485.624 9
  20195945.027    20195945.246    21133585.354 8 -61133545.363 7
  21418953.486    21418954.029    39030121.543 9 -47216054.144 8
 86  6 12  1 25 53.0800000  0  4G 6G13G 9G11
  21117468.518    21117470.854    38780765.682 9 -47288678.023 9
  21305910.972    21305913.611    -5282855.969 9   6569230.850 9
  20194858.530    20194860.616    21127885.050 8 -61137987.164 8
  21421294.494    21421295.787    39042429.653 9 -47206463.408 9
 86  6 12  1 25 59.0800000  0  4G 6G13G 9G11
  21119807.166    21119808.753    38793056.316 9 -47279100.911 8
  21303654.862    21303657.100    -5294713.958 9   6559990.864 8
  20193779.472    20193779.180    21122206.567 8 -61142411.951 7
  21423639.599    21423639.941    39054750.394 9 -47196862.827 9
 86  6 12  1 26  5.0800000  0  4G 6G13G 9G11
  21122149.464    21122152.461    38805367.582 9 -47269507.723 8
  21301402.341    21301403.787    -5306552.958 9   6550765.682 8
  20192702.793    20192703.007    21116549.989 8 -61146819.678 8
  21425985.747    21425986.810    39067083.786 9 -47187252.400 9
 86  6 12  1 26 11.0800000  0  4G 6G13G 9G11
  21124497.373    21124498.774    38817699.463 9 -47259898.469 8
  21299152.230    21299154.827    -5318372.988 9   6541555.271 9
  20191630.461    20191631.134    21110915.280 8 -61151210.370 8
  21428335.422    21428336.084    39079429.714 8 -47177632.197 9
 86  6 12  1 26 17.0800000  0  4G 6G13G 9G11
  21126847.853    21126850.060    38830052.006 9 -47250273.118 9
  21296907.055    21296909.471    -5330174.006 8   6532359.678 9
  20190562.481    20190563.120    21105302.483 9 -61155583.967 8
  21430686.913    21430688.342    39091788.221 9 -47168002.197 8
 86  6 12  1 26 23.0800000  0  4G 6G13G 9G11
  21129201.927    21129204.512    38842425.218 9 -47240631.660 8
  21294665.166    21294668.131    -5341955.992 9   6523178.916 8
  20189499.305    20189499.435    21099711.658 9 -61159940.448 7
  21433041.159    21433042.493    39104159.312 9 -47158362.385 8
 86  6 12  1 26 29.0800000  0  4G 6G13G 9G11
  21131560.951    21131562.546    38854818.962 9 -47230974.203 8
  21292426.455    21292429.372    -5353718.923 9   6514012.988 9
  20188439.508    20188440.008    21094142.729 9 -61164279.871 9
  21435397.286    21435399.351    39116542.885 9 -47148712.853 8
 86  6 12  1 26 35.0800000  0  4G 6G13G 9G11
  21133923.104    21133925.143    38867233.265 9 -47221300.733 9
  21290192.097    21290194.892    -5365462.814 9   6504861.926 8
  20187383.261    20187384.004    21088595.742 9 -61168602.212 7
  21437756.324    21437757.504    39128938.953 9 -47139053.589 8
 86  6 12  1 26 41.0800000  0  4G 6G13G 9G11
  21136289.147    21136290.779    38879668.167 8 -47211611.190 9
  21287959.711    21287963.132    -5377187.654 9   6495725.674 8
  20186331.589    20186331.148    21083070.723 8 -61172907.416 7
  21440117.818    21440117.795    39141347.520 9 -47129384.567 8
 86  6 12  1 26 47.0800000  0  4G 6G13G 9G11
  21138659.430    21138660.605    38892123.682 8 -47201905.607 8
  21285732.628    21285734.832    -5388893.551 9   6486604.215 8
  20185284.702    20185285.056    21077567.697 8 -61177195.491 8
  21442482.265    21442481.904    39153768.515 9 -47119705.872 8
 86  6 12  1 26 53.0800000  0  4G 6G13G 9G11
  21141033.325    21141035.936    38904599.783 8 -47192183.971 9
  21283509.250    21283511.993    -5400580.439 9   6477497.543 8
  20184242.191    20184241.133    21072086.637 9 -61181466.456 8
  21444847.755    21444848.321    39166201.928 9 -47110017.502 8
 86  6 12  1 26 59.0800000  0  4G 6G13G 9G11
  21143411.404    21143414.388    38917096.434 9 -47182446.323 9
  21281288.250    21281290.920    -5412248.264 9   6468405.722 9
  20183202.254    20183203.161    21066627.677 8 -61185720.176 7
  21447216.072    21447217.826    39178647.780 9 -47100319.444 8
 86  6 12  1 27  5.0800000  0  4G 6G13G 9G11
  21145793.538    21145795.677    38929613.649 9 -47172692.655 9
  21279072.307    21279074.132    -5423896.973 9   6459328.833 9
  20182168.358    20182168.920    21061190.718 8 -61189956.774 7
  21449586.435    21449587.915    39191106.034 9 -47090611.711 8
 86  6 12  1 27 11.0800000  0  4G 6G13G 9G11
  21148179.413    21148181.587    38942151.375 9 -47162923.005 8
  21276858.723    21276860.801    -5435526.522 9   6450266.842 9
  20181137.411    20181137.925    21055775.800 8 -61194176.191 7
  21451960.077    21451961.848    39203576.677 9 -47080894.324 8
 86  6 12  1 27 17.0800000  0  4G 6G13G 9G11
  21150569.291    21150571.342    38954709.777 9 -47153137.252 9
  21274650.020    21274650.978    -5447136.968 9   6441219.744 9
  20180112.092    20180112.038    21050383.090 9 -61198378.302 8
  21454334.945    21454336.584    39216059.722 9 -47071167.285 9
 86  6 12  1 27 23.0800000  0  4G 6G13G 9G11
  21152963.059    21152964.583    38967288.710 9 -47143335.488 8
  21272443.679    21272446.260    -5458728.352 9   6432187.508 8
  20179088.992    20179089.571    21045012.344 8 -61202563.300 8
  21456713.096    21456715.326    39228555.116 9 -47061430.624 8
 86  6 12  1 27 29.0800000  0  4G 6G13G 9G11
  21155360.638    21155361.750    38979888.126 9 -47133517.763 9
  21270241.866    21270243.723    -5470300.674 9   6423170.111 9
  20178071.833    20178072.363    21039663.791 9 -61206731.012 8
  21459092.853    21459094.209    39241062.770 9 -47051684.399 8
 86  6 12  1 27 35.0800000  0  4G 6G13G 9G11
  21157761.426    21157763.365    38992508.089 9 -47123684.040 7
  21268042.950    21268045.512    -5481853.870 9   6414167.633 8
  20177057.942    20177059.270    21034337.389 8 -61210881.447 8
  21461475.604    21461476.845    39253582.767 9 -47041928.564 9
 86  6 12  1 27 41.0800000  0  4G 6G13G 9G11
  21160167.803    21160169.770    39005148.569 9 -47113834.313 8
  21265848.054    21265851.025    -5493388.087 9   6405179.934 9
  20176048.432    20176049.742    21029033.038 7 -61215014.712 8
  21463860.218    21463862.093    39266114.981 9 -47032163.203 8
 86  6 12  1 27 47.0800000  0  4G 6G13G 9G11
  21162577.196    21162578.328    39017809.549 9 -47103968.626 8
  21263657.097    21263658.808    -5504903.255 9   6396207.078 8
  20175043.835    20175044.963    21023750.834 8 -61219130.710 7
  21466247.597    21466248.920    39278659.459 9 -47022388.284 7
 86  6 12  1 27 53.0800000  0  4G 6G13G 9G11
  21164990.336    21164991.613    39030491.005 9 -47094086.972 9
  21261469.750    21261471.364    -5516399.281 9   6387249.140 8
  20174042.931    20174043.146    21018490.887 7 -61223229.372 8
  21468637.476    21468637.707    39291216.218 9 -47012603.812 9
 86  6 12  1 27 59.0800000  0  4G 6G13G 9G11
  21167406.348    21167408.522    39043193.021 8 -47084189.308 8
  21259285.163    21259287.945    -5527876.168 9   6378306.111 9
  20173046.416    20173046.236    21013253.153 8 -61227310.725 8
  21471028.869    21471029.664    39303785.216 9 -47002809.783 9
 86  6 12  1 28  5.0800000  0  4G 6G13G 9G11
  21169827.965    21169829.815    39055915.458 9 -47074275.719 8
  21257105.106    21257107.289    -5539333.996 9   6369377.940 8
  20172053.814    20172054.053    21008037.560 8 -61231374.824 8
  21473422.699    21473424.479    39316366.390 9 -46993006.281 8
 86  6 12  1 28 11.0800000  0  4G 6G13G 9G11
  21172252.746    21172253.242    39068658.456 9 -47064346.111 8
  21254928.659    21254930.385    -5550772.678 9   6360464.685 8
  20171066.364    20171066.494    21002844.196 8 -61235421.610 7
  21475819.545    21475820.933    39328959.774 9 -46983193.250 8
 86  6 12  1 28 17.0800000  0  4G 6G13G 9G11
  21174681.170    21174683.658    39081421.935 8 -47054400.565 8
  21252755.010    21252757.586    -5562192.276 9   6351566.302 9
  20170081.830    20170082.346    20997673.077 8 -61239451.037 8
  21478218.085    21478218.859    39341565.285 9 -46973370.772 8
 86  6 12  1 28 23.0800000  0  4G 6G13G 9G11
  21177113.887    21177115.786    39094205.909 9 -47044439.024 8
  21250585.618    21250588.328    -5573592.622 9   6342682.922 9
  20169102.256    20169101.891    20992524.270 8 -61243463.103 8
  21480618.650    21480620.853    39354182.993 9 -46963538.796 9
 86  6 12  1 28 29.0800000  0  4G 6G13G 9G11
  21179551.218    21179552.619    39107010.331 9 -47034461.559 9
  21248420.236    21248422.022    -5584973.850 8   6333814.431 9
  20168126.253    20168126.237    20987397.792 8 -61247457.751 8
  21483022.545    21483024.588    39366812.782 9 -46953697.408 8
 86  6 12  1 28 35.0800000  0  4G 6G13G 9G11
  21181991.294    21181992.657    39119835.213 9 -47024468.155 8
  21246258.080    21246260.520    -5596335.966 9   6324960.848 9
  20167153.456    20167156.402    20982293.531 7 -61251435.103 7
  21485428.222    21485429.200    39379454.594 9 -46943846.644 8
 86  6 12  1 28 41.0800000  0  4G 6G13G 9G11
  21184436.147    21184437.806    39132680.520 9 -47014458.825 8
  21244099.736    21244102.126    -5607678.915 9   6316122.183 8
  20166186.558    20166187.768    20977211.628 7 -61255395.029 9
  21487835.902    21487837.838    39392108.495 9 -46933986.468 9
 86  6 12  1 28 47.0800000  0  4G 6G13G 9G11
  21186883.769    21186886.280    39145546.198 9 -47004433.624 8
  21241945.024    21241947.884    -5619002.719 9   6307298.447 9
  20165225.003    20165225.392    20972151.931 8 -61259337.643 7
  21490246.252    21490247.964    39404774.462 9 -46924116.890 8
 86  6 12  1 28 53.0800000  0  4G 6G13G 9G11
  21189335.855    21189337.680    39158432.394 9 -46994392.440 8
  21239793.686    21239795.187    -5630307.349 9   6298489.650 9
  20164265.944    20164267.470    20967114.689 9 -61263262.780 8
  21492659.791    21492659.403    39417452.487 9 -46914237.910 8
 86  6 12  1 28 59.0800000  0  4G 6G13G 9G11
  21191792.140    21191793.194    39171338.977 9 -46984335.367 8
  21237645.529    21237647.626    -5641592.972 9   6289695.655 8
  20163312.148    20163313.651    20962099.774 9 -61267170.500 7
  21495073.861    21495073.738    39430142.497 9 -46904349.591 8
 86  6 12  1 29  5.0800000  0  4G 6G13G 9G11
  21194252.357    21194254.061    39184265.971 9 -46974262.393 8
  21235502.510    21235504.105    -5652859.423 9   6280916.617 9
  20162361.105    20162362.191    20957107.141 9 -61271060.861 8
  21497491.646    21497492.374    39442844.485 9 -46894451.951 9
 86  6 12  1 29 11.0800000  0  4G 6G13G 9G11
  21196715.913    21196717.096    39197213.322 9 -46964173.557 8
  21233362.522    21233363.763    -5664106.750 9   6272152.467 9
  20161415.438    20161416.149    20952136.952 8 -61274933.739 8
  21499909.923    21499911.982    39455558.445 9 -46884544.975 8
 86  6 12  1 29 17.0800000  0  4G 6G13G 9G11
  21199183.914    21199185.547    39210181.127 9 -46954068.793 8
  21231224.703    21231227.577    -5675334.917 9   6263403.255 9
  20160473.235    20160474.206    20947189.255 8 -61278789.090 8
  21502331.366    21502332.483    39468284.390 9 -46874628.642 8
 86  6 12  1 29 23.0800000  0  4G 6G13G 9G11
  21201655.970    21201657.059    39223169.327 8 -46943948.110 9
  21229091.410    21229093.667    -5686544.026 9   6254668.880 9
  20159536.727    20159537.496    20942263.970 9 -61282626.978 8
  21504756.387    21504758.223    39481022.280 9 -46864703.021 8
 86  6 12  1 29 29.0800000  0  4G 6G13G 9G11
  21204130.716    21204131.839    39236177.919 9 -46933811.547 8
  21226962.337    21226964.569    -5697733.939 9   6245949.476 9
  20158603.390    20158606.268    20937361.052 8 -61286447.426 7
  21507182.645    21507184.114    39493772.109 9 -46854768.094 8
 86  6 12  1 29 35.0800000  0  4G 6G13G 9G11
  21206611.375    21206612.074    39249206.876 9 -46923659.129 8
  21224837.253    21224838.208    -5708904.639 9   6237245.033 9
  20157675.295    20157676.576    20932480.632 9 -61290250.345 7
  21509610.637    21509612.709    39506533.868 9 -46844823.868 8
 86  6 12  1 29 41.0800000  0  4G 6G13G 9G11
  21209094.083    21209095.607    39262256.258 9 -46913490.780 8
  21222714.591    21222716.976    -5720056.227 9   6228555.494 9
  20156750.982    20156751.762    20927622.685 8 -61294035.762 8
  21512040.910    21512042.199    39519307.516 9 -46834870.383 8
 86  6 12  1 29 47.0800000  0  4G 6G13G 9G11
  21211580.918    21211581.651    39275326.007 9 -46903306.569 8
  21220597.487    21220598.757    -5731188.636 9   6219880.897 8
  20155831.184    20155831.854    20922787.265 8 -61297803.617 8
  21514474.110    21514475.497    39532093.009 9 -46824907.673 7
 86  6 12  1 29 53.0800000  0  4G 6G13G 9G11
  21214073.565    21214072.475    39288416.068 9 -46893106.530 8
  21218482.758    21218484.238    -5742301.844 9   6211221.253 9
  20154914.365    20154916.351    20917974.399 8 -61301553.920 8
  21516908.710    21516911.411    39544890.368 9 -46814935.694 9
 86  6 12  1 29 59.0800000  0  4G 6G13G 9G11
  21216566.635    21216568.050    39301526.444 9 -46882890.658 8
  21216370.058    21216373.236    -5753395.887 9   6202576.558 9
  20154003.558    20154004.681    20913183.967 8 -61305286.718 7
  21519346.686    21519349.144    39557699.506 9 -46804954.553 8
 86  6 12  1 30  5.0800000  0  4G 6G13G 9G11
  21219065.435    21219066.217    39314657.203 9 -46872658.900 8
  21214262.635    21214265.189    -5764470.773 9   6193946.770 9
  20153096.724    20153097.023    20908416.039 9 -61309001.989 7
  21521786.898    21521788.184    39570520.445 9 -46794964.217 8
 86  6 12  1 30 11.0800000  0  4G 6G13G 9G11
  21221567.821    21221569.107    39327808.297 9 -46862411.304 9
  21212158.644    21212161.946    -5775526.498 8   6185331.921 9
  20152193.873    20152193.873    20903670.679 8 -61312699.674 7
  21524228.161    21524229.927    39583353.201 9 -46784964.674 8
 86  6 12  1 30 17.0800000  0  4G 6G13G 9G11
  21224073.813    21224076.043    39340979.704 9 -46852147.884 8
  21210058.941    21210060.601    -5786563.000 9   6176732.067 9
  20151293.449    20151294.051    20898947.914 8 -61316379.752 7
  21526673.123    21526674.872    39596197.739 9 -46774955.945 9
 86  6 12  1 30 23.0800000  0  4G 6G13G 9G11
  21226584.647    21226585.274    39354171.432 9 -46841868.620 8
  21207962.280    21207964.811    -5797580.403 9   6168147.081 9
  20150400.067    20150401.023    20894247.727 8 -61320042.232 8
  21529119.891    21529120.710    39609053.957 9 -46764938.118 7
 86  6 12  1 30 29.0800000  0  4G 6G13G 9G11
  21229098.947    21229100.624    39367383.478 9 -46831573.518 8
  21205868.981    21205871.891    -5808578.481 9   6159577.159 9
  20149509.694    20149509.612    20889570.198 8 -61323687.066 7
  21531568.490    21531570.094    39621921.925 9 -46754911.128 8
 86  6 12  1 30 35.0800000  0  4G 6G13G 9G11
  21231617.138    21231617.651    39380615.766 9 -46821262.658 9
  21203780.565    21203783.026    -5819557.344 9   6151022.197 9
  20148624.640    20148623.671    20884915.289 9 -61327314.268 7
  21534018.323    21534021.287    39634801.549 9 -46744875.061 8
 86  6 12  1 30 41.0800000  0  4G 6G13G 9G11
  21234138.535    21234139.819    39393868.452 9 -46810935.886 8
  21201695.885    21201696.170    -5830516.961 9   6142482.246 9
  20147742.876    20147743.533    20880282.992 8 -61330923.854 8
  21536472.375    21536474.694    39647692.881 9 -46734829.866 8
 86  6 12  1 30 47.0800000  0  4G 6G13G 9G11
  21236665.083    21236664.366    39407141.381 9 -46800593.361 8
  21199613.211    21199614.497    -5841457.440 9   6133957.194 8
  20146865.379    20146866.209    20875673.183 8 -61334515.916 9
  21538927.749    21538928.593    39660595.839 9 -46724775.626 9
 86  6 12  1 30 53.0800000  0  4G 6G13G 9G11
  21239194.751    21239195.474    39420434.559 9 -46790235.043 8
  21197534.883    21197536.165    -5852378.719 8   6125447.112 8
  20145991.520    20145992.963    20871086.176 9 -61338090.204 8
  21541385.603    21541386.146    39673510.502 9 -46714712.250 9
 86  6 12  1 30 59.0800000  0  4G 6G13G 9G11
  21241727.696    21241729.197    39433747.956 9 -46779860.968 8
  21195459.692    21195461.621    -5863280.805 9   6116951.990 9
  20145124.615    20145124.290    20866521.886 7 -61341646.787 8
  21543844.567    21543846.806    39686436.700 9 -46704639.889 7
 86  6 12  1 31  5.0800000  0  4G 6G13G 9G11
  21244265.460    21244265.770    39447081.654 8 -46769471.074 7
  21193389.520    21193390.648    -5874163.650 9   6108471.857 9
  20144259.845    20144260.590    20861980.248 8 -61345185.745 7
  21546307.189    21546307.942    39699374.557 9 -46694558.450 8
 86  6 12  1 31 11.0800000  0  4G 6G13G 9G11
  21246806.795    21246807.392    39460435.620 9 -46759065.403 7
  21191321.838    21191323.109    -5885027.241 9   6100006.719 9
  20143399.294    20143400.608    20857461.329 8 -61348706.978 8
  21548771.370    21548772.533    39712323.985 9 -46684467.993 8
 86  6 12  1 31 17.0800000  0  4G 6G13G 9G11
  21249351.886    21249352.327    39473809.811 9 -46748643.958 8
  21189258.207    21189259.347    -5895871.614 9   6091556.554 8
  20142542.145    20142544.031    20852965.133 7 -61352210.518 8
  21551238.129    21551239.103    39725284.959 9 -46674368.528 8
 86  6 12  1 31 23.0800000  0  4G 6G13G 9G11
  21251900.481    21251900.835    39487204.288 8 -46738206.715 8
  21187199.506    21187200.446    -5906696.721 9   6083121.418 9
  20141692.203    20141693.211    20848491.663 8 -61355696.333 7
  21553705.820    21553707.888    39738257.483 9 -46664260.066 8
 86  6 12  1 31 29.0800000  0  4G 6G13G 9G11
  21254453.038    21254454.648    39500618.951 9 -46727753.737 7
  21185141.996    21185144.612    -5917502.622 9   6074701.245 8
  20140846.102    20140846.643    20844040.967 8 -61359164.404 8
  21556176.320    21556177.845    39751241.535 9 -46654142.632 8
 86  6 12  1 31 35.0800000  0  4G 6G13G 9G11
  21257009.484    21257010.292    39514053.800 9 -46717285.011 8
  21183089.411    21183090.756    -5928289.240 9   6066296.067 9
  20140003.518    20140004.390    20839613.078 7 -61362614.711 8
  21558649.669    21558649.942    39764237.079 9 -46644016.219 8
 86  6 12  1 31 41.0800000  0  4G 6G13G 9G11
  21259570.606    21259571.020    39527508.808 8 -46706800.617 8
  21181040.277    21181042.011    -5939056.694 9   6057905.861 8
  20139164.945    20139164.197    20835207.853 8 -61366047.357 8
  21561125.003    21561126.317    39777244.076 9 -46633880.907 8
 86  6 12  1 31 47.0800000  0  4G 6G13G 9G11
  21262134.095    21262134.523    39540983.988 9 -46696300.474 8
  21178995.296    21178997.566    -5949804.960 9   6049530.595 9
  20138330.431    20138331.683    20830825.459 9 -61369462.203 8
  21563602.265    21563602.882    39790262.540 9 -46623736.663 8
 86  6 12  1 31 53.0800000  0  4G 6G13G 9G11
  21264702.077    21264703.355    39554479.363 9 -46685784.607 8
  21176953.273    21176954.901    -5960534.071 9   6041170.258 8
  20137501.438    20137501.426    20826465.891 8 -61372859.282 8
  21566081.258    21566083.641    39803292.374 9 -46613583.547 9
 86  6 12  1 31 59.0800000  0  4G 6G13G 9G11
  21267274.452    21267275.633    39567994.890 9 -46675253.043 8
  21174915.419    21174917.112    -5971244.022 9   6032824.848 9
  20136675.739    20136676.586    20822129.151 8 -61376238.548 7
  21568562.947    21568565.211    39816333.684 9 -46603421.485 8
 86  6 12  1 32  5.0800000  0  4G 6G13G 9G11
  21269850.570    21269851.219    39581530.606 9 -46664705.726 8
  21172880.394    21172882.966    -5981934.687 9   6024494.461 9
  20135854.533    20135856.822    20817815.281 8 -61379600.025 8
  21571046.966    21571048.504    39829386.398 9 -46593250.548 8
 86  6 12  1 32 11.0800000  0  4G 6G13G 9G11
  21272429.267    21272429.884    39595086.513 9 -46654142.689 7
  21170850.647    21170852.017    -5992606.063 9   6016179.109 8
  20135039.109    20135039.796    20813524.187 7 -61382943.731 7
  21573532.392    21573535.739    39842450.483 9 -46583070.746 9
 86  6 12  1 32 17.0800000  0  4G 6G13G 9G11
  21275012.829    21275015.744    39608662.621 8 -46643563.909 8
  21168823.012    21168824.441    -6003258.141 9   6007878.800 9
  20134226.750    20134227.618    20809256.099 8 -61386269.515 8
  21576021.749    21576023.570    39855525.926 8 -46572882.092 9
 86  6 12  1 32 23.0800000  0  4G 6G13G 9G11
  21277600.815    21277601.707    39622258.806 9 -46632969.487 8
  21166798.684    21166801.517    -6013891.020 9   5999593.441 9
  20133418.033    20133418.814    20805010.821 8 -61389577.523 8
  21578511.692    21578513.527    39868612.659 9 -46562684.641 8
 86  6 12  1 32 29.0800000  0  4G 6G13G 9G11
  21280190.980    21280192.331    39635875.118 9 -46622359.390 8
  21164780.059    21164782.470    -6024504.610 9   5991323.115 9
  20132615.945    20132616.664    20800788.526 6 -61392867.623 8
  21581004.730    21581006.489    39881710.689 9 -46552478.388 7
 86  6 12  1 32 35.0800000  0  4G 6G13G 9G11
  21282786.120    21282788.146    39649511.537 9 -46611733.611 9
  21162764.621    21162765.177    -6035098.941 9   5983067.787 8
  20131816.176    20131817.650    20796589.150 8 -61396139.871 7
  21583498.380    21583500.676    39894819.989 9 -46542263.342 8
 86  6 12  1 32 41.0800000  0  4G 6G13G 9G11
  21285384.672    21285386.709    39663168.110 9 -46601092.119 8
  21160751.391    21160753.128    -6045674.016 9   5974827.477 8
  20131022.093    20131023.204    20792412.650 8 -61399394.283 8
  21585995.662    21585996.633    39907940.569 9 -46532039.521 8
 86  6 12  1 32 47.0800000  0  4G 6G13G 9G11
  21287987.801    21287988.634    39676844.816 9 -46590434.958 9
  21158742.572    21158745.519    -6056229.826 9   5966602.185 8
  20130231.112    20130231.052    20788259.172 8 -61402630.773 7
  21588494.479    21588496.908    39921072.408 9 -46521806.928 8
 86  6 12  1 32 53.0800000  0  4G 6G13G 9G11
  21290594.218    21290594.785    39690541.500 9 -46579762.223 8
  21156737.881    21156739.244    -6066766.448 9   5958391.823 9
  20129445.692    20129445.993    20784128.576 8 -61405849.414 7
  21590994.989    21590997.341    39934215.444 9 -46511565.601 8
 86  6 12  1 32 59.0800000  0  4G 6G13G 9G11
  21293205.728    21293205.621    39704258.230 8 -46569073.869 9
  21154736.124    21154738.501    -6077283.874 9   5950196.432 9
  20128662.619    20128664.448    20780020.971 8 -61409050.145 7
  21593498.528    21593499.707    39947369.616 9 -46501315.597 8
 86  6 12  1 33  5.0800000  0  4G 6G13G 9G11
  21295818.728    21295820.468    39717995.061 9 -46558369.855 9
  21152738.332    21152741.043    -6087781.886 9   5942016.172 8
  20127886.202    20127886.738    20775936.300 8 -61412233.012 7
  21596003.823    21596004.884    39960535.002 9 -46491056.866 8
 86  6 12  1 33 11.0800000  0  4G 6G13G 9G11
  21298436.540    21298436.792    39731752.002 9 -46547650.169 9
  21150745.119    21150746.482    -6098260.592 9   5933850.942 9
  20127111.560    20127112.708    20771874.655 8 -61415397.926 7
  21598510.682    21598513.853    39973711.566 8 -46480789.417 8
 86  6 12  1 33 17.0800000  0  4G 6G13G 9G11
  21301059.415    21301059.047    39745528.970 9 -46536914.860 8
  21148753.375    21148755.745    -6108720.157 9   5925700.646 8
  20126344.507    20126346.044    20767836.030 8 -61418544.916 7
  21601020.020    21601022.393    39986899.297 9 -46470513.254 9
 86  6 12  1 33 23.0800000  0  4G 6G13G 9G11
  21303683.263    21303684.972    39759326.044 9 -46526163.907 8
  21146767.326    21146768.603    -6119160.443 9   5917565.362 9
  20125580.322    20125581.636    20763820.542 9 -61421673.871 8
  21603532.126    21603534.251    40000098.140 8 -46460228.450 8
 86  6 12  1 33 29.0800000  0  4G 6G13G 9G11
  21306314.006    21306313.668    39773143.115 9 -46515397.360 8
  21144785.205    21144786.395    -6129581.507 9   5909445.059 9
  20124820.675    20124821.852    20759828.041 8 -61424784.913 8
  21606045.392    21606047.773    40013308.157 9 -46449934.931 9
 86  6 12  1 33 35.0800000  0  4G 6G13G 9G11
  21308946.896    21308946.417    39786980.249 9 -46504615.180 8
  21142805.246    21142806.575    -6139983.297 9   5901339.761 8
  20124065.503    20124067.351    20755858.687 7 -61427877.921 8
  21608562.345    21608563.812    40026529.266 9 -46439632.778 8
 86  6 12  1 33 41.0800000  0  4G 6G13G 9G11
  21311583.135    21311583.985    39800837.377 8 -46493817.443 8
  21140829.431    21140831.350    -6150365.819 9   5893249.492 8
  20123315.704    20123315.689    20751912.395 8 -61430952.957 7
  21611080.014    21611082.351    40039761.385 9 -46429322.029 9
 86  6 12  1 33 47.0800000  0  4G 6G13G 9G11
  21314223.697    21314224.773    39814714.507 9 -46483004.081 9
  21138856.951    21138859.065    -6160728.904 9   5885174.359 7
  20122568.346    20122569.162    20747989.138 8 -61434010.043 7
  21613600.172    21613601.853    40053004.604 9 -46419002.643 8
 86  6 12  1 33 53.0800000  0  4G 6G13G 9G11
  21316869.008    21316869.400    39828611.689 9 -46472175.117 8
  21136889.389    21136890.382    -6171072.741 8   5877114.249 9
  20121825.679    20121825.530    20744089.094 8 -61437049.040 8
  21616122.664    21616124.041    40066258.875 9 -46408674.649 8
 86  6 12  1 33 59.0800000  0  4G 6G13G 9G11
  21319516.747    21319518.231    39842528.871 9 -46461330.563 9
  21134924.641    21134926.184    -6181397.258 9   5869069.160 8
  20121087.768    20121089.706    20740212.111 8 -61440070.060 7
  21618646.967    21618648.276    40079524.164 8 -46398338.051 8
 86  6 12  1 34  5.0800000  0  4G 6G13G 9G11
  21322169.102    21322169.839    39856466.061 9 -46450470.425 9
  21132963.445    21132965.260    -6191702.396 9   5861039.187 8
  20120354.975    20120355.867    20736358.300 9 -61443073.037 8
  21621172.925    21621174.229    40092800.498 9 -46387992.859 8
 86  6 12  1 34 11.0800000  0  4G 6G13G 9G11
  21324825.117    21324826.256    39870423.196 9 -46439594.738 8
  21131005.706    21131008.510    -6201988.257 9   5853024.240 8
  20119625.858    20119626.665    20732527.736 8 -61446057.898 7
  21623701.447    21623703.732    40106087.836 9 -46377639.099 9
 86  6 12  1 34 17.0800000  0  4G 6G13G 9G11
  21327484.679    21327486.045    39884400.296 9 -46428703.504 8
  21129051.941    21129053.915    -6212254.808 8   5845024.330 7
  20118900.325    20118901.332    20728720.241 8 -61449024.783 7
  21626232.816    21626234.115    40119386.102 8 -46367276.808 9
 86  6 12  1 34 23.0800000  0  4G 6G13G 9G11
  21330148.505    21330149.188    39898397.382 9 -46417796.690 9
  21127101.824    21127104.635    -6222502.093 9   5837039.444 9
  20118180.195    20118180.859    20724935.978 7 -61451973.551 8
  21628764.950    21628766.881    40132695.264 8 -46356906.040 8
 86  6 12  1 34 29.0800000  0  4G 6G13G 9G11
  21332815.595    21332816.391    39912414.349 9 -46406874.382 8
  21125156.484    21125158.209    -6232730.128 9   5829069.538 8
  20117465.994    20117466.166    20721174.922 7 -61454904.243 8
  21631299.267    21631301.707    40146015.363 9 -46346526.742 8
 86  6 12  1 34 35.0800000  0  4G 6G13G 9G11
  21335486.206    21335488.288    39926451.279 9 -46395936.514 9
  21123213.227    21123214.310    -6242938.862 9   5821114.683 8
  20116753.734    20116754.616    20717437.083 9 -61457816.849 8
  21633835.886    21633837.903    40159346.372 9 -46336138.948 8
 86  6 12  1 34 41.0800000  0  4G 6G13G 9G11
  21338161.682    21338162.748    39940508.175 9 -46384983.097 8
  21121274.485    21121275.637    -6253128.315 9   5813174.872 8
  20116046.523    20116047.678    20713722.474 8 -61460711.343 7
  21636374.901    21636376.506    40172688.259 9 -46325742.675 9
 86  6 12  1 34 47.0800000  0  4G 6G13G 9G11
  21340840.363    21340841.798    39954584.945 9 -46374014.193 9
  21119338.771    21119340.258    -6263298.444 9   5805250.095 8
  20115344.605    20115345.269    20710031.167 8 -61463587.692 8
  21638916.253    21638917.644    40186040.979 9 -46315337.955 9
 86  6 12  1 34 53.0800000  0  4G 6G13G 9G11
  21343523.104    21343524.786    39968681.663 9 -46363029.742 7
  21117407.942    21117409.319    -6273449.154 9   5797340.445 9
  20114646.062    20114647.444    20706363.073 8 -61466445.946 7
  21641459.685    21641460.906    40199404.578 9 -46304924.765 8
 86  6 12  1 34 59.0800000  0  4G 6G13G 9G11
  21346209.347    21346210.481    39982798.252 9 -46352029.808 9
  21115479.723    21115480.885    -6283580.532 9   5789445.871 9
  20113952.000    20113953.654    20702718.290 7 -61469286.030 8
  21644004.310    21644006.003    40212778.989 9 -46294503.148 8
 86  6 12  1 35  5.0800000  0  4G 6G13G 9G11
  21348899.641    21348900.475    39996934.747 9 -46341014.360 8
  21113555.233    21113556.875    -6293692.629 9   5781566.329 8
  20113263.803    20113264.060    20699096.833 7 -61472107.950 7
  21646551.926    21646553.795    40226164.147 9 -46284073.157 9
 86  6 12  1 35 11.0800000  0  4G 6G13G 9G11
  21351593.145    21351593.237    40011091.148 9 -46329983.408 9
  21111635.321    21111635.751    -6303785.388 8   5773701.845 8
  20112579.586    20112579.909    20695498.655 8 -61474911.707 7
  21649101.718    21649103.096    40239560.123 9 -46273634.740 8
 86  6 12  1 35 17.0800000  0  4G 6G13G 9G11
  21354290.426    21354291.736    40025267.387 9 -46318936.985 9
  21109717.756    21109719.350    -6313858.895 9   5765852.359 8
  20111897.727    20111898.883    20691923.717 8 -61477697.391 7
  21651651.730    21651653.661    40252966.850 9 -46263187.941 8
 86  6 12  1 35 23.0800000  0  4G 6G13G 9G11
  21356992.631    21356994.095    40039463.554 9 -46307875.050 9
  21107803.912    21107806.526    -6323912.966 9   5758018.030 9
  20111223.201    20111223.787    20688372.156 8 -61480464.829 7
  21654205.047    21654206.571    40266384.402 9 -46252732.707 9
 86  6 12  1 35 29.0800000  0  4G 6G13G 9G11
  21359698.391    21359699.275    40053679.551 9 -46296797.665 8
  21105894.320    21105897.140    -6333947.679 9   5750198.777 8
  20110550.751    20110553.047    20684843.991 7 -61483214.053 7
  21656760.424    21656762.459    40279812.665 9 -46242269.134 8
 86  6 12  1 35 35.0800000  0  4G 6G13G 9G11
  21362406.202    21362407.539    40067915.286 9 -46285704.880 8
  21103989.147    21103990.963    -6343963.137 9   5742394.524 8
  20109884.412    20109885.775    20681339.187 8 -61485945.066 8
  21659318.447    21659318.838    40293251.558 9 -46231797.267 9
 86  6 12  1 35 41.0800000  0  4G 6G13G 9G11
  21365119.221    21365120.832    40082171.013 9 -46274596.525 8
  21102086.591    21102089.593    -6353959.224 9   5734605.375 8
  20109221.754    20109222.555    20677857.818 7 -61488657.824 8
  21661876.873    21661878.995    40306701.129 9 -46221317.076 8
 86  6 12  1 35 47.0800000  0  4G 6G13G 9G11
  21367835.506    21367837.019    40096446.532 9 -46263472.759 9
  21100188.580    21100189.843    -6363935.942 9   5726831.308 8
  20108564.782    20108564.263    20674399.891 9 -61491352.312 8
  21664438.690    21664439.796    40320161.400 9 -46210828.568 8
 86  6 12  1 35 53.0800000  0  4G 6G13G 9G11
  21370556.226    21370557.750    40110741.832 9 -46252333.566 9
  21098293.644    21098294.804    -6373893.354 9   5719072.299 8
  20107909.924    20107911.816    20670965.362 8 -61494028.564 8
  21667002.212    21667003.982    40333632.308 9 -46200331.759 9
 86  6 12  1 35 59.0800000  0  4G 6G13G 9G11
  21373279.294    21373280.457    40125056.948 9 -46241178.941 8
  21096402.017    21096404.789    -6383831.536 9   5711328.257 9
  20107261.947    20107262.185    20667554.156 8 -61496686.658 7
  21669567.713    21669569.139    40347113.883 9 -46189826.631 9
 86  6 12  1 36  5.0800000  0  4G 6G13G 9G11
  21376008.460    21376009.525    40139391.804 9 -46230008.928 8
  21094514.864    21094515.513    -6393750.443 9   5703599.251 9
  20106617.221    20106617.750    20664166.374 8 -61499326.477 7
  21672135.557    21672138.295    40360606.004 9 -46179313.301 9
 86  6 12  1 36 11.0800000  0  4G 6G13G 9G11
  21378739.650    21378739.874    40153746.463 9 -46218823.486 9
  21092630.638    21092632.652    -6403649.969 8   5695885.337 9
  20105976.587    20105977.311    20660802.086 8 -61501948.001 8
  21674705.397    21674706.261    40374108.618 8 -46168791.777 8
 86  6 12  1 36 17.0800000  0  4G 6G13G 9G11
  21381475.026    21381476.651    40168120.899 9 -46207622.636 9
  21090750.413    21090752.498    -6413530.088 9   5688186.544 9
  20105339.647    20105341.988    20657461.282 8 -61504551.228 7
  21677276.090    21677276.951    40387621.789 9 -46158262.043 9
 86  6 12  1 36 23.0800000  0  4G 6G13G 9G11
  21384214.406    21384214.229    40182515.083 9 -46196406.389 9
  21088873.445    21088877.021    -6423390.923 9   5680502.792 8
  20104709.319    20104711.050    20654143.907 8 -61507136.192 8
  21679849.497    21679851.360    40401145.445 8 -46147724.139 8
 86  6 12  1 36 29.0800000  0  4G 6G13G 9G11
  21386957.019    21386957.815    40196928.995 9 -46185174.777 8
  21087001.253    21087003.456    -6433232.451 9   5672834.072 9
  20104082.367    20104082.962    20650850.045 8 -61509702.849 7
  21682425.240    21682427.049    40414679.605 9 -46137178.039 9
 86  6 12  1 36 35.0800000  0  4G 6G13G 9G11
  21389703.610    21389704.719    40211362.661 9 -46173927.769 8
  21085132.343    21085134.815    -6443054.632 9   5665180.423 9
  20103462.010    20103460.839    20647579.628 9 -61512251.213 8
  21685002.489    21685004.443    40428224.273 8 -46126623.756 9
 86  6 12  1 36 41.0800000  0  4G 6G13G 9G11
  21392454.578    21392455.101    40225816.034 9 -46162665.408 9
  21083267.325    21083268.438    -6452857.427 9   5657541.891 9
  20102842.207    20102844.508    20644332.805 8 -61514781.210 8
  21687581.549    21687583.875    40441779.418 9 -46116061.296 9
 86  6 12  1 36 47.0800000  0  4G 6G13G 9G11
  21395209.043    21395209.234    40240289.144 9 -46151387.657 9
  21081404.937    21081407.037    -6462640.855 9   5649918.437 9
  20102229.656    20102229.596    20641109.442 8 -61517292.922 8
  21690163.682    21690165.407    40455345.003 9 -46105490.720 9
 86  6 12  1 36 53.0800000  0  4G 6G13G 9G11
  21397966.369    21397967.132    40254781.998 9 -46140094.544 9
  21079546.553    21079549.246    -6472404.996 8   5642310.027 8
  20101621.046    20101621.959    20637909.624 8 -61519786.284 9
  21692747.337    21692747.777    40468921.030 9 -46094911.998 9
 86  6 12  1 36 59.0800000  0  4G 6G13G 9G11
  21400727.583    21400729.176    40269294.563 9 -46128786.056 8
  21077693.852    21077694.198    -6482149.813 8   5634716.663 9
  20101016.131    20101016.348    20634733.433 7 -61522261.242 8
  21695333.049    21695333.391    40482507.473 9 -46084325.161 9
 86  6 12  1 37  5.0800000  0  4G 6G13G 9G11
  21403493.204    21403494.385    40283826.829 9 -46117462.223 7
  21075842.391    21075843.324    -6491875.251 9   5627138.407 9
  20100416.753    20100416.433    20631580.815 9 -61524717.833 7
  21697919.930    21697921.345    40496104.318 9 -46073730.223 9
 86  6 12  1 37 11.0800000  0  4G 6G13G 9G11
  21406262.634    21406264.552    40298378.724 9 -46106123.090 8
  21073994.644    21073998.051    -6501581.313 9   5619575.235 8
  20099821.774    20099821.491    20628451.756 8 -61527156.049 8
  21700508.299    21700510.708    40509711.503 9 -46063127.225 8
 86  6 12  1 37 17.0800000  0  4G 6G13G 9G11
  21409035.527    21409035.919    40312950.291 9 -46094768.622 9
  21072151.567    21072153.253    -6511267.942 9   5612027.226 8
  20099230.696    20099231.632    20625346.263 9 -61529575.929 8
  21703100.545    21703102.287    40523329.118 9 -46052516.097 9
 86  6 12  1 37 23.0800000  0  4G 6G13G 9G11
  21411812.281    21411813.562    40327541.514 9 -46083398.844 9
  21070312.557    21070314.497    -6520935.264 9   5604494.249 9
  20098643.822    20098644.028    20622264.454 8 -61531977.335 8
  21705693.589    21705695.565    40536957.092 9 -46041896.896 8
 86  6 12  1 37 29.0800000  0  4G 6G13G 9G11
  21414592.099    21414593.787    40342152.442 9 -46072013.711 8
  21068476.059    21068478.624    -6530583.246 9   5596976.338 9
  20098061.958    20098062.605    20619206.280 8 -61534360.340 8
  21708288.884    21708291.710    40550595.422 9 -46031269.621 9
 86  6 12  1 37 35.0800000  0  4G 6G13G 9G11
  21417376.837    21417376.732    40356782.939 9 -46060613.330 9
  21066644.674    21066646.078    -6540211.939 8   5589473.470 8
  20097484.737    20097484.686    20616171.721 8 -61536724.923 7
  21710885.866    21710887.265    40564244.035 9 -46020634.351 8
 86  6 12  1 37 41.0800000  0  4G 6G13G 9G11
  21420165.269    21420164.518    40371433.092 9 -46049197.638 9
  21064816.110    21064817.203    -6549821.274 9   5581985.686 9
  20096911.339    20096910.864    20613160.894 8 -61539071.022 8
  21713485.592    21713487.555    40577902.966 9 -46009991.028 9
 86  6 12  1 37 47.0800000  0  4G 6G13G 9G11
  21422956.390    21422956.826    40386102.923 9 -46037766.606 9
  21062990.135    21062992.568    -6559411.126 8   5574513.062 7
  20096341.859    20096343.384    20610173.713 8 -61541398.702 8
  21716086.087    21716088.703    40591572.153 9 -45999339.719 9
 86  6 12  1 37 53.0800000  0  4G 6G13G 9G11
  21425751.517    21425752.183    40400792.357 9 -46026320.309 8
  21061169.490    21061171.364    -6568981.580 9   5567055.572 9
  20095779.537    20095780.358    20607210.187 8 -61543707.946 7
  21718689.920    21718691.952    40605251.530 9 -45988680.468 9
 86  6 12  1 37 59.0800000  0  4G 6G13G 9G11
  21428550.283    21428551.747    40415501.310 9 -46014858.778 9
  21059351.451    21059353.410    -6578532.696 9   5559613.142 9
  20095219.132    20095220.405    20604270.312 8 -61545998.753 7
  21721294.953    21721296.467    40618941.125 9 -45978013.260 8
 86  6 12  1 38  5.0800000  0  4G 6G13G 9G11
  21431352.796    21431354.174    40430229.863 9 -46003381.993 8
  21057538.353    21057539.925    -6588064.455 8   5552185.808 9
  20094664.304    20094665.884    20601354.166 7 -61548271.084 8
  21723902.038    21723903.602    40632640.965 9 -45967338.059 8
 86  6 12  1 38 11.0800000  0  4G 6G13G 9G11
  21434159.225    21434159.907    40444978.030 9 -45991889.919 8
  21055726.887    21055729.942    -6597576.738 9   5544773.654 8
  20094114.178    20094115.169    20598461.785 9 -61550524.888 7
  21726510.677    21726511.563    40646351.007 9 -45956654.911 8
 86  6 12  1 38 17.0800000  0  4G 6G13G 9G11
  21436969.725    21436970.645    40459745.789 9 -45980382.584 9
  21053922.030    21053923.039    -6607069.668 9   5537376.551 8
  20093566.981    20093568.157    20595593.114 9 -61552760.208 8
  21729121.910    21729122.692    40660071.263 9 -45945963.804 9
 86  6 12  1 38 23.0800000  0  4G 6G13G 9G11
  21439783.199    21439785.160    40474533.062 9 -45968860.037 9
  21052118.617    21052119.982    -6616543.227 9   5529994.562 9
  20093026.403    20093026.943    20592748.260 8 -61554976.967 8
  21731734.810    21731735.525    40673801.646 9 -45935264.806 9
 86  6 12  1 38 29.0800000  0  4G 6G13G 9G11
  21442601.073    21442602.300    40489339.921 9 -45957322.240 8
  21050319.152    21050320.315    -6625997.410 9   5522627.672 9
  20092490.621    20092490.045    20589927.181 7 -61557175.209 8
  21734349.616    21734351.265    40687542.162 9 -45924557.916 8
 86  6 12  1 38 35.0800000  0  4G 6G13G 9G11
  21445422.706    21445422.975    40504166.301 9 -45945769.216 9
  21048524.091    21048526.052    -6635432.304 8   5515275.806 8
  20091956.719    20091957.663    20587129.792 8 -61559355.006 8
  21736965.040    21736967.421    40701292.763 9 -45913843.159 9
 86  6 12  1 38 41.0800000  0  4G 6G13G 9G11
  21448246.965    21448249.019    40519012.207 9 -45934200.983 9
  21046731.989    21046734.722    -6644847.831 8   5507939.038 9
  20091429.434    20091431.096    20584356.326 6 -61561516.141 8
  21739584.895    21739585.869    40715053.449 9 -45903120.559 9
 86  6 12  1 38 47.0800000  0  4G 6G13G 9G11
  21451076.239    21451077.520    40533877.607 9 -45922617.561 8
  21044944.121    21044945.442    -6654243.978 9   5500617.371 8
  20090905.883    20090907.598    20581606.572 9 -61563658.808 7
  21742205.288    21742207.103    40728824.137 9 -45892390.148 9
 86  6 12  1 38 53.0800000  0  4G 6G13G 9G11
  21453908.653    21453909.521    40548762.475 9 -45911018.975 9
  21043159.593    21043161.953    -6663620.804 8   5493310.767 9
  20090387.475    20090389.147    20578880.638 8 -61565782.920 8
  21744827.111    21744828.770    40742604.854 9 -45881651.938 9
 86  6 12  1 38 59.0800000  0  4G 6G13G 9G11
  21456745.338    21456744.972    40563666.753 9 -45899405.251 8
  21041378.441    21041381.300    -6672978.279 9   5486019.216 9
  20089871.832    20089873.232    20576178.579 7 -61567888.415 7
  21747451.451    21747453.785    40756395.599 9 -45870905.897 9
 86  6 12  1 39  5.0800000  0  4G 6G13G 9G11
  21459585.542    21459586.835    40578590.584 9 -45887776.299 9
  21039603.095    21039604.347    -6682316.367 9   5478742.794 9
  20089363.993    20089365.061    20573500.286 8 -61569975.399 7
  21750078.806    21750079.138    40770196.323 9 -45860152.096 8
 86  6 12  1 39 11.0800000  0  4G 6G13G 9G11
  21462428.206    21462427.812    40593533.907 9 -45876132.166 9
  21037829.324    21037831.275    -6691635.118 9   5471481.435 9
  20088857.042    20088859.077    20570845.859 8 -61572043.780 7
  21752706.229    21752707.875    40784007.024 9 -45849390.511 8
 86  6 12  1 39 17.0800000  0  4G 6G13G 9G11
  21465275.133    21465276.397    40608496.625 9 -45864472.913 8
  21036058.848    21036061.744    -6700934.465 9   5464235.191 9
  20088357.937    20088358.690    20568215.265 8 -61574093.595 7
  21755335.991    21755338.128    40797827.687 9 -45838621.171 9
 86  6 12  1 39 23.0800000  0  4G 6G13G 9G11
  21468126.954    21468128.919    40623478.755 9 -45852798.530 9
  21034292.772    21034293.095    -6710214.374 9   5457004.091 8
  20087860.870    20087862.453    20565608.550 7 -61576124.797 7
  21757967.568    21757969.700    40811658.235 9 -45827844.122 9
 86  6 12  1 39 29.0800000  0  4G 6G13G 9G11
  21470981.467    21470982.088    40638480.303 9 -45841109.020 8
  21032531.245    21032533.374    -6719474.917 9   5449788.089 9
  20087370.262    20087370.915    20563025.686 8 -61578137.421 8
  21760600.589    21760603.446    40825498.695 9 -45817059.344 9
 86  6 12  1 39 35.0800000  0  4G 6G13G 9G11
  21473840.211    21473840.390    40653501.282 9 -45829404.368 8
  21030772.148    21030775.060    -6728716.099 9   5442587.171 9
  20086883.527    20086883.681    20560466.821 8 -61580131.334 8
  21763236.892    21763238.462    40839349.084 9 -45806266.835 9
 86  6 12  1 39 41.0800000  0  4G 6G13G 9G11
  21476702.281    21476702.202    40668541.623 9 -45817684.631 8
  21029016.907    21029020.545    -6737938.006 8   5435401.270 9
  20086400.523    20086400.826    20557931.786 7 -61582106.697 8
  21765873.641    21765876.015    40853209.364 9 -45795466.624 8
 86  6 12  1 39 47.0800000  0  4G 6G13G 9G11
  21479568.607    21479569.091    40683601.446 9 -45805949.706 9
  21027267.068    21027268.858    -6747140.485 9   5428230.527 8
  20085923.306    20085924.164    20555420.708 7 -61584063.378 7
  21768512.993    21768516.188    40867079.539 9 -45784658.709 8
 86  6 12  1 39 53.0800000  0  4G 6G13G 9G11
  21482437.319    21482438.525    40698680.635 9 -45794199.705 8
  21025518.931    21025520.880    -6756323.603 9   5421074.840 9
  20085449.577    20085451.686    20552933.549 8 -61586001.418 8
  21771155.284    21771156.930    40880959.466 9 -45773843.177 9
 86  6 12  1 39 59.0800000  0  4G 6G13G 9G11
  21485310.772    21485310.895    40713779.237 9 -45782434.561 9
  21023774.775    21023777.652    -6765487.273 9   5413934.325 9
  20084980.813    20084982.293    20550470.386 7 -61587920.768 8
  21773798.173    21773799.858    40894849.219 9 -45763019.999 8
 86  6 12  1 40  5.0800000  0  4G 6G13G 9G11
  21488187.035    21488188.797    40728897.135 9 -45770654.392 9
  21022034.852    21022038.078    -6774631.593 9   5406808.897 8
  20084516.300    20084517.387    20548031.145 7 -61589821.473 8
  21776443.454    21776445.599    40908748.819 9 -45752189.142 8
 86  6 12  1 40 11.0800000  0  4G 6G13G 9G11
  21491067.987    21491066.940    40744034.379 9 -45758859.147 8
  21020300.018    21020300.572    -6783756.475 9   5399698.593 9
  20084057.582    20084058.022    20545615.886 8 -61591703.489 8
  21779089.754    21779092.183    40922658.187 9 -45741350.683 8
 86  6 12  1 40 17.0800000  0  4G 6G13G 9G11
  21493952.091    21493953.483    40759190.953 9 -45747048.827 9
  21018565.475    21018567.969    -6792861.975 9   5392603.398 8
  20083603.025    20083603.711    20543224.564 8 -61593566.862 8
  21781738.490    21781740.321    40936577.362 9 -45730504.570 8
 86  6 12  1 40 23.0800000  0  4G 6G13G 9G11
  21496840.315    21496840.784    40774366.883 9 -45735223.445 9
  21016837.097    21016839.328    -6801948.051 9   5385523.355 9
  20083152.251    20083151.999    20540857.288 7 -61595411.485 7
  21784389.624    21784391.356    40950506.310 9 -45719650.853 8
 86  6 12  1 40 29.0800000  0  4G 6G13G 9G11
  21499731.060    21499732.423    40789562.138 9 -45723382.989 9
  21015112.000    21015113.668    -6811014.792 9   5378458.359 8
  20082706.013    20082705.838    20538514.106 8 -61597237.348 7
  21787041.729    21787044.010    40964444.964 9 -45708789.562 9
 86  6 12  1 40 35.0800000  0  4G 6G13G 9G11
  21502626.352    21502628.143    40804776.674 9 -45711527.511 8
  21013389.853    21013392.603    -6820062.206 9   5371408.431 9
  20082265.524    20082266.397    20536194.905 7 -61599044.505 7
  21789695.522    21789698.508    40978393.329 9 -45697920.715 9
 86  6 12  1 40 41.0800000  0  4G 6G13G 9G11
  21505525.791    21505526.555    40820010.499 9 -45699657.003 8
  21011672.004    21011674.972    -6829090.239 9   5364373.601 8
  20081826.367    20081828.410    20533899.694 8 -61600832.992 8
  21792351.841    21792354.919    40992351.370 8 -45687044.318 9
 86  6 12  1 40 47.0800000  0  4G 6G13G 9G11
  21508428.127    21508430.091    40835263.603 9 -45687771.481 8
  21009958.081    21009960.682    -6838098.956 9   5357353.814 9
  20081394.155    20081396.920    20531628.627 8 -61602602.652 7
  21795010.328    21795013.168    41006319.024 9 -45676160.436 8
 86  6 12  1 40 53.0800000  0  4G 6G13G 9G11
  21511334.551    21511335.614    40850535.967 9 -45675870.948 8
  21008247.884    21008249.027    -6847088.328 9   5350349.119 9
  20080969.238    20080968.994    20529381.516 8 -61604353.643 8
  21797669.665    21797671.784    41020296.311 9 -45665269.055 9
 86  6 12  1 40 59.0800000  0  4G 6G13G 9G11
  21514243.755    21514245.193    40865827.592 9 -45663955.399 8
  21006541.009    21006540.708    -6856058.274 9   5343359.556 8
  20080544.967    20080546.587    20527158.523 8 -61606085.846 8
  21800331.537    21800333.835    41034283.302 9 -45654370.101 9
 86  6 12  1 41  5.0800000  0  4G 6G13G 9G11
  21517157.392    21517159.129    40881138.472 9 -45652024.864 9
  21004837.528    21004839.205    -6865008.817 9   5336385.113 8
  20080125.940    20080126.549    20524959.583 8 -61607799.324 8
  21802995.432    21802996.747    41048279.888 9 -45643463.675 8
 86  6 12  1 41 11.0800000  0  4G 6G13G 9G11
  21520074.576    21520076.699    40896468.618 9 -45640079.295 9
  21003137.451    21003139.093    -6873939.929 9   5329425.800 9
  20079713.446    20079713.838    20522784.845 7 -61609493.913 7
  21805659.707    21805661.640    41062286.094 9 -45632549.747 8
 86  6 12  1 41 17.0800000  0  4G 6G13G 9G11
  21522995.772    21522996.292    40911817.905 9 -45628118.823 8
  21001442.289    21001444.173    -6882851.740 9   5322481.543 8
  20079303.705    20079305.379    20520634.179 8 -61611169.759 7
  21808327.721    21808329.630    41076301.778 9 -45621628.438 9
 86  6 12  1 41 23.0800000  0  4G 6G13G 9G11
  21525921.223    21525921.489    40927186.443 9 -45616143.351 8
  20999749.856    20999751.233    -6891744.258 9   5315552.308 9
  20078899.382    20078900.000    20518507.536 9 -61612826.886 8
  21810996.802    21810997.844    41090327.005 9 -45610699.696 8
 86  6 12  1 41 29.0800000  0  4G 6G13G 9G11
  21528848.887    21528849.804    40942574.161 9 -45604152.927 8
  20998061.124    20998062.678    -6900617.384 9   5308638.186 9
  20078499.036    20078498.616    20516405.057 8 -61614465.177 7
  21813666.637    21813669.106    41104361.745 9 -45599763.545 8
 86  6 12  1 41 35.0800000  0  4G 6G13G 9G11
  21531780.838    21531780.688    40957981.026 9 -45592147.579 8
  20996376.705    20996377.918    -6909471.103 9   5301739.187 8
  20078104.369    20078104.140    20514326.775 8 -61616084.621 8
  21816340.312    21816342.153    41118405.981 9 -45588819.981 8
 86  6 12  1 41 41.0800000  0  4G 6G13G 9G11
  21534716.253    21534718.464    40973407.060 8 -45580127.300 9
  20994695.097    20994696.744    -6918305.419 9   5294855.309 9
  20077713.445    20077713.196    20512272.616 8 -61617685.260 8
  21819014.362    21819015.726    41132459.746 9 -45577868.991 9
 86  6 12  1 41 47.0800000  0  4G 6G13G 9G11
  21537655.019    21537656.182    40988852.305 9 -45568092.053 9
  20993018.034    20993019.432    -6927120.330 9   5287986.555 8
  20077327.285    20077327.351    20510242.738 8 -61619266.984 8
  21821689.387    21821691.907    41146523.022 9 -45566910.598 8
 86  6 12  1 41 53.0800000  0  4G 6G13G 9G11
  21540598.561    21540598.209    41004316.713 9 -45556041.875 9
  20991344.229    20991345.411    -6935915.906 9   5281132.866 7
  20076945.001    20076946.103    20508237.076 9 -61620829.842 7
  21824367.816    21824370.010    41160595.757 9 -45555944.838 8
 86  6 12  1 41 59.0800000  0  4G 6G13G 9G11
  21543544.537    21543544.672    41019800.283 9 -45543976.776 7
  20989673.555    20989675.766    -6944692.097 9   5274294.273 8
  20076567.310    20076567.591    20506255.453 8 -61622373.969 8
  21827046.481    21827049.727    41174677.894 9 -45544971.748 8
 86  6 12  1 42  5.0800000  0  4G 6G13G 9G11
  21546494.177    21546495.241    41035302.925 9 -45531896.793 8
  20988007.212    20988009.599    -6953448.971 9   5267470.740 9
  20076195.617    20076196.307    20504298.101 8 -61623899.177 8
  21829728.692    21829731.451    41188769.440 9 -45533991.324 8
 86  6 12  1 42 11.0800000  0  4G 6G13G 9G11
  21549448.309    21549449.514    41050824.655 9 -45519801.937 9
  20986345.649    20986346.981    -6962186.400 9   5260662.352 9
  20075827.567    20075827.966    20502364.947 8 -61625405.523 7
  21832412.571    21832415.200    41202870.382 9 -45523003.591 8
 86  6 12  1 42 17.0800000  0  4G 6G13G 9G11
  21552406.219    21552406.052    41066365.499 9 -45507692.206 9
  20984686.830    20984687.287    -6970904.499 9   5253869.038 8
  20075463.851    20075463.441    20500456.030 8 -61626893.006 8
  21835097.907    21835099.688    41216980.675 9 -45512008.553 8
 86  6 12  1 42 23.0800000  0  4G 6G13G 9G11
  21555366.131    21555367.254    41081925.498 9 -45495567.541 8
  20983030.265    20983032.620    -6979603.263 9   5247090.788 9
  20075105.698    20075106.193    20498571.373 8 -61628361.572 7
  21837784.135    21837785.888    41231100.317 9 -45501006.237 8
 86  6 12  1 42 29.0800000  0  4G 6G13G 9G11
  21558331.254    21558332.763    41097504.580 9 -45483427.998 9
  20981378.215    20981380.500    -6988282.663 9   5240327.614 9
  20074751.371    20074751.651    20496710.973 8 -61629811.229 7
  21840473.912    21840475.693    41245229.332 9 -45489996.614 8
 86  6 12  1 42 35.0800000  0  4G 6G13G 9G11
  21561300.009    21561300.461    41113102.657 9 -45471273.662 9
  20979731.178    20979731.879    -6996942.718 9   5233579.519 8
  20074403.077    20074402.890    20494874.862 8 -61631241.974 8
  21843163.642    21843165.827    41259367.630 8 -45478979.768 9
 86  6 12  1 42 41.0800000  0  4G 6G13G 9G11
  21564270.370    21564273.107    41128719.761 9 -45459104.497 8
  20978086.843    20978087.584    -7005583.413 9   5226846.520 7
  20074056.723    20074058.995    20493062.998 8 -61632653.812 8
  21845855.940    21845857.443    41273515.206 9 -45467955.680 8
 86  6 12  1 42 47.0800000  0  4G 6G13G 9G11
  21567247.022    21567247.072    41144355.892 9 -45446920.504 9
  20976446.601    20976448.159    -7014204.726 9   5220128.619 9
  20073717.203    20073717.955    20491275.421 9 -61634046.723 8
  21848549.471    21848551.521    41287671.982 9 -45456924.432 8
 86  6 12  1 42 53.0800000  0  4G 6G13G 9G11
  21570225.368    21570226.914    41160011.101 8 -45434721.656 9
  20974809.006    20974811.064    -7022806.625 9   5213425.838 9
  20073381.569    20073382.061    20489512.063 7 -61635420.783 7
  21851245.115    21851248.092    41301838.037 9 -45445885.950 8
 86  6 12  1 42 59.0800000  0  4G 6G13G 9G11
  21573208.434    21573209.895    41175685.353 9 -45422507.960 8
  20973175.947    20973178.222    -7031389.095 9   5206738.205 8
  20073050.343    20073051.181    20487773.184 8 -61636775.749 7
  21853942.122    21853944.633    41316013.346 8 -45434840.268 8
 86  6 12  1 43  5.0800000  0  4G 6G13G 9G11
  21576194.989    21576195.597    41191378.616 9 -45410279.454 8
  20971547.125    20971547.894    -7039952.143 9   5200065.704 8
  20072724.385    20072725.172    20486058.616 8 -61638111.790 7
  21856641.558    21856644.183    41330197.892 8 -45423787.371 8
 86  6 12  1 43 11.0800000  0  4G 6G13G 9G11
  21579185.434    21579185.513    41207090.814 9 -45398036.190 9
  20969920.903    20969922.652    -7048495.920 9   5193408.217 8
  20072403.441    20072403.410    20484368.278 8 -61639428.922 7
  21859342.642    21859345.555    41344391.612 9 -45412727.342 8
 86  6 12  1 43 17.0800000  0  4G 6G13G 9G11
  21582178.604    21582178.869    41222822.008 9 -45385778.127 9
  20968298.680    20968299.953    -7057020.260 9   5186765.883 9
  20072085.385    20072087.097    20482702.394 9 -61640727.027 9
  21862045.526    21862048.276    41358594.566 9 -45401660.108 9
 86  6 12  1 43 23.0800000  0  4G 6G13G 9G11
  21585175.635    21585176.487    41238572.194 9 -45373505.261 9
  20966681.513    20966681.898    -7065525.127 9   5180138.722 8
  20071773.445    20071772.827    20481060.799 8 -61642006.190 7
  21864750.586    21864751.120    41372806.727 9 -45390585.695 9
 86  6 12  1 43 29.0800000  0  4G 6G13G 9G11
  21588176.787    21588177.622    41254341.355 9 -45361217.614 7
  20965065.872    20965066.700    -7074010.587 9   5173526.676 9
  20071464.902    20071466.936    20479443.670 8 -61643266.281 8
  21867457.050    21867460.238    41387028.043 9 -45379504.155 8
 86  6 12  1 43 35.0800000  0  4G 6G13G 9G11
  21591180.801    21591181.225    41270129.477 9 -45348915.198 8
  20963454.761    20963456.891    -7082476.751 9   5166929.661 7
  20071161.936    20071162.946    20477850.941 9 -61644507.373 7
  21870163.956    21870167.162    41401258.406 9 -45368415.562 8
 86  6 12  1 43 41.0800000  0  4G 6G13G 9G11
  21594188.704    21594189.045    41285936.529 9 -45336598.016 8
  20961847.699    20961848.739    -7090923.514 9   5160347.778 8
  20070863.684    20070864.422    20476282.616 8 -61645729.444 8
  21872874.806    21872875.402    41415497.891 9 -45357319.862 8
 86  6 12  1 43 47.0800000  0  4G 6G13G 9G11
  21597201.162    21597202.201    41301762.510 9 -45324266.092 8
  20960244.411    20960244.727    -7099350.953 9   5153780.938 8
  20070569.378    20070570.110    20474738.684 8 -61646932.513 7
  21875584.439    21875589.103    41429746.432 9 -45346217.108 8
 86  6 12  1 43 53.0800000  0  4G 6G13G 9G11
  21600216.224    21600216.017    41317607.347 9 -45311919.466 7
  20958643.994    20958644.153    -7107759.002 9   5147229.214 9
  20070281.603    20070281.128    20473219.070 7 -61648116.642 8
  21878298.763    21878299.880    41444004.068 9 -45335107.267 8
 86  6 12  1 43 59.0800000  0  4G 6G13G 9G11
  21603234.491    21603234.802    41333471.054 9 -45299558.159 8
  20957047.741    20957048.884    -7116147.709 9   5140692.564 9
  20069996.086    20069996.902    20471723.852 8 -61649281.737 8
  21881013.225    21881016.083    41458270.677 9 -45323990.425 8
 86  6 12  1 44  5.0800000  0  4G 6G13G 9G11
  21606256.510    21606256.972    41349353.639 9 -45287182.121 9
  20955454.781    20955456.086    -7124517.089 9   5134170.972 8
  20069716.722    20069718.112    20470253.166 7 -61650427.736 7
  21883730.410    21883731.876    41472546.338 9 -45312866.536 9
 86  6 12  1 44 11.0800000  0  4G 6G13G 9G11
  21609283.126    21609283.538    41365255.103 9 -45274791.378 8
  20953865.584    20953867.176    -7132867.072 9   5127664.496 9
  20069440.684    20069442.072    20468806.884 8 -61651554.713 8
  21886449.034    21886450.399    41486830.976 9 -45301735.658 8
 86  6 12  1 44 17.0800000  0  4G 6G13G 9G11
  21612312.898    21612313.735    41381175.448 9 -45262385.925 8
  20952280.297    20952281.735    -7141197.663 9   5121173.147 8
  20069170.246    20069171.147    20467385.075 8 -61652662.618 8
  21889168.267    21889171.630    41501124.636 9 -45290597.741 8
 86  6 12  1 44 23.0800000  0  4G 6G13G 9G11
  21615345.847    21615346.637    41397114.608 9 -45249965.796 8
  20950699.171    20950700.209    -7149508.869 9   5114696.874 9
  20068904.160    20068904.858    20465987.654 8 -61653751.516 7
  21891890.068    21891891.499    41515427.244 9 -45279452.860 9
 86  6 12  1 44 29.0800000  0  4G 6G13G 9G11
  21618381.913    21618382.806    41413072.665 9 -45237530.957 7
  20949120.638    20949122.609    -7157800.608 9   5108235.778 9
  20068644.517    20068644.185    20464614.759 8 -61654821.299 7
  21894613.737    21894614.932    41529738.814 9 -45268300.982 8
 86  6 12  1 44 35.0800000  0  4G 6G13G 9G11
  21621423.362    21621423.467    41429049.528 9 -45225081.470 9
  20947546.360    20947548.203    -7166073.027 9   5101789.750 8
  20068387.650    20068386.380    20463266.402 8 -61655871.978 7
  21897338.379    21897340.725    41544059.278 9 -45257142.194 8
 86  6 12  1 44 41.0800000  0  4G 6G13G 9G11
  21624466.839    21624467.590    41445045.188 9 -45212617.319 8
  20945976.242    20945977.288    -7174326.086 9   5095358.791 8
  20068135.110    20068136.284    20461942.548 8 -61656903.546 8
  21900065.516    21900066.732    41558388.645 9 -45245976.443 8
 86  6 12  1 44 47.0800000  0  4G 6G13G 9G11
  21627514.865    21627515.044    41461059.611 9 -45200138.562 8
  20944409.909    20944411.363    -7182559.778 9   5088942.930 8
  20067887.559    20067889.444    20460643.197 8 -61657916.033 8
  21902793.212    21902796.500    41572726.921 9 -45234803.776 9
 86  6 12  1 44 53.0800000  0  4G 6G13G 9G11
  21630565.012    21630565.466    41477092.805 9 -45187645.166 8
  20942846.164    20942848.800    -7190774.141 9   5082542.136 9
  20067644.254    20067646.119    20459368.402 8 -61658909.385 7
  21905524.615    21905526.324    41587074.020 9 -45223624.216 9
 86  6 12  1 44 59.0800000  0  4G 6G13G 9G11
  21633619.196    21633620.391    41493144.759 9 -45175137.160 8
  20941287.189    20941288.517    -7198969.189 9   5076156.377 9
  20067407.233    20067407.528    20458118.032 8 -61659883.692 7
  21908255.561    21908257.523    41601429.963 9 -45212437.770 8
 86  6 12  1 45  5.0800000  0  4G 6G13G 9G11
  21636678.214    21636677.615    41509215.482 9 -45162614.527 9
  20939731.519    20939732.323    -7207144.801 8   5069785.770 8
  20067174.861    20067174.534    20456892.290 9 -61660838.828 8
  21910989.254    21910992.659    41615794.755 9 -45201244.430 8
 86  6 12  1 45 11.0800000  0  4G 6G13G 9G11
  21639739.236    21639740.129    41525304.984 9 -45150077.260 9
  20938179.670    20938180.397    -7215301.115 9   5063430.216 8
  20066946.581    20066945.621    20455691.104 8 -61661774.819 8
  21913724.212    21913727.361    41630168.335 9 -45190044.249 9
 86  6 12  1 45 17.0800000  0  4G 6G13G 9G11
  21642804.608    21642805.479    41541413.215 9 -45137525.398 8
  20936630.807    20936633.173    -7223438.115 9   5057089.697 8
  20066721.508    20066722.696    20454514.530 8 -61662691.619 8
  21916461.144    21916463.241    41644550.629 9 -45178837.265 9
 86  6 12  1 45 23.0800000  0  4G 6G13G 9G11
  21645873.874    21645874.252    41557540.167 9 -45124958.945 8
  20935085.567    20935087.255    -7231555.727 9   5050764.287 8
  20066501.224    20066503.651    20453362.476 7 -61663589.329 8
  21919200.332    21919201.677    41658941.735 8 -45167623.413 9
 86  6 12  1 45 29.0800000  0  4G 6G13G 9G11
  21648946.940    21648948.226    41573685.835 9 -45112377.914 8
  20933544.381    20933546.989    -7239653.917 9   5044454.012 9
  20066288.444    20066288.738    20452235.078 8 -61664467.815 7
  21921939.741    21921942.307    41673341.656 9 -45156402.702 9
 86  6 12  1 45 35.0800000  0  4G 6G13G 9G11
  21652022.274    21652023.111    41589850.207 9 -45099782.314 9
  20932006.794    20932008.988    -7247732.778 9   5038158.799 9
  20066078.448    20066078.210    20451132.292 8 -61665327.124 7
  21924682.600    21924685.245    41687750.291 9 -45145175.190 9
 86  6 12  1 45 41.0800000  0  4G 6G13G 9G11
  21655101.210    21655101.890    41606033.192 9 -45087172.203 9
  20930473.811    20930475.211    -7255792.390 9   5031878.586 9
  20065872.550    20065874.252    20450053.958 7 -61666167.403 8
  21927425.021    21927427.199    41702167.576 9 -45133940.959 8
 86  6 12  1 45 47.0800000  0  4G 6G13G 9G11
  21658184.269    21658185.218    41622234.765 9 -45074547.612 9
  20928943.434    20928945.193    -7263832.735 9   5025613.383 8
  20065673.085    20065671.577    20449000.242 8 -61666988.465 8
  21930170.849    21930173.237    41716593.553 9 -45122699.944 8
 86  6 12  1 45 53.0800000  0  4G 6G13G 9G11
  21661271.332    21661271.937    41638455.026 9 -45061908.448 8
  20927417.824    20927419.375    -7271853.690 9   5019363.283 8
  20065476.486    20065476.737    20447971.204 8 -61667790.320 7
  21932917.589    21932919.503    41731028.175 8 -45111452.190 8
 86  6 12  1 45 59.0800000  0  4G 6G13G 9G11
  21664361.832    21664362.069    41654693.931 9 -45049254.772 8
  20925895.386    20925896.064    -7279855.337 9   5013128.252 9
  20065285.200    20065285.452    20446966.857 7 -61668572.934 7
  21935666.318    21935667.865    41745471.449 9 -45100197.675 8
 86  6 12  1 46  5.0800000  0  4G 6G13G 9G11
  21667455.136    21667456.501    41670951.443 9 -45036586.586 8
  20924376.243    20924378.198    -7287837.694 9   5006908.225 8
  20065098.385    20065100.629    20445987.051 7 -61669336.424 7
  21938417.044    21938418.299    41759923.370 9 -45088936.450 8
 86  6 12  1 46 11.0800000  0  4G 6G13G 9G11
  21670552.388    21670553.376    41687227.577 9 -45023903.885 8
  20922859.834    20922861.546    -7295800.686 9   5000703.305 8
  20064917.366    20064918.192    20445031.864 8 -61670080.732 7
  21941167.554    21941169.435    41774383.905 9 -45077668.509 9
 86  6 12  1 46 17.0800000  0  4G 6G13G 9G11
  21673652.962    21673654.152    41703522.223 9 -45011206.779 9
  20921348.538    20921350.143    -7303744.368 9   4994513.420 8
  20064740.478    20064741.652    20444101.448 8 -61670805.727 8
  21943921.085    21943923.586    41788853.014 9 -45066393.880 8
 86  6 12  1 46 23.0800000  0  4G 6G13G 9G11
  21676757.768    21676759.132    41719835.548 9 -44998495.098 8
  20919840.635    20919842.551    -7311668.628 9   4988338.678 8
  20064568.018    20064569.088    20443195.686 8 -61671511.508 8
  21946675.745    21946678.385    41803330.739 9 -45055112.526 8
 86  6 12  1 46 29.0800000  0  4G 6G13G 9G11
  21679865.355    21679866.272    41736167.405 9 -44985768.978 9
  20918336.739    20918337.882    -7319573.642 9   4982178.927 9
  20064399.762    20064400.429    20442314.602 8 -61672198.087 7
  21949433.090    21949435.465    41817817.000 9 -45043824.544 9
 86  6 12  1 46 35.0800000  0  4G 6G13G 9G11
  21682976.972    21682977.548    41752517.820 9 -44973028.411 8
  20916836.324    20916837.445    -7327459.217 9   4976034.331 8
  20064238.223    20064237.625    20441458.277 8 -61672865.349 8
  21952191.434    21952193.463    41832311.846 9 -45032529.861 8
 86  6 12  1 46 41.0800000  0  4G 6G13G 9G11
  21686091.397    21686093.578    41768886.721 9 -44960273.425 9
  20915338.323    20915340.626    -7335325.526 9   4969904.737 9
  20064080.195    20064080.046    20440626.656 9 -61673513.373 8
  21954952.166    21954953.417    41846815.157 9 -45021228.586 8
 86  6 12  1 46 47.0800000  0  4G 6G13G 9G11
  21689210.340    21689209.864    41785274.185 9 -44947503.979 7
  20913845.400    20913846.672    -7343172.435 9   4963790.274 8
  20063925.547    20063926.526    20439819.756 8 -61674142.123 8
  21957712.812    21957714.019    41861326.977 9 -45009920.671 9
 86  6 12  1 46 53.0800000  0  4G 6G13G 9G11
  21692332.264    21692332.484    41801680.203 9 -44934720.079 9
  20912356.422    20912358.107    -7351000.057 9   4957690.827 9
  20063776.849    20063776.617    20439037.514 8 -61674751.664 8
  21960475.509    21960477.576    41875847.318 9 -44998606.123 9
 86  6 12  1 46 59.0800000  0  4G 6G13G 9G11
  21695457.848    21695458.398    41818104.714 9 -44921921.769 9
  20910870.308    20910872.486    -7358808.330 9   4951606.450 9
  20063632.329    20063633.336    20438280.047 8 -61675341.913 8
  21963240.646    21963242.970    41890376.153 9 -44987284.958 8
 86  6 12  1 47  5.0800000  0  4G 6G13G 9G11
  21698586.353    21698587.161    41834547.681 9 -44909109.077 9
  20909388.499    20909390.136    -7366597.246 9   4945537.174 8
  20063493.690    20063493.329    20437547.313 8 -61675912.867 8
  21966007.232    21966008.438    41904913.346 9 -44975957.277 9
 86  6 12  1 47 11.0800000  0  4G 6G13G 9G11
  21701719.347    21701720.215    41851009.145 9 -44896281.972 9
  20907909.098    20907911.616    -7374366.781 9   4939482.985 8
  20063358.823    20063358.480    20436839.407 8 -61676464.484 7
  21968775.153    21968776.936    41919458.930 9 -44964623.059 8
 86  6 12  1 47 17.0800000  0  4G 6G13G 9G11
  21704854.637    21704856.504    41867489.079 8 -44883440.470 9
  20906434.251    20906436.897    -7382116.985 9   4933443.868 8
  20063228.816    20063228.386    20436156.235 8 -61676996.834 7
  21971544.988    21971546.706    41934012.970 8 -44953282.261 8
 86  6 12  1 47 23.0800000  0  4G 6G13G 9G11
  21707994.584    21707996.278    41883987.428 9 -44870584.622 9
  20904964.165    20904965.413    -7389847.927 9   4927419.769 9
  20063104.128    20063104.904    20435497.790 8 -61677509.902 8
  21974316.145    21974316.702    41948575.379 9 -44941934.928 8
 86  6 12  1 47 29.0800000  0  4G 6G13G 9G11
  21711137.517    21711137.890    41900504.209 9 -44857714.403 9
  20903495.773    20903498.014    -7397559.572 9   4921410.692 9
  20062983.336    20062983.075    20434864.126 8 -61678003.664 8
  21977088.957    21977091.035    41963146.157 9 -44930581.078 8
 86  6 12  1 47 35.0800000  0  4G 6G13G 9G11
  21714283.967    21714284.426    41917039.454 9 -44844829.817 9
  20902032.313    20902034.985    -7405251.949 9   4915416.633 9
  20062866.882    20062867.566    20434255.263 8 -61678478.106 8
  21979861.816    21979864.312    41977725.270 9 -44919220.731 8
 86  6 12  1 47 41.0800000  0  4G 6G13G 9G11
  21717433.875    21717434.551    41933593.060 9 -44831930.918 9
  20900572.664    20900574.258    -7412925.057 9   4909437.585 8
  20062756.049    20062756.612    20433671.141 8 -61678933.264 7
  21982638.462    21982640.664    41992312.648 9 -44907853.948 8
 86  6 12  1 47 47.0800000  0  4G 6G13G 9G11
  21720587.673    21720587.772    41950165.064 9 -44819017.666 8
  20899116.275    20899117.799    -7420578.789 9   4903473.639 7
  20062648.790    20062649.746    20433112.022 8 -61679368.941 8
  21985416.605    21985417.735    42006908.339 9 -44896480.682 9
 86  6 12  1 47 53.0800000  0  4G 6G13G 9G11
  21723744.512    21723745.649    41966755.487 9 -44806090.071 8
  20897663.198    20897664.467    -7428213.283 9   4897524.688 8
  20062547.953    20062548.151    20432577.630 9 -61679785.367 7
  21988194.925    21988197.331    42021512.326 9 -44885100.960 9
 86  6 12  1 47 59.0800000  0  4G 6G13G 9G11
  21726905.411    21726906.559    41983364.242 9 -44793148.191 8
  20896213.837    20896215.686    -7435828.433 9   4891590.803 8
  20062450.931    20062451.575    20432068.104 9 -61680182.405 8
  21990975.456    21990977.937    42036124.564 9 -44873714.802 9
 86  6 12  1 48  5.0800000  0  4G 6G13G 9G11
  21730069.229    21730071.242    41999991.391 9 -44780191.985 7
  20894769.123    20894770.514    -7443424.249 9   4885671.991 8
  20062358.259    20062358.691    20431583.475 9 -61680560.034 7
  21993757.834    21993759.638    42050745.079 8 -44862322.193 9
 86  6 12  1 48 11.0800000  0  4G 6G13G 9G11
  21733236.430    21733237.950    42016636.848 9 -44767221.500 8
  20893326.309    20893328.116    -7451000.806 9   4879768.190 8
  20062271.325    20062270.901    20431123.660 8 -61680918.329 8
  21996541.797    21996544.016    42065373.864 9 -44850923.148 9
 86  6 12  1 48 17.0800000  0  4G 6G13G 9G11
  21736407.801    21736409.096    42033300.651 9 -44754236.729 8
  20891888.925    20891889.869    -7458558.015 9   4873879.454 8
  20062188.229    20062189.402    20430688.709 8 -61681257.253 8
  21999327.177    21999329.253    42080010.790 9 -44839517.751 9
 86  6 12  1 48 23.0800000  0  4G 6G13G 9G11
  21739582.324    21739584.149    42049982.740 9 -44741237.704 8
  20890454.314    20890455.490    -7466095.934 9   4868005.755 8
  20062110.152    20062110.942    20430278.655 8 -61681576.780 7
  22002113.822    22002115.768    42094655.901 9 -44828105.983 9
 86  6 12  1 48 29.0800000  0  4G 6G13G 9G11
  21742760.654    21742761.474    42066683.110 9 -44728224.443 9
  20889023.957    20889024.694    -7473614.504 9   4862147.122 8
  20062035.839    20062037.072    20429893.420 8 -61681876.966 8
  22004901.882    22004905.056    42109309.226 9 -44816687.808 8
 86  6 12  1 48 35.0800000  0  4G 6G13G 9G11
  21745941.098    21745943.093    42083401.811 9 -44715196.891 8
  20887596.617    20887598.297    -7481113.700 9   4856303.601 9
  20061968.620    20061969.819    20429533.140 8 -61682157.708 8
  22007693.132    22007694.394    42123970.729 9 -44805263.269 8
 86  6 12  1 48 41.0800000  0  4G 6G13G 9G11
  21749126.837    21749127.643    42100138.791 9 -44702155.107 9
  20886173.033    20886174.721    -7488593.629 9   4850475.087 9
  20061904.329    20061904.202    20429197.798 8 -61682419.016 8
  22010483.521    22010485.526    42138640.312 9 -44793832.436 8
 86  6 12  1 48 47.0800000  0  4G 6G13G 9G11
  21752315.355    21752316.420    42116893.978 9 -44689099.115 9
  20884753.163    20884754.625    -7496054.342 9   4844661.549 8
  20061845.392    20061846.073    20428887.232 8 -61682661.016 8
  22013276.888    22013279.883    42153318.002 9 -44782395.267 9
 86  6 12  1 48 53.0800000  0  4G 6G13G 9G11
  21755507.336    21755508.673    42133667.419 9 -44676028.907 9
  20883336.971    20883339.292    -7503495.782 9   4838863.019 8
  20061790.920    20061792.339    20428601.684 8 -61682883.514 8
  22016072.423    22016073.726    42168003.864 9 -44770951.742 8
 86  6 12  1 48 59.0800000  0  4G 6G13G 9G11
  21758702.461    21758703.329    42150459.130 9 -44662944.466 9
  20881925.359    20881926.235    -7510917.893 9   4833079.568 9
  20061741.021    20061741.805    20428341.072 7 -61683086.589 7
  22018867.399    22018870.878    42182697.872 9 -44759501.873 8
 86  6 12  1 49  5.0800000  0  4G 6G13G 9G11
  21761900.794    21761901.720    42167268.976 9 -44649845.892 9
  20880515.752    20880517.605    -7518320.810 9   4827311.061 8
  20061695.873    20061697.224    20428105.363 8 -61683270.264 7
  22021666.053    22021667.832    42197399.857 9 -44748045.789 8
 86  6 12  1 49 11.0800000  0  4G 6G13G 9G11
  21765103.993    21765103.801    42184097.038 9 -44636733.119 8
  20879111.123    20879112.536    -7525704.397 9   4821557.622 8
  20061655.976    20061657.112    20427894.637 9 -61683434.464 8
  22024465.488    22024466.116    42212109.911 9 -44736583.412 8
 86  6 12  1 49 17.0800000  0  4G 6G13G 9G11
  21768308.736    21768311.372    42200943.471 9 -44623606.053 9
  20877709.985    20877711.080    -7533068.788 9   4815819.146 9
  20061620.085    20061623.268    20427708.878 8 -61683579.212 8
  22027265.648    22027266.988    42226827.901 9 -44725114.847 8
 86  6 12  1 49 23.0800000  0  4G 6G13G 9G11
  21771518.632    21771520.111    42217808.005 9 -44610464.856 8
  20876312.248    20876313.401    -7540413.925 9   4810095.651 9
  20061590.162    20061590.254    20427548.057 7 -61683704.533 7
  22030068.559    22030069.602    42241553.944 9 -44713640.013 9
 86  6 12  1 49 29.0800000  0  4G 6G13G 9G11
  21774730.931    21774732.811    42234690.577 9 -44597309.622 8
  20874917.979    20874919.247    -7547739.771 9   4804387.200 8
  20061564.402    20061564.892    20427412.168 9 -61683810.414 8
  22032871.363    22032874.655    42256287.932 9 -44702158.988 9
 86  6 12  1 49 35.0800000  0  4G 6G13G 9G11
  21777947.005    21777948.142    42251591.325 9 -44584140.219 9
  20873527.257    20873528.488    -7555046.320 9   4798693.790 8
  20061542.129    20061544.493    20427301.339 8 -61683896.789 8
  22035676.732    22035678.957    42271029.929 9 -44690671.726 9
 86  6 12  1 49 41.0800000  0  4G 6G13G 9G11
  21781167.089    21781167.580    42268510.205 9 -44570956.685 9
  20872140.716    20872141.894    -7562333.686 9   4793015.320 9
  20061526.778    20061528.175    20427215.442 8 -61683963.715 7
  22038483.131    22038485.340    42285779.831 8 -44679178.289 8
 86  6 12  1 49 47.0800000  0  4G 6G13G 9G11
  21784390.034    21784391.187    42285447.210 9 -44557759.024 8
  20870757.746    20870759.516    -7569601.685 9   4787351.954 8
  20061515.025    20061516.167    20427154.659 7 -61684011.086 8
  22041291.677    22041295.194    42300537.718 9 -44667678.645 8
 86  6 12  1 49 53.0800000  0  4G 6G13G 9G11
  21787616.585    21787617.906    42302402.230 9 -44544547.326 8
  20869378.493    20869379.586    -7576850.433 9   4781703.583 9
  20061508.191    20061509.459    20427118.772 8 -61684039.042 8
  22044101.911    22044102.445    42315303.476 9 -44656172.867 9
 86  6 12  1 49 59.0800000  0  4G 6G13G 9G11
  21790846.340    21790846.737    42319375.393 9 -44531321.490 8
  20868002.920    20868003.443    -7584079.923 9   4776070.217 9
  20061506.513    20061506.453    20427107.904 8 -61684047.522 8
  22046912.916    22046915.378    42330077.116 9 -44644660.943 8
 86  6 12  1 50  5.0800000  0  4G 6G13G 9G11
  21794079.127    21794081.425    42336366.506 9 -44518081.675 9
  20866630.918    20866631.890    -7591290.218 9   4770451.805 9
  20061509.173    20061508.806    20427122.003 8 -61684036.526 7
  22049726.660    22049729.231    42344858.612 9 -44633142.900 8
 86  6 12  1 50 11.0800000  0  4G 6G13G 9G11
  21797316.039    21797317.262    42353375.835 9 -44504827.664 8
  20865261.757    20865263.497    -7598481.201 9   4764848.436 8
  20061516.147    20061516.476    20427161.191 8 -61684005.996 8
  22052540.747    22052542.144    42359648.009 9 -44621618.697 9
 86  6 12  1 50 17.0800000  0  4G 6G13G 9G11
  21800556.499    21800557.752    42370403.167 9 -44491559.624 8
  20863897.327    20863897.942    -7605653.015 9   4759260.021 7
  20061527.554    20061528.850    20427225.337 7 -61683956.018 8
  22055356.419    22055358.613    42374445.202 9 -44610088.422 9
 86  6 12  1 50 23.0800000  0  4G 6G13G 9G11
  21803800.708    21803801.485    42387448.452 9 -44478277.584 9
  20862536.144    20862537.515    -7612805.537 9   4753686.629 8
  20061546.296    20061546.565    20427314.535 7 -61683886.518 7
  22058173.506    22058175.177    42389250.170 9 -44598552.081 8
 86  6 12  1 50 29.0800000  0  4G 6G13G 9G11
  21807047.606    21807048.511    42404511.759 9 -44464981.525 8
  20861179.099    20861180.010    -7619938.808 9   4748128.225 8
  20061567.343    20061567.273    20427428.831 8 -61683797.452 7
  22060991.829    22060994.969    42404062.980 9 -44587009.648 9
 86  6 12  1 50 35.0800000  0  4G 6G13G 9G11
  21810298.138    21810299.088    42421593.083 9 -44451671.401 8
  20859824.848    20859827.193    -7627052.813 9   4742584.854 8
  20061593.357    20061594.026    20427568.217 8 -61683688.842 7
  22063812.701    22063814.159    42418883.565 9 -44575461.135 9
 86  6 12  1 50 41.0800000  0  4G 6G13G 9G11
  21813551.132    21813552.257    42438692.370 9 -44438347.288 8
  20858474.900    20858475.928    -7634147.604 9   4737056.447 8
  20061624.173    20061625.192    20427732.641 8 -61683560.726 8
  22066634.435    22066636.136    42433711.901 9 -44563906.589 8
 86  6 12  1 50 47.0800000  0  4G 6G13G 9G11
  21816808.763    21816809.743    42455809.627 9 -44425009.177 9
  20857128.281    20857129.212    -7641223.169 9   4731543.027 8
  20061662.146    20061661.938    20427922.115 8 -61683413.080 8
  22069458.372    22069459.164    42448547.972 9 -44552346.013 9
 86  6 12  1 50 53.0800000  0  4G 6G13G 9G11
  21820069.913    21820070.990    42472944.941 9 -44411656.993 9
  20855785.631    20855786.313    -7648279.404 9   4726044.663 8
  20061701.846    20061703.577    20428136.804 8 -61683245.789 7
  22072282.934    22072283.717    42463391.851 9 -44540779.367 9
 86  6 12  1 50 59.0800000  0  4G 6G13G 9G11
  21823333.499    21823335.476    42490098.215 9 -44398290.828 9
  20854447.493    20854447.923    -7655316.407 9   4720561.283 8
  20061747.307    20061748.857    20428376.576 8 -61683058.960 7
  22075108.396    22075109.941    42478243.415 9 -44529206.722 8
 86  6 12  1 51  5.0800000  0  4G 6G13G 9G11
  21826601.314    21826602.694    42507269.311 9 -44384910.751 8
  20853111.730    20853112.973    -7662334.222 9   4715092.863 8
  20061798.167    20061798.751    20428641.397 8 -61682852.607 8
  22077936.209    22077937.450    42493102.636 9 -44517628.110 9
 86  6 12  1 51 11.0800000  0  4G 6G13G 9G11
  21829872.683    21829873.816    42524458.283 9 -44371516.760 8
  20851779.630    20851780.549    -7669332.913 9   4709639.339 8
  20061853.905    20061853.171    20428931.321 9 -61682626.703 8
  22080765.465    22080766.155    42507969.450 9 -44506043.593 8
 86  6 12  1 51 17.0800000  0  4G 6G13G 9G11
  21833146.652    21833148.449    42541665.207 9 -44358108.772 8
  20850451.013    20850453.220    -7676312.384 9   4704200.793 8
  20061912.578    20061913.190    20429246.449 8 -61682381.144 7
  22083596.018    22083597.365    42522843.962 8 -44494453.064 8
 86  6 12  1 51 23.0800000  0  4G 6G13G 9G11
  21836424.545    21836425.783    42558889.981 9 -44344686.886 9
  20849126.423    20849127.997    -7683272.642 9   4698777.216 8
  20061978.120    20061979.327    20429586.679 8 -61682116.044 7
  22086427.440    22086429.173    42537725.987 9 -44482856.681 9
 86  6 12  1 51 29.0800000  0  4G 6G13G 9G11
  21839705.038    21839707.221    42576132.623 9 -44331251.073 9
  20847806.027    20847808.219    -7690213.590 9   4693368.683 8
  20062047.957    20062049.603    20429951.995 7 -61681831.360 8
  22089261.061    22089262.775    42552615.668 9 -44471254.348 8
 86  6 12  1 51 35.0800000  0  4G 6G13G 9G11
  21842990.631    21842991.257    42593393.064 9 -44317801.387 8
  20846487.492    20846489.422    -7697135.335 9   4687975.124 9
  20062121.481    20062121.967    20430342.503 8 -61681527.069 7
  22092095.749    22092097.496    42567512.894 9 -44459646.119 9
 86  6 12  1 51 41.0800000  0  4G 6G13G 9G11
  21846278.196    21846279.392    42610671.434 9 -44304337.734 9
  20845175.053    20845176.966    -7704037.818 9   4682596.566 9
  20062201.378    20062201.292    20430758.160 8 -61681203.188 7
  22094932.551    22094934.118    42582417.688 9 -44448031.991 8
 86  6 12  1 51 47.0800000  0  4G 6G13G 9G11
  21849569.938    21849571.474    42627967.548 9 -44290860.254 8
  20843864.647    20843865.513    -7710921.091 9   4677232.985 9
  20062284.920    20062286.346    20431198.916 9 -61680859.752 7
  22097769.700    22097772.531    42597329.994 9 -44436412.019 9
 86  6 12  1 51 53.0800000  0  4G 6G13G 9G11
  21852864.087    21852865.180    42645281.457 9 -44277368.903 9
  20842558.600    20842560.546    -7717785.179 9   4671884.335 9
  20062373.251    20062373.505    20431664.829 8 -61680496.703 6
  22100609.158    22100610.483    42612249.851 9 -44424786.160 8
 86  6 12  1 51 59.0800000  0  4G 6G13G 9G11
  21856162.013    21856164.119    42662613.178 9 -44263863.671 9
  20841256.674    20841257.797    -7724630.116 9   4666550.628 9
  20062466.593    20062466.361    20432155.928 8 -61680114.012 8
  22103448.989    22103451.194    42627177.238 9 -44413154.437 9
 86  6 12  1 52  5.0800000  0  4G 6G13G 9G11
  21859464.058    21859464.836    42679962.684 9 -44250344.588 9
  20839957.896    20839958.588    -7731455.853 9   4661231.868 8
  20062565.212    20062565.741    20432672.209 8 -61679711.722 7
  22106291.573    22106293.668    42642112.086 9 -44401516.896 8
 86  6 12  1 52 11.0800000  0  4G 6G13G 9G11
  21862768.136    21862769.929    42697329.946 9 -44236811.662 9
  20838661.598    20838663.875    -7738262.352 9   4655928.120 9
  20062667.832    20062668.882    20433213.689 8 -61679289.799 7
  22109134.851    22109136.574    42657054.365 9 -44389873.564 9
 86  6 12  1 52 17.0800000  0  4G 6G13G 9G11
  21866076.991    21866078.299    42714714.900 9 -44223264.955 8
  20837370.681    20837371.993    -7745049.692 9   4650639.278 8
  20062776.078    20062775.977    20433780.380 8 -61678848.215 8
  22111979.484    22111982.221    42672004.100 9 -44378224.424 8
 86  6 12  1 52 23.0800000  0  4G 6G13G 9G11
  21869388.541    21869389.344    42732117.607 9 -44209704.423 9
  20836083.158    20836085.101    -7751817.942 9   4645365.315 9
  20062889.224    20062889.232    20434372.256 8 -61678387.016 7
  22114825.705    22114828.169    42686961.221 9 -44366569.528 8
 86  6 12  1 52 29.0800000  0  4G 6G13G 9G11
  21872703.118    21872705.043    42749538.051 9 -44196130.053 8
  20834798.976    20834799.821    -7758566.982 9   4640106.334 7
  20063006.126    20063007.197    20434989.317 8 -61677906.193 7
  22117673.710    22117675.655    42701925.836 9 -44354908.796 9
 86  6 12  1 52 35.0800000  0  4G 6G13G 9G11
  21876021.363    21876023.159    42766976.203 9 -44182541.890 8
  20833517.884    20833521.289    -7765296.848 9   4634862.274 8
  20063128.934    20063128.917    20435631.721 8 -61677405.625 8
  22120522.072    22120524.296    42716897.877 9 -44343242.271 8
 86  6 12  1 52 41.0800000  0  4G 6G13G 9G11
  21879342.583    21879345.550    42784432.056 9 -44168939.940 9
  20832240.369    20832242.298    -7772007.567 9   4629633.148 8
  20063256.245    20063257.517    20436299.288 8 -61676885.438 7
  22123372.947    22123375.288    42731877.314 9 -44331569.985 8
 86  6 12  1 52 47.0800000  0  4G 6G13G 9G11
  21882669.126    21882670.060    42801905.547 9 -44155324.243 8
  20830967.864    20830968.661    -7778699.137 9   4624418.948 8
  20063387.739    20063388.016    20436992.034 7 -61676345.644 6
  22126225.006    22126227.092    42746864.055 9 -44319892.007 9
 86  6 12  1 52 53.0800000  0  4G 6G13G 9G11
  21885997.849    21885999.112    42819396.678 9 -44141694.794 9
  20829697.883    20829699.174    -7785371.577 9   4619219.642 9
  20063524.357    20063524.612    20437710.060 8 -61675786.143 8
  22129078.675    22129079.925    42761858.189 9 -44308208.269 8
 86  6 12  1 52 59.0800000  0  4G 6G13G 9G11
  21889329.225    21889330.104    42836905.503 9 -44128051.572 9
  20828430.548    20828432.516    -7792024.861 9   4614035.266 8
  20063665.609    20063665.569    20438453.332 8 -61675206.972 7
  22131933.114    22131935.029    42776859.671 9 -44296518.812 8
 86  6 12  1 53  5.0800000  0  4G 6G13G 9G11
  21892664.041    21892665.762    42854431.931 8 -44114394.624 9
  20827168.634    20827170.878    -7798658.991 8   4608865.814 8
  20063811.860    20063811.803    20439221.891 9 -61674608.088 8
  22134789.180    22134790.545    42791868.460 9 -44284823.656 9
 86  6 12  1 53 11.0800000  0  4G 6G13G 9G11
  21896003.173    21896004.553    42871975.958 9 -44100723.969 9
  20825910.030    20825911.731    -7805273.917 9   4603711.325 8
  20063963.177    20063963.234    20440015.709 8 -61673989.536 7
  22137646.595    22137648.628    42806884.514 9 -44273122.839 8
 86  6 12  1 53 17.0800000  0  4G 6G13G 9G11
  21899344.025    21899345.807    42889537.583 9 -44087039.595 9
  20824655.356    20824655.695    -7811869.660 9   4598571.797 9
  20064120.109    20064118.541    20440834.816 7 -61673351.281 7
  22140506.069    22140507.783    42821907.845 9 -44261416.349 9
 86  6 12  1 53 23.0800000  0  4G 6G13G 9G11
  21902689.172    21902691.525    42907116.758 9 -44073341.550 9
  20823403.636    20823405.892    -7818446.309 9   4593447.138 8
  20064279.551    20064279.205    20441679.168 7 -61672693.341 7
  22143365.977    22143367.510    42836938.369 9 -44249704.261 8
 86  6 12  1 53 29.0800000  0  4G 6G13G 9G11
  21906037.719    21906040.034    42924713.566 9 -44059629.755 9
  20822155.989    20822157.223    -7825003.745 9   4588337.454 8
  20064445.417    20064444.590    20442548.800 9 -61672015.712 7
  22146227.001    22146229.298    42851976.147 9 -44237986.512 9
 86  6 12  1 53 35.0800000  0  4G 6G13G 9G11
  21909389.967    21909391.033    42942327.908 9 -44045904.306 9
  20820911.761    20820913.926    -7831542.054 9   4583242.664 8
  20064616.012    20064615.848    20443443.795 8 -61671318.316 8
  22149091.194    22149092.039    42867021.142 9 -44226263.140 9
 86  6 12  1 53 41.0800000  0  4G 6G13G 9G11
  21912745.355    21912747.126    42959959.774 9 -44032165.201 8
  20819671.197    20819672.366    -7838061.254 9   4578162.765 8
  20064791.408    20064789.688    20444363.997 8 -61670601.261 7
  22151954.783    22151956.943    42882073.350 9 -44214534.152 9
 86  6 12  1 53 47.0800000  0  4G 6G13G 9G11
  21916104.836    21916105.305    42977609.123 9 -44018412.469 9
  20818434.044    20818436.056    -7844561.354 9   4573097.761 8
  20064970.622    20064970.470    20445309.609 8 -61669864.430 8
  22154820.332    22154822.476    42897132.716 9 -44202799.593 8
 86  6 12  1 53 53.0800000  0  4G 6G13G 9G11
  21919465.524    21919467.661    42995275.994 9 -44004646.089 8
  20817200.992    20817202.559    -7851042.331 9   4568047.660 9
  20065155.915    20065155.305    20446280.487 8 -61669107.908 8
  22157687.753    22157689.575    42912199.219 9 -44191059.455 8
 86  6 12  1 53 59.0800000  0  4G 6G13G 9G11
  21922831.844    21922832.001    43012960.402 9 -43990866.042 9
  20815971.327    20815972.331    -7857504.130 9   4563012.485 9
  20065344.733    20065345.148    20447276.679 8 -61668331.649 8
  22160556.463    22160557.741    42927272.872 9 -44179313.764 8
 86  6 12  1 54  5.0800000  0  4G 6G13G 9G11
  21926199.887    21926200.482    43030662.308 9 -43977072.362 7
  20814745.146    20814747.325    -7863946.836 9   4557992.197 7
  20065539.001    20065538.614    20448298.291 8 -61667535.595 7
  22163426.036    22163428.343    42942353.622 9 -44167562.533 7
 86  6 12  1 54 11.0800000  0  4G 6G13G 9G11
  21929571.531    21929572.857    43048381.617 9 -43963265.113 8
  20813523.359    20813523.959    -7870370.418 9   4552986.812 7
  20065738.528    20065739.349    20449345.298 8 -61666719.739 7
  22166296.954    22166298.312    42957441.475 9 -44155805.765 8
 86  6 12  1 54 17.0800000  0  4G 6G13G 9G11
  21932946.383    21932947.923    43066118.420 9 -43949444.246 8
  20812304.504    20812305.471    -7876774.892 9   4547996.318 8
  20065942.697    20065943.547    20450417.541 8 -61665884.235 8
  22169169.098    22169170.263    42972536.388 9 -44144043.503 8
 86  6 12  1 54 23.0800000  0  4G 6G13G 9G11
  21936324.786    21936327.464    43083872.703 9 -43935609.741 8
  20811088.730    20811091.384    -7883160.254 9   4543020.714 7
  20066151.984    20066151.997    20451515.197 8 -61665028.917 8
  22172042.576    22172044.476    42987638.362 9 -44132275.734 9
 86  6 12  1 54 29.0800000  0  4G 6G13G 9G11
  21939706.672    21939708.672    43101644.191 9 -43921761.850 8
  20809877.257    20809878.332    -7889526.451 8   4538060.037 8
  20066364.970    20066365.674    20452638.123 8 -61664153.914 8
  22174917.836    22174920.148    43002747.390 9 -44120502.468 9
 86  6 12  1 54 35.0800000  0  4G 6G13G 9G11
  21943091.655    21943094.325    43119433.167 9 -43907900.309 8
  20808669.512    20808670.334    -7895873.581 9   4533114.224 9
  20066584.287    20066584.067    20453786.410 9 -61663259.149 8
  22177794.952    22177796.635    43017863.450 9 -44108723.723 8
 86  6 12  1 54 41.0800000  0  4G 6G13G 9G11
  21946480.156    21946480.895    43137239.480 9 -43894025.279 7
  20807465.041    20807466.145    -7902201.711 8   4528183.225 8
  20066806.998    20066806.655    20454960.042 9 -61662344.629 8
  22180672.856    22180674.885    43032986.528 9 -44096939.522 8
 86  6 12  1 54 47.0800000  0  4G 6G13G 9G11
  21949871.324    21949873.921    43155063.097 8 -43880136.758 8
  20806265.473    20806265.902    -7908510.741 9   4523267.093 8
  20067034.415    20067036.718    20456159.086 7 -61661410.326 8
  22183551.108    22183553.390    43048116.596 9 -44085149.856 9
 86  6 12  1 54 53.0800000  0  4G 6G13G 9G11
  21953267.867    21953268.972    43172904.136 9 -43866234.653 9
  20805067.632    20805069.687    -7914800.736 9   4518365.799 8
  20067268.407    20067269.014    20457383.424 8 -61660456.288 7
  22186432.399    22186433.976    43063253.615 9 -44073354.774 9
 86  6 12  1 54 59.0800000  0  4G 6G13G 9G11
  21956665.667    21956667.538    43190762.496 9 -43852319.065 9
  20803873.817    20803876.186    -7921071.589 9   4513479.414 8
  20067506.775    20067505.842    20458633.218 8 -61659482.422 7
  22189313.714    22189315.666    43078397.592 9 -44061554.287 8
 86  6 12  1 55  5.0800000  0  4G 6G13G 9G11
  21960067.161    21960069.877    43208638.181 9 -43838389.966 8
  20802684.488    20802686.654    -7927323.320 9   4508607.952 8
  20067747.948    20067748.486    20459908.513 9 -61658488.688 8
  22192196.313    22192199.057    43093548.546 9 -44049748.359 8
 86  6 12  1 55 11.0800000  0  4G 6G13G 9G11
  21963472.150    21963474.045    43226531.156 9 -43824447.405 8
  20801498.463    20801500.071    -7933555.999 9   4503751.314 8
  20067996.939    20067997.157    20461209.062 8 -61657475.263 7
  22195081.021    22195084.131    43108706.406 9 -44037937.023 8
 86  6 12  1 55 17.0800000  0  4G 6G13G 9G11
  21966879.939    21966882.106    43244441.470 9 -43810491.321 7
  20800316.513    20800318.993    -7939769.627 9   4498909.530 9
  20068247.711    20068248.146    20462535.052 8 -61656442.042 8
  22197967.229    22197968.686    43123871.162 9 -44026120.351 8
 86  6 12  1 55 23.0800000  0  4G 6G13G 9G11
  21970292.398    21970294.178    43262369.029 9 -43796521.803 9
  20799138.050    20799139.429    -7945964.169 9   4494082.619 9
  20068504.653    20068506.038    20463886.503 8 -61655388.954 7
  22200854.967    22200856.726    43139042.831 9 -44014298.275 8
 86  6 12  1 55 29.0800000  0  4G 6G13G 9G11
  21973706.166    21973709.265    43280313.820 9 -43782538.857 8
  20797962.074    20797964.741    -7952139.625 8   4489270.582 9
  20068767.831    20068768.153    20465263.371 9 -61654316.085 7
  22203742.510    22203745.167    43154221.303 9 -44002470.899 8
 86  6 12  1 55 35.0800000  0  4G 6G13G 9G11
  21977125.550    21977126.231    43298275.869 9 -43768542.460 9
  20796790.855    20796793.028    -7958295.944 8   4484473.447 8
  20069034.431    20069035.781    20466665.622 8 -61653223.404 8
  22206632.837    22206634.606    43169406.603 8 -43990638.194 8
 86  6 12  1 55 41.0800000  0  4G 6G13G 9G11
  21980545.618    21980549.042    43316255.108 9 -43754532.683 8
  20795622.474    20795624.805    -7964433.218 9   4479691.170 8
  20069305.976    20069306.775    20468093.329 7 -61652110.918 7
  22209522.950    22209525.731    43184598.712 9 -43978800.189 9
 86  6 12  1 55 47.0800000  0  4G 6G13G 9G11
  21983970.724    21983972.389    43334251.579 9 -43740509.469 8
  20794459.507    20794461.537    -7970551.489 8   4474923.685 8
  20069582.627    20069583.623    20469546.437 8 -61650978.622 8
  22212415.793    22212416.734    43199797.633 9 -43966956.883 8
 86  6 12  1 55 53.0800000  0  4G 6G13G 9G11
  21987398.605    21987399.900    43352265.227 9 -43726472.873 8
  20793297.794    20793300.146    -7976650.715 9   4470171.044 8
  20069864.553    20069863.305    20471025.042 8 -61649826.470 8
  22215309.265    22215310.390    43215003.339 9 -43955108.279 9
 86  6 12  1 55 59.0800000  0  4G 6G13G 9G11
  21990829.948    21990831.184    43370296.073 9 -43712422.869 8
  20792141.992    20792143.059    -7982730.880 9   4465433.267 9
  20070149.134    20070151.160    20472529.051 8 -61648654.527 7
  22218203.949    22218205.956    43230215.880 9 -43943254.359 7
 86  6 12  1 56  5.0800000  0  4G 6G13G 9G11
  21994264.094    21994265.919    43388344.063 9 -43698359.508 8
  20790988.258    20790990.843    -7988791.887 9   4460710.396 8
  20070441.834    20070441.923    20474058.563 8 -61647462.688 8
  22221100.366    22221102.240    43245435.218 9 -43931395.141 9
 86  6 12  1 56 11.0800000  0  4G 6G13G 9G11
  21997701.678    21997704.002    43406409.277 9 -43684282.737 9
  20789837.952    20789841.152    -7994833.971 9   4456002.283 8
  20070736.546    20070736.778    20475613.550 8 -61646251.016 7
  22223996.997    22223999.195    43260661.308 9 -43919530.666 8
 86  6 12  1 56 17.0800000  0  4G 6G13G 9G11
  22001142.353    22001144.560    43424491.619 9 -43670192.606 9
  20788692.200    20788694.630    -8000856.929 9   4451309.075 8
  20071036.304    20071038.651    20477194.074 7 -61645019.437 8
  22226896.300    22226898.810    43275894.125 9 -43907660.934 9
 86  6 12  1 56 23.0800000  0  4G 6G13G 9G11
  22004586.718    22004588.058    43442591.025 9 -43656089.185 8
  20787548.724    20787551.321    -8006860.937 9   4446630.636 8
  20071343.397    20071344.112    20478800.024 9 -61643768.051 7
  22229796.586    22229798.781    43291133.586 9 -43895786.029 8
 86  6 12  1 56 29.0800000  0  4G 6G13G 9G11
  22008034.543    22008036.685    43460707.502 9 -43641972.463 9
  20786409.837    20786412.771    -8012845.855 9   4441967.051 8
  20071652.707    20071653.906    20480431.384 8 -61642496.869 8
  22232697.847    22232699.687    43306379.774 9 -43883905.889 8
 86  6 12  1 56 35.0800000  0  4G 6G13G 9G11
  22011485.120    22011487.415    43478841.090 9 -43627842.411 8
  20785275.432    20785277.687    -8018811.767 8   4437318.303 8
  20071968.680    20071970.437    20482088.318 8 -61641205.745 8
  22235600.378    22235601.942    43321632.559 9 -43872020.604 8
 86  6 12  1 56 41.0800000  0  4G 6G13G 9G11
  22014939.357    22014940.794    43496991.707 9 -43613699.072 9
  20784143.882    20784146.293    -8024758.663 9   4432684.359 8
  20072289.235    20072290.785    20483770.756 8 -61639894.768 7
  22238503.877    22238507.150    43336892.005 9 -43860130.129 8
 86  6 12  1 56 47.0800000  0  4G 6G13G 9G11
  22018395.887    22018399.000    43515159.365 8 -43599542.469 9
  20783015.181    20783018.075    -8030686.624 9   4428065.175 8
  20072613.695    20072615.180    20485478.648 9 -61638563.938 7
  22241408.315    22241411.776    43352157.978 9 -43848234.574 8
 86  6 12  1 56 53.0800000  0  4G 6G13G 9G11
  22021857.192    22021859.418    43533344.041 9 -43585372.594 8
  20781890.271    20781892.456    -8036595.567 8   4423460.806 9
  20072943.224    20072945.717    20487212.058 8 -61637213.232 8
  22244315.764    22244318.043    43367430.568 9 -43836333.861 9
 86  6 12  1 56 59.0800000  0  4G 6G13G 9G11
  22025320.736    22025321.700    43551545.786 9 -43571189.436 9
  20780771.158    20780772.659    -8042485.461 9   4418871.282 8
  20073278.638    20073277.484    20488970.976 7 -61635842.654 6
  22247222.658    22247225.492    43382709.768 9 -43824427.993 9
 86  6 12  1 57  5.0800000  0  4G 6G13G 9G11
  22028787.477    22028789.689    43569764.491 9 -43556993.061 8
  20779652.982    20779655.437    -8048356.412 8   4414296.524 9
  20073616.701    20073619.274    20490755.329 8 -61634452.241 8
  22250131.805    22250134.459    43397995.522 9 -43812517.014 9
 86  6 12  1 57 11.0800000  0  4G 6G13G 9G11
  22032257.855    22032259.194    43588000.152 9 -43542783.450 8
  20778538.485    20778541.316    -8054208.393 8   4409736.531 8
  20073962.466    20073964.079    20492565.251 8 -61633041.915 7
  22253041.150    22253044.465    43413287.835 8 -43800600.933 8
 86  6 12  1 57 17.0800000  0  4G 6G13G 9G11
  22035730.471    22035732.521    43606252.783 9 -43528560.636 8
  20777429.638    20777431.158    -8060041.496 8   4405191.267 8
  20074311.547    20074313.012    20494400.694 8 -61631611.705 7
  22255952.884    22255955.092    43428586.651 9 -43788679.784 9
 86  6 12  1 57 23.0800000  0  4G 6G13G 9G11
  22039207.201    22039209.853    43624522.371 9 -43514324.604 8
  20776323.004    20776325.087    -8065855.569 9   4400660.819 8
  20074665.021    20074667.125    20496261.605 8 -61630161.656 9
  22258865.826    22258867.180    43443892.009 9 -43776753.538 8
 86  6 12  1 57 29.0800000  0  4G 6G13G 9G11
  22042687.083    22042689.535    43642808.876 9 -43500075.384 8
  20775220.224    20775222.262    -8071650.654 8   4396145.167 8
  20075025.327    20075026.772    20498148.077 8 -61628691.675 8
  22261779.677    22261781.025    43459203.820 9 -43764822.261 8
 86  6 12  1 57 35.0800000  0  4G 6G13G 9G11
  22046170.023    22046172.222    43661112.328 9 -43485812.966 8
  20774120.371    20774123.663    -8077426.799 9   4391644.286 9
  20075388.345    20075390.735    20500060.056 8 -61627201.819 7
  22264694.197    22264696.615    43474522.126 9 -43752885.921 9
 86  6 12  1 57 41.0800000  0  4G 6G13G 9G11
  22049657.320    22049658.527    43679432.612 9 -43471537.436 8
  20773025.088    20773027.447    -8083184.039 8   4387158.123 9
  20075758.064    20075757.726    20501997.685 9 -61625691.987 7
  22267609.648    22267612.313    43489846.858 9 -43740944.573 7
 86  6 12  1 57 47.0800000  0  4G 6G13G 9G11
  22053146.239    22053148.177    43697769.870 9 -43457248.674 9
  20771932.849    20771936.025    -8088922.266 8   4382686.782 8
  20076131.021    20076131.322    20503960.803 7 -61624162.283 7
  22270527.899    22270529.843    43505178.036 9 -43728998.208 8
 86  6 12  1 57 53.0800000  0  4G 6G13G 9G11
  22056638.942    22056641.753    43716123.945 9 -43442946.816 8
  20770845.219    20770847.606    -8094641.540 9   4378230.213 8
  20076509.983    20076510.200    20505949.484 8 -61622612.674 6
  22273446.461    22273448.270    43520515.628 9 -43717046.836 8
 86  6 12  1 57 59.0800000  0  4G 6G13G 9G11
  22060134.393    22060137.176    43734494.875 9 -43428631.814 7
  20769759.244    20769762.859    -8100341.856 9   4373788.406 9
  20076893.289    20076893.057    20507963.700 8 -61621043.139 7
  22276366.543    22276367.943    43535859.710 9 -43705090.419 9
 86  6 12  1 58  5.0800000  0  4G 6G13G 9G11
  22063634.075    22063635.400    43752882.666 9 -43414303.672 9
  20768678.915    20768682.163    -8106023.274 8   4369361.326 9
  20077281.901    20077281.541    20510003.609 8 -61619453.609 7
  22279288.155    22279290.021    43551210.170 9 -43693129.019 9
 86  6 12  1 58 11.0800000  0  4G 6G13G 9G11
  22067135.480    22067138.519    43771287.244 9 -43399962.453 9
  20767601.128    20767603.430    -8111685.732 9   4364949.031 8
  20077675.052    20077675.083    20512069.002 7 -61617844.225 8
  22282209.705    22282212.136    43566566.971 9 -43681162.677 9
 86  6 12  1 58 17.0800000  0  4G 6G13G 9G11
  22070641.632    22070644.202    43789708.658 9 -43385608.124 9
  20766528.073    20766530.862    -8117329.310 8   4360551.447 8
  20078073.142    20078072.724    20514159.972 8 -61616214.887 7
  22285133.931    22285134.892    43581930.110 9 -43669191.407 8
 86  6 12  1 58 23.0800000  0  4G 6G13G 9G11
  22074150.015    22074151.600    43808146.808 9 -43371240.739 8
  20765456.788    20765460.664    -8122953.967 8   4356168.588 9
  20078475.193    20078475.454    20516276.486 8 -61614565.660 8
  22288057.656    22288058.718    43597299.556 9 -43657215.222 8
 86  6 12  1 58 29.0800000  0  4G 6G13G 9G11
  22077661.805    22077664.384    43826601.709 9 -43356860.308 8
  20764390.048    20764393.207    -8128559.723 9   4351800.475 9
  20078883.231    20078883.552    20518418.625 8 -61612896.466 7
  22290983.212    22290985.765    43612675.341 9 -43645234.103 8
 86  6 12  1 58 35.0800000  0  4G 6G13G 9G11
  22081176.715    22081178.627    43845073.399 9 -43342466.810 8
  20763327.324    20763330.132    -8134146.535 8   4347447.111 9
  20079296.023    20079296.332    20520586.243 8 -61611207.411 7
  22293911.002    22293913.038    43628057.443 9 -43633248.044 9
 86  6 12  1 58 41.0800000  0  4G 6G13G 9G11
  22084695.057    22084696.668    43863561.820 9 -43328060.232 9
  20762268.310    20762269.923    -8139714.472 9   4343108.483 9
  20079713.167    20079714.041    20522779.569 8 -61609498.332 7
  22296839.144    22296841.119    43643445.839 9 -43621257.096 8
 86  6 12  1 58 47.0800000  0  4G 6G13G 9G11
  22088215.893    22088219.404    43882066.965 9 -43313640.659 8
  20761212.865    20761215.142    -8145263.508 8   4338784.555 8
  20080134.439    20080136.419    20524998.531 7 -61607769.268 8
  22299768.429    22299770.812    43658840.514 9 -43609261.250 9
 86  6 12  1 58 53.0800000  0  4G 6G13G 9G11
  22091741.218    22091743.426    43900588.788 9 -43299208.075 8
  20760159.747    20760161.667    -8150793.647 9   4334475.368 9
  20080562.455    20080563.051    20527243.083 8 -61606020.272 9
  22302700.210    22302701.856    43674241.476 9 -43597260.499 9
 86  6 12  1 58 59.0800000  0  4G 6G13G 9G11
  22095268.378    22095271.561    43919127.368 9 -43284762.447 8
  20759111.045    20759113.531    -8156304.863 8   4330180.907 9
  20080994.052    20080994.908    20529513.236 8 -61604251.324 7
  22305632.138    22305633.733    43689648.707 9 -43585254.871 8
 86  6 12  1 59  5.0800000  0  4G 6G13G 9G11
  22098798.999    22098802.165    43937682.606 9 -43270303.835 7
  20758065.868    20758067.897    -8161797.162 8   4325901.190 8
  20081430.001    20081430.669    20531808.984 8 -61602462.440 9
  22308564.468    22308565.622    43705062.143 9 -43573244.397 8
 86  6 12  1 59 11.0800000  0  4G 6G13G 9G11
  22102334.709    22102336.794    43956254.452 9 -43255832.270 8
  20757024.460    20757026.601    -8167270.556 8   4321636.215 8
  20081872.365    20081872.279    20534130.267 8 -61600653.652 7
  22311497.944    22311500.422    43720481.711 9 -43561229.154 9
 86  6 12  1 59 17.0800000  0  4G 6G13G 9G11
  22105870.571    22105873.982    43974842.910 9 -43241347.773 8
  20755986.702    20755988.923    -8172725.135 8   4317385.892 7
  20082318.892    20082320.592    20536477.318 8 -61598824.782 7
  22314434.435    22314435.886    43735907.461 9 -43549209.095 9
 86  6 12  1 59 23.0800000  0  4G 6G13G 9G11
  22109411.951    22109413.605    43993448.054 9 -43226850.269 9
  20754950.659    20754954.020    -8178160.870 8   4313150.262 9
  20082770.295    20082771.646    20538849.912 9 -61596976.017 8
  22317370.631    22317372.282    43751339.356 9 -43537184.248 9
 86  6 12  1 59 29.0800000  0  4G 6G13G 9G11
  22112956.023    22112956.991    44012069.764 9 -43212339.846 9
  20753921.084    20753923.479    -8183577.681 9   4308929.375 9
  20083227.279    20083228.310    20541248.196 8 -61595107.200 8
  22320309.027    22320310.869    43766777.395 9 -43525154.606 8
 86  6 12  1 59 35.0800000  0  4G 6G13G 9G11
  22116502.412    22116503.896    44030708.034 9 -43197816.527 8
  20752893.746    20752896.587    -8188975.711 8   4304723.110 9
  20083688.711    20083688.791    20543672.045 8 -61593218.505 7
  22323247.526    22323249.728    43782221.537 9 -43513120.210 9
 86  6 12  1 59 41.0800000  0  4G 6G13G 9G11
  22120051.750    22120054.320    44049362.864 9 -43183280.317 8
  20751869.451    20751872.184    -8194354.890 8   4300531.554 9
  20084154.152    20084155.706    20546121.579 8 -61591309.789 8
  22326187.732    22326189.193    43797671.752 8 -43501081.089 9
 86  6 12  1 59 47.0800000  0  4G 6G13G 9G11
  22123605.239    22123607.960    44068034.283 9 -43168731.170 8
  20750850.306    20750852.784    -8199715.218 9   4296354.675 8
  20084626.702    20084625.322    20548596.653 8 -61589381.152 8
  22329128.414    22329130.180    43813128.058 9 -43489037.217 9
 86  6 12  1 59 53.0800000  0  4G 6G13G 9G11
  22127161.903    22127162.952    44086722.237 9 -43154169.139 8
  20749833.857    20749836.186    -8205056.770 8   4292192.423 8
  20085101.655    20085102.276    20551097.453 9 -61587432.480 8
  22332070.439    22332073.247    43828590.422 9 -43476988.627 9
 86  6 12  1 59 59.0800000  0  4G 6G13G 9G11
  22130720.940    22130723.335    44105426.705 9 -43139594.235 8
  20748820.008    20748822.339    -8210379.459 9   4288044.884 9
  20085581.720    20085582.435    20553623.888 9 -61585463.827 8
  22335014.675    22335017.602    43844058.813 9 -43464935.334 8
 86  6 12  2  0  5.0800000  0  4G 6G13G 9G11
  22134283.044    22134285.569    44124147.669 9 -43125006.482 9
  20747811.342    20747813.728    -8215683.378 9   4283911.964 8
  20086067.322    20086068.118    20556176.015 9 -61583475.169 7
  22337959.535    22337960.942    43859533.242 8 -43452877.336 9
 86  6 12  2  0 11.0800000  0  4G 6G13G 9G11
  22137848.895    22137850.242    44142885.125 9 -43110405.884 9
  20746804.983    20746809.083    -8220968.477 8   4279793.699 9
  20086557.246    20086559.175    20558753.844 8 -61581466.468 8
  22340905.126    22340906.943    43875013.719 9 -43440814.634 8
 86  6 12  2  0 17.0800000  0  4G 6G13G 9G11
  22141417.373    22141420.127    44161639.051 9 -43095792.442 8
  20745802.315    20745805.376    -8226234.750 8   4275690.115 8
  20087053.003    20087053.758    20561357.301 8 -61579437.810 7
  22343852.091    22343853.945    43890500.200 9 -43428747.261 8
 86  6 12  2  0 23.0800000  0  4G 6G13G 9G11
  22144989.349    22144992.601    44180409.426 9 -43081166.199 9
  20744804.180    20744807.832    -8231482.128 9   4271601.256 9
  20087553.653    20087553.521    20563986.466 8 -61577389.118 7
  22346799.824    22346801.912    43905992.669 9 -43416675.201 8
 86  6 12  2  0 29.0800000  0  4G 6G13G 9G11
  22148564.873    22148567.111    44199196.176 9 -43066527.187 9
  20743810.855    20743812.440    -8236710.706 8   4267527.033 9
  20088059.720    20088059.671    20566641.207 8 -61575320.477 8
  22349749.159    22349751.475    43921491.123 9 -43404598.487 8
 86  6 12  2  0 35.0800000  0  4G 6G13G 9G11
  22152142.084    22152145.395    44217999.389 9 -43051875.339 9
  20742817.835    20742822.174    -8241920.422 8   4263467.526 9
  20088569.831    20088567.888    20569321.653 8 -61573231.837 8
  22352699.486    22352701.484    43936995.542 8 -43392517.121 8
 86  6 12  2  0 41.0800000  0  4G 6G13G 9G11
  22155723.501    22155725.814    44236818.982 9 -43037210.723 9
  20741831.201    20741833.283    -8247111.380 9   4259422.633 8
  20089083.989    20089084.971    20572027.856 9 -61571123.102 8
  22355651.761    22355652.281    43952505.873 9 -43380431.159 9
 86  6 12  2  0 47.0800000  0  4G 6G13G 9G11
  22159308.353    22159310.509    44255655.004 9 -43022533.327 8
  20740846.174    20740849.117    -8252283.515 8   4255392.397 9
  20089603.021    20089604.944    20574759.711 7 -61568994.386 7
  22358603.495    22358605.914    43968022.110 8 -43368340.583 8
 86  6 12  2  0 53.0800000  0  4G 6G13G 9G11
  22162895.897    22162897.549    44274507.338 9 -43007843.203 9
  20739865.418    20739868.054    -8257436.853 8   4251376.803 9
  20090128.801    20090127.636    20577517.282 9 -61566845.638 7
  22361557.786    22361558.988    43983544.210 9 -43356245.448 9
 86  6 12  2  0 59.0800000  0  4G 6G13G 9G11
  22166486.621    22166488.070    44293376.044 8 -42993140.319 8
  20738889.651    20738891.067    -8262571.429 8   4247375.844 9
  20090657.935    20090658.026    20580300.512 8 -61564676.874 7
  22364511.360    22364514.504    43999072.164 9 -43344145.748 8
 86  6 12  2  1  5.0800000  0  4G 6G13G 9G11
  22170079.598    22170081.810    44312261.089 9 -42978424.714 9
  20737915.405    20737917.450    -8267687.239 8   4243389.508 9
  20091192.200    20091193.116    20583109.441 8 -61562488.119 7
  22367469.062    22367469.842    44014605.979 9 -43332041.480 7
 86  6 12  2  1 11.0800000  0  4G 6G13G 9G11
  22173677.156    22173678.638    44331162.424 9 -42963696.412 8
  20736945.803    20736947.250    -8272784.257 8   4239417.806 8
  20091732.212    20091731.353    20585944.076 8 -61560279.309 7
  22370425.406    22370427.585    44030145.634 9 -43319932.659 8
 86  6 12  2  1 17.0800000  0  4G 6G13G 9G11
  22177277.093    22177278.260    44350080.043 9 -42948955.424 9
  20735978.454    20735980.761    -8277862.570 8   4235460.681 9
  20092276.012    20092278.039    20588804.403 8 -61558050.474 8
  22373383.459    22373386.103    44045691.100 8 -43307819.312 8
 86  6 12  2  1 23.0800000  0  4G 6G13G 9G11
  22180880.029    22180881.587    44369013.973 9 -42934201.727 9
  20735016.235    20735017.952    -8282922.159 9   4231518.151 9
  20092824.550    20092824.547    20591690.334 8 -61555801.706 8
  22376342.723    22376345.255    44061242.376 9 -43295701.446 8
 86  6 12  2  1 29.0800000  0  4G 6G13G 9G11
  22184485.863    22184488.345    44387964.155 9 -42919435.361 9
  20734057.020    20734059.873    -8287962.932 9   4227590.278 9
  20093379.884    20093381.203    20594602.156 8 -61553532.758 7
  22379303.909    22379305.679    44076799.418 9 -43283579.072 9
 86  6 12  2  1 35.0800000  0  4G 6G13G 9G11
  22188094.982    22188097.154    44406930.579 9 -42904656.342 8
  20733101.193    20733103.256    -8292984.928 7   4223677.029 9
  20093937.728    20093939.118    20597539.644 9 -61551243.809 8
  22382265.048    22382267.420    44092362.207 8 -43271452.225 9
 86  6 12  2  1 41.0800000  0  4G 6G13G 9G11
  22191707.938    22191711.047    44425913.217 9 -42889864.689 8
  20732149.602    20732151.661    -8297988.258 9   4219778.343 8
  20094504.215    20094502.787    20600502.854 8 -61548934.821 8
  22385226.928    22385230.250    44107930.694 8 -43259320.934 9
 86  6 12  2  1 47.0800000  0  4G 6G13G 9G11
  22195323.040    22195325.311    44444912.051 9 -42875060.415 8
  20731200.981    20731203.182    -8302972.889 9   4215894.214 8
  20095070.564    20095072.813    20603491.727 8 -61546605.831 8
  22388191.332    22388193.435    44123504.912 9 -43247185.191 8
 86  6 12  2  1 53.0800000  0  4G 6G13G 9G11
  22198940.490    22198944.002    44463927.091 9 -42860243.518 8
  20730255.393    20730258.443    -8307938.762 9   4212024.699 9
  20095644.425    20095645.965    20606506.346 8 -61544256.792 8
  22391155.947    22391158.943    44139084.865 9 -43235044.972 8
 86  6 12  2  1 59.0800000  0  4G 6G13G 9G11
  22202562.775    22202565.562    44482958.308 9 -42845414.005 9
  20729314.247    20729316.564    -8312885.928 9   4208169.779 9
  20096223.550    20096223.415    20609546.730 9 -61541887.649 7
  22394121.868    22394123.622    44154670.550 9 -43222900.287 8
 86  6 12  2  2  5.0800000  0  4G 6G13G 9G11
  22206188.040    22206189.162    44502005.686 9 -42830571.906 9
  20728375.372    20728379.214    -8317814.308 9   4204329.483 9
  20096806.973    20096806.561    20612612.759 8 -61539498.539 8
  22397089.004    22397091.613    44170261.929 8 -43210751.162 8
 86  6 12  2  2 11.0800000  0  4G 6G13G 9G11
  22209814.789    22209817.185    44521069.229 9 -42815717.207 8
  20727441.480    20727444.309    -8322723.911 8   4200503.822 9
  20097395.951    20097396.729    20615704.607 8 -61537089.306 8
  22400056.465    22400058.551    44185858.980 9 -43198597.628 9
 86  6 12  2  2 17.0800000  0  4G 6G13G 9G11
  22213445.892    22213447.712    44540148.871 9 -42800849.965 8
  20726510.913    20726514.549    -8327614.862 8   4196692.687 8
  20097988.640    20097989.422    20618822.211 8 -61534660.010 8
  22403026.515    22403026.952    44201461.630 8 -43186439.716 8
 86  6 12  2  2 23.0800000  0  4G 6G13G 9G11
  22217079.280    22217081.807    44559244.578 9 -42785970.211 9
  20725583.945    20725586.766    -8332487.230 9   4192896.046 9
  20098586.121    20098587.443    20621965.465 8 -61532210.736 7
  22405995.578    22405998.227    44217069.839 9 -43174277.484 9
 86  6 12  2  2 29.0800000  0  4G 6G13G 9G11
  22220715.989    22220717.980    44578356.398 9 -42771077.893 8
  20724660.297    20724663.267    -8337340.891 8   4189113.969 9
  20099189.840    20099191.468    20625134.481 8 -61529741.355 9
  22408966.378    22408969.623    44232683.696 9 -43162110.847 9
 86  6 12  2  2 35.0800000  0  4G 6G13G 9G11
  22224356.217    22224358.415    44597484.316 9 -42756173.042 8
  20723740.312    20723743.121    -8342175.930 9   4185346.414 8
  20099797.938    20099799.054    20628329.286 8 -61527251.918 8
  22411938.815    22411941.651    44248303.170 8 -43149939.829 8
 86  6 12  2  2 41.0800000  0  4G 6G13G 9G11
  22227999.627    22228001.733    44616628.263 9 -42741255.689 8
  20722823.688    20722825.464    -8346992.322 8   4181593.385 8
  20100410.812    20100411.493    20631549.832 7 -61524742.401 7
  22414913.041    22414914.370    44263928.210 9 -43137764.481 9
 86  6 12  2  2 47.0800000  0  4G 6G13G 9G11
  22231645.264    22231647.454    44635788.271 9 -42726325.817 9
  20721911.275    20721913.224    -8351790.044 9   4177854.901 9
  20101029.092    20101030.234    20634796.140 8 -61522212.804 8
  22417887.376    22417888.771    44279558.825 9 -43125584.787 9
 86  6 12  2  2 53.0800000  0  4G 6G13G 9G11
  22235295.594    22235297.358    44654964.279 9 -42711383.493 9
  20721001.804    20721003.573    -8356569.035 8   4174131.020 9
  20101650.858    20101652.913    20638068.189 8 -61519663.166 8
  22420863.370    22420864.669    44295194.958 9 -43113400.780 8
 86  6 12  2  2 59.0800000  0  4G 6G13G 9G11
  22238946.382    22238949.351    44674156.299 9 -42696428.693 8
  20720095.953    20720098.471    -8361329.303 8   4170421.719 9
  20102279.212    20102279.083    20641365.909 8 -61517093.510 8
  22423838.707    22423840.918    44310836.575 9 -43101212.511 8
 86  6 12  2  3  5.0800000  0  4G 6G13G 9G11
  22242601.781    22242603.649    44693364.292 9 -42681461.430 8
  20719194.557    20719196.006    -8366070.937 9   4166726.932 9
  20102911.486    20102911.830    20644689.434 8 -61514503.746 8
  22426816.925    22426818.025    44326483.657 9 -43089019.991 8
 86  6 12  2  3 11.0800000  0  4G 6G13G 9G11
  22246259.954    22246262.837    44712588.256 9 -42666481.731 9
  20718295.258    20718297.437    -8370793.943 8   4163046.665 8
  20103548.229    20103549.213    20648038.709 8 -61511893.937 8
  22429795.519    22429797.209    44342136.236 9 -43076823.183 9
 86  6 12  2  3 17.0800000  0  4G 6G13G 9G11
  22249921.618    22249923.398    44731828.126 9 -42651489.643 9
  20717400.122    20717402.193    -8375498.384 8   4159380.882 8
  20104190.402    20104191.129    20651413.773 8 -61509264.001 8
  22432774.708    22432777.139    44357794.255 8 -43064622.134 9
 86  6 12  2  3 23.0800000  0  4G 6G13G 9G11
  22253585.458    22253587.968    44751083.918 9 -42636485.142 9
  20716507.957    20716510.166    -8380184.195 9   4155729.604 9
  20104837.490    20104838.929    20654814.531 7 -61506614.071 7
  22435755.925    22435757.210    44373457.731 9 -43052416.824 8
 86  6 12  2  3 29.0800000  0  4G 6G13G 9G11
  22257251.931    22257254.913    44770355.655 9 -42621468.214 9
  20715620.184    20715621.667    -8384851.316 8   4152092.885 8
  20105490.585    20105491.549    20658241.135 8 -61503943.992 8
  22438737.438    22438739.175    44389126.640 9 -43040207.292 8
 86  6 12  2  3 35.0800000  0  4G 6G13G 9G11
  22260922.755    22260925.120    44789643.208 8 -42606438.962 9
  20714734.158    20714737.821    -8389499.846 9   4148470.648 8
  20106147.188    20106147.688    20661693.480 9 -61501253.859 7
  22441720.953    22441722.283    44404800.978 8 -43027993.526 9
 86  6 12  2  3 41.0800000  0  4G 6G13G 9G11
  22264595.924    22264599.047    44808946.692 9 -42591397.300 9
  20713854.204    20713855.023    -8394129.825 8   4144862.889 9
  20106808.275    20106809.116    20665171.565 9 -61498543.658 6
  22444703.991    22444705.901    44420480.731 9 -43015775.543 8
 86  6 12  2  3 47.0800000  0  4G 6G13G 9G11
  22268272.842    22268275.462    44828266.050 9 -42576343.269 9
  20712977.012    20712979.241    -8398741.241 9   4141269.577 9
  20107474.897    20107475.667    20668675.558 7 -61495813.272 8
  22447688.370    22447691.117    44436165.915 9 -43003553.322 8
 86  6 12  2  3 53.0800000  0  4G 6G13G 9G11
  22271952.446    22271953.799    44847601.252 9 -42561276.887 9
  20712102.291    20712104.950    -8403334.028 9   4137690.785 9
  20108147.787    20108148.611    20672205.294 9 -61493062.847 8
  22450674.943    22450677.252    44451856.386 9 -42991326.987 8
 86  6 12  2  3 59.0800000  0  4G 6G13G 9G11
  22275634.320    22275637.158    44866952.224 9 -42546198.221 9
  20711233.038    20711234.747    -8407908.266 9   4134126.440 9
  20108824.349    20108824.486    20675760.675 8 -61490292.416 7
  22453661.925    22453664.003    44467552.172 9 -42979096.505 8
 86  6 12  2  4  5.0800000  0  4G 6G13G 9G11
  22279319.907    22279322.131    44886319.040 9 -42531107.212 9
  20710364.738    20710366.931    -8412463.918 9   4130576.584 8
  20109505.958    20109504.980    20679341.893 8 -61487501.850 7
  22456649.169    22456652.326    44483253.330 9 -42966861.844 8
 86  6 12  2  4 11.0800000  0  4G 6G13G 9G11
  22283008.757    22283010.423    44905701.634 9 -42516003.904 8
  20709501.816    20709503.461    -8417000.948 9   4127041.236 8
  20110191.896    20110192.130    20682948.895 9 -61484691.209 8
  22459638.908    22459640.053    44498959.881 9 -42954622.977 9
 86  6 12  2  4 17.0800000  0  4G 6G13G 9G11
  22286700.130    22286701.699    44925100.008 9 -42500888.302 9
  20708642.301    20708644.268    -8421519.435 8   4123520.347 8
  20110883.072    20110882.812    20686581.749 8 -61481860.408 8
  22462629.142    22462629.555    44514671.670 9 -42942380.026 8
 86  6 12  2  4 23.0800000  0  4G 6G13G 9G11
  22290394.704    22290396.100    44944514.134 9 -42485760.424 8
  20707785.790    20707788.446    -8426019.311 9   4120013.952 9
  20111578.559    20111580.231    20690240.283 8 -61479009.611 7
  22465619.125    22465620.863    44530388.775 9 -42930132.940 8
 86  6 12  2  4 29.0800000  0  4G 6G13G 9G11
  22294091.660    22294094.237    44963943.990 9 -42470620.284 9
  20706933.386    20706935.750    -8430500.640 9   4116522.007 9
  20112280.554    20112281.896    20693924.721 8 -61476138.617 8
  22468611.997    22468612.056    44546111.114 9 -42917881.768 8
 86  6 12  2  4 35.0800000  0  4G 6G13G 9G11
  22297791.356    22297794.095    44983389.548 9 -42455467.916 8
  20706084.124    20706087.271    -8434963.448 9   4113044.498 9
  20112987.359    20112987.769    20697634.951 8 -61473247.529 8
  22471603.997    22471605.886    44561838.708 9 -42905626.497 8
 86  6 12  2  4 41.0800000  0  4G 6G13G 9G11
  22301495.376    22301496.985    45002850.780 9 -42440303.327 9
  20705238.145    20705240.241    -8439407.750 9   4109581.403 9
  20113697.648    20113698.655    20701370.857 9 -61470336.433 7
  22474597.186    22474599.470    44577571.536 9 -42893367.167 9
 86  6 12  2  4 47.0800000  0  4G 6G13G 9G11
  22305201.227    22305203.606    45022327.702 9 -42425126.523 9
  20704396.836    20704398.419    -8443833.507 9   4106132.770 9
  20114414.123    20114412.203    20705132.607 8 -61467405.186 7
  22477591.978    22477593.816    44593309.601 9 -42881103.738 9
 86  6 12  2  4 53.0800000  0  4G 6G13G 9G11
  22308910.797    22308912.362    45041820.348 9 -42409937.463 9
  20703557.075    20703560.640    -8448240.727 9   4102698.570 8
  20115134.548    20115134.674    20708920.175 8 -61464453.851 8
  22480588.289    22480589.970    44609052.882 9 -42868836.249 9
 86  6 12  2  4 59.0800000  0  4G 6G13G 9G11
  22312624.006    22312625.414    45061328.624 9 -42394736.231 9
  20702722.686    20702724.688    -8452629.437 8   4099278.801 8
  20115859.635    20115860.854    20712733.521 9 -61461482.420 8
  22483585.911    22483586.594    44624801.318 9 -42856564.746 8
 86  6 12  2  5  5.0800000  0  4G 6G13G 9G11
  22316339.101    22316341.136    45080852.487 9 -42379522.828 8
  20701890.600    20701892.786    -8456999.572 9   4095873.503 9
  20116589.856    20116590.239    20716572.751 8 -61458490.817 8
  22486582.935    22486585.223    44640554.934 9 -42844289.208 9
 86  6 12  2  5 11.0800000  0  4G 6G13G 9G11
  22320056.798    22320059.585    45100391.918 9 -42364297.324 8
  20701062.746    20701064.303    -8461351.242 9   4092482.578 9
  20117326.628    20117326.024    20720437.710 9 -61455479.151 8
  22489581.525    22489583.647    44656313.595 9 -42832009.727 9
 86  6 12  2  5 17.0800000  0  4G 6G13G 9G11
  22323777.930    22323780.686    45119946.932 9 -42349059.658 9
  20700238.203    20700239.974    -8465684.409 8   4089106.099 7
  20118067.025    20118066.416    20724328.508 9 -61452447.372 7
  22492581.793    22492583.133    44672077.390 9 -42819726.263 8
 86  6 12  2  5 23.0800000  0  4G 6G13G 9G11
  22327502.841    22327504.982    45139517.578 9 -42333809.818 8
  20699417.134    20699419.146    -8469999.052 9   4085744.038 9
  20118811.582    20118813.178    20728245.121 9 -61449395.465 8
  22495582.717    22495583.997    44687846.287 9 -42807438.813 9
 86  6 12  2  5 29.0800000  0  4G 6G13G 9G11
  22331230.333    22331230.968    45159103.748 9 -42318547.877 8
  20698599.103    20698601.641    -8474295.191 9   4082396.404 9
  20119561.953    20119562.110    20732187.512 8 -61446323.476 8
  22498583.976    22498585.473    44703620.284 8 -42795147.392 9
 86  6 12  2  5 35.0800000  0  4G 6G13G 9G11
  22334960.021    22334960.671    45178705.476 9 -42303273.826 8
  20697785.141    20697787.496    -8478572.898 9   4079063.129 8
  20120316.926    20120316.972    20736155.635 8 -61443231.430 9
  22501587.034    22501587.561    44719399.314 9 -42782852.043 9
 86  6 12  2  5 41.0800000  0  4G 6G13G 9G11
  22338692.600    22338694.325    45198322.725 9 -42287987.670 8
  20696975.126    20696977.212    -8482832.088 9   4075744.277 9
  20121077.088    20121076.080    20740149.699 8 -61440119.178 7
  22504590.182    22504592.221    44735183.374 9 -42770552.786 9
 86  6 12  2  5 47.0800000  0  4G 6G13G 9G11
  22342428.557    22342430.268    45217955.475 9 -42272689.436 9
  20696167.345    20696170.758    -8487072.902 9   4072439.751 8
  20121842.606    20121842.211    20744169.502 8 -61436986.880 7
  22507594.183    22507597.037    44750972.437 9 -42758249.622 9
 86  6 12  2  5 53.0800000  0  4G 6G13G 9G11
  22346167.436    22346170.176    45237603.672 9 -42257379.167 9
  20695364.561    20695365.714    -8491295.286 9   4069149.581 8
  20122612.026    20122611.388    20748215.159 8 -61433834.408 8
  22510599.694    22510602.110    44766766.585 9 -42745942.501 9
 86  6 12  2  5 59.0800000  0  4G 6G13G 9G11
  22349909.174    22349911.085    45257267.358 9 -42242056.830 9
  20694564.335    20694566.591    -8495499.201 9   4065873.804 9
  20123386.193    20123387.845    20752286.629 8 -61430661.845 8
  22513606.331    22513608.705    44782565.778 9 -42733631.442 9
 86  6 12  2  6  5.0800000  0  4G 6G13G 9G11
  22353654.291    22353655.757    45276946.442 9 -42226722.486 9
  20693767.894    20693770.089    -8499684.701 9   4062612.380 9
  20124166.196    20124167.398    20756383.917 8 -61427469.167 7
  22516614.329    22516615.720    44798369.904 9 -42721316.542 8
 86  6 12  2  6 11.0800000  0  4G 6G13G 9G11
  22357402.268    22357404.308    45296640.980 9 -42211376.106 9
  20692973.581    20692976.999    -8503851.685 8   4059365.380 9
  20124950.283    20124951.067    20760506.991 8 -61424256.381 7
  22519621.556    22519625.663    44814179.026 9 -42708997.751 8
 86  6 12  2  6 17.0800000  0  4G 6G13G 9G11
  22361152.991    22361155.749    45316350.920 9 -42196017.727 8
  20692185.270    20692186.789    -8508000.299 9   4056132.702 8
  20125740.708    20125740.270    20764655.829 8 -61421023.509 8
  22522631.294    22522633.629    44829993.121 9 -42696675.086 9
 86  6 12  2  6 23.0800000  0  4G 6G13G 9G11
  22364906.495    22364908.849    45336076.220 9 -42180647.376 9
  20691400.498    20691402.076    -8512130.505 9   4052914.355 9
  20126535.266    20126535.386    20768830.579 9 -61417770.467 8
  22525642.365    22525645.135    44845812.214 9 -42684348.517 8
 86  6 12  2  6 29.0800000  0  4G 6G13G 9G11
  22368662.742    22368665.010    45355816.939 9 -42165265.014 8
  20690617.545    20690619.302    -8516242.327 9   4049710.352 9
  20127334.283    20127335.093    20773031.104 9 -61414497.326 8
  22528652.805    22528656.385    44861636.253 9 -42672018.115 8
 86  6 12  2  6 35.0800000  0  4G 6G13G 9G11
  22372422.853    22372422.549    45375572.997 9 -42149870.693 8
  20689838.031    20689840.411    -8520335.725 8   4046520.688 9
  20128138.394    20128137.912    20777257.535 9 -61411204.013 8
  22531665.161    22531668.502    44877465.211 9 -42659683.859 8
 86  6 12  2  6 41.0800000  0  4G 6G13G 9G11
  22376184.226    22376186.150    45395344.382 9 -42134464.429 8
  20689062.516    20689064.726    -8524410.711 9   4043345.379 9
  20128947.489    20128946.656    20781509.711 8 -61407890.633 7
  22534678.097    22534680.650    44893299.046 9 -42647345.808 9
 86  6 12  2  6 47.0800000  0  4G 6G13G 9G11
  22379949.947    22379952.756    45415131.034 9 -42119046.276 8
  20688291.678    20688292.488    -8528467.310 9   4040184.383 9
  20129761.079    20129762.023    20785787.733 8 -61404557.109 7
  22537692.669    22537694.719    44909137.715 9 -42635003.986 8
 86  6 12  2  6 53.0800000  0  4G 6G13G 9G11
  22383717.558    22383720.140    45434933.041 9 -42103616.151 8
  20687523.356    20687524.652    -8532505.506 8   4037037.741 9
  20130579.900    20130580.297    20790091.590 7 -61401203.450 8
  22540707.150    22540710.671    44924981.230 9 -42622658.395 8
 86  6 12  2  6 59.0800000  0  4G 6G13G 9G11
  22387489.458    22387490.725    45454750.288 9 -42088174.149 8
  20686757.815    20686759.070    -8536525.370 9   4033905.387 9
  20131405.151    20131404.873    20794421.315 7 -61397829.646 8
  22543722.953    22543725.259    44940829.627 9 -42610309.005 9
 86  6 12  2  7  5.0800000  0  4G 6G13G 9G11
  22391262.792    22391264.503    45474582.812 9 -42072720.255 8
  20685995.787    20685997.973    -8540526.842 9   4030787.347 9
  20132233.817    20132233.702    20798776.845 8 -61394435.748 6
  22546739.250    22546742.011    44956682.797 9 -42597955.891 8
 86  6 12  2  7 11.0800000  0  4G 6G13G 9G11
  22395039.905    22395042.756    45494430.544 9 -42057254.500 8
  20685238.093    20685240.181    -8544509.998 9   4027683.595 9
  20133066.285    20133066.646    20803158.087 8 -61391021.788 7
  22549757.573    22549760.699    44972540.759 9 -42585599.039 9
 86  6 12  2  7 17.0800000  0  4G 6G13G 9G11
  22398820.709    22398821.815    45514293.488 9 -42041776.901 9
  20684483.418    20684485.895    -8548474.734 9   4024594.190 9
  20133905.680    20133905.937    20807565.272 8 -61387587.613 8
  22552776.020    22552779.092    44988403.530 9 -42573238.443 9
 86  6 12  2  7 23.0800000  0  4G 6G13G 9G11
  22402602.225    22402604.474    45534171.663 9 -42026287.420 8
  20683733.034    20683734.433    -8552421.117 9   4021519.088 9
  20134748.995    20134749.893    20811998.334 9 -61384133.292 7
  22555796.086    22555797.517    45004271.063 9 -42560874.129 9
 86  6 12  2  7 29.0800000  0  4G 6G13G 9G11
  22406388.721    22406390.400    45554065.045 9 -42010786.109 9
  20682985.256    20682987.578    -8556349.244 9   4018458.223 9
  20135597.945    20135599.115    20816457.183 8 -61380658.874 8
  22558816.067    22558818.031    45020143.306 9 -42548506.154 9
 86  6 12  2  7 35.0800000  0  4G 6G13G 9G11
  22410177.280    22410177.948    45573973.611 9 -41995272.943 9
  20682241.218    20682242.049    -8560258.999 9   4015411.663 7
  20136450.421    20136450.152    20820941.887 8 -61377164.299 7
  22561836.550    22561839.179    45036020.298 9 -42536134.480 8
 86  6 12  2  7 41.0800000  0  4G 6G13G 9G11
  22413968.559    22413969.851    45593897.332 9 -41979747.985 8
  20681499.773    20681503.114    -8564150.437 8   4012379.369 8
  20137309.659    20137309.533    20825452.463 9 -61373649.566 8
  22564859.700    22564861.649    45051902.046 9 -42523759.102 8
 86  6 12  2  7 47.0800000  0  4G 6G13G 9G11
  22417762.609    22417764.579    45613836.141 9 -41964211.266 7
  20680763.602    20680766.138    -8568023.533 9   4009361.377 8
  20138172.962    20138174.226    20829988.805 9 -61370114.758 7
  22567882.808    22567885.328    45067788.515 9 -42511380.035 9
 86  6 12  2  7 53.0800000  0  4G 6G13G 9G11
  22421559.295    22421560.007    45633790.089 9 -41948662.741 8
  20680030.971    20680031.658    -8571878.225 9   4006357.717 8
  20139039.744    20139042.010    20834551.011 8 -61366559.796 8
  22570906.291    22570909.363    45083679.678 9 -42498997.307 8
 86  6 12  2  7 59.0800000  0  4G 6G13G 9G11
  22425359.877    22425361.001    45653759.122 9 -41933102.472 9
  20679299.925    20679302.858    -8575714.685 9   4003368.273 8
  20139913.623    20139913.949    20839139.010 8 -61362984.737 7
  22573932.103    22573933.429    45099575.523 9 -42486610.941 8
 86  6 12  2  8  5.0800000  0  4G 6G13G 9G11
  22429163.172    22429164.070    45673743.205 9 -41917530.470 8
  20678573.600    20678574.942    -8579532.817 9   4000393.102 9
  20140792.405    20140792.053    20843752.860 8 -61359389.530 7
  22576957.254    22576959.289    45115475.962 9 -42474220.994 9
 86  6 12  2  8 11.0800000  0  4G 6G13G 9G11
  22432967.818    22432969.898    45693742.398 9 -41901946.691 8
  20677850.492    20677852.197    -8583332.648 9   3997432.198 8
  20141675.454    20141674.787    20848392.565 8 -61355774.183 8
  22579984.126    22579987.023    45131381.011 9 -42461827.451 8
 86  6 12  2  8 17.0800000  0  4G 6G13G 9G11
  22436776.921    22436778.274    45713756.593 9 -41886351.237 9
  20677130.507    20677132.191    -8587114.259 9   3994485.495 8
  20142562.198    20142562.942    20853058.039 8 -61352138.742 8
  22583011.618    22583014.192    45147290.626 9 -42449430.352 9
 86  6 12  2  8 23.0800000  0  4G 6G13G 9G11
  22440587.859    22440590.041    45733785.823 9 -41870744.055 8
  20676414.619    20676416.710    -8590877.572 9   3991553.033 9
  20143454.822    20143456.471    20857749.400 8 -61348483.150 8
  22586040.341    22586042.745    45163204.888 9 -42437029.634 9
 86  6 12  2  8 29.0800000  0  4G 6G13G 9G11
  22444401.917    22444404.116    45753830.016 9 -41855125.211 9
  20675701.623    20675704.453    -8594622.637 9   3988634.807 9
  20144352.976    20144353.262    20862466.621 8 -61344807.385 8
  22589068.608    22589071.766    45179123.716 9 -42424625.360 9
 86  6 12  2  8 35.0800000  0  4G 6G13G 9G11
  22448219.952    22448222.176    45773889.181 9 -41839494.714 9
  20674992.613    20674993.714    -8598349.528 9   3985730.741 9
  20145254.770    20145255.594    20867209.605 8 -61341111.560 7
  22592099.586    22592102.507    45195047.069 9 -42412217.554 9
 86  6 12  2  8 41.0800000  0  4G 6G13G 9G11
  22452039.419    22452040.813    45793963.290 9 -41823852.560 8
  20674286.645    20674289.212    -8602058.154 9   3982840.908 9
  20146163.249    20146163.987    20871978.416 9 -61337395.602 7
  22595131.600    22595133.449    45210974.969 9 -42399806.210 9
 86  6 12  2  8 47.0800000  0  4G 6G13G 9G11
  22455862.207    22455864.115    45814052.383 9 -41808198.737 8
  20673583.664    20673586.544    -8605748.551 9   3979965.277 9
  20147073.715    20147075.380    20876773.081 8 -61333659.515 8
  22598162.769    22598164.873    45226907.431 9 -42387391.300 9
 86  6 12  2  8 53.0800000  0  4G 6G13G 9G11
  22459688.112    22459689.319    45834156.419 9 -41792533.268 8
  20672885.327    20672886.947    -8609420.665 9   3977103.893 9
  20147992.722    20147993.160    20881593.723 9 -61329903.153 7
  22601195.633    22601197.496    45242844.475 9 -42374972.827 8
 86  6 12  2  8 59.0800000  0  4G 6G13G 9G11
  22463516.762    22463517.954    45854275.347 9 -41776856.191 9
  20672190.968    20672192.282    -8613074.597 9   3974256.666 9
  20148915.219    20148914.586    20886440.091 8 -61326126.782 7
  22604229.559    22604230.753    45258785.994 8 -42362550.867 8
 86  6 12  2  9  5.0800000  0  4G 6G13G 9G11
  22467348.108    22467349.675    45874409.116 9 -41761167.554 8
  20671497.882    20671500.089    -8616710.421 9   3971423.562 9
  20149841.098    20149843.024    20891312.225 8 -61322330.310 8
  22607263.345    22607265.576    45274731.921 9 -42350125.469 8
 86  6 12  2  9 11.0800000  0  4G 6G13G 9G11
  22471182.083    22471183.607    45894557.742 8 -41745467.348 8
  20670810.316    20670812.511    -8620328.089 9   3968604.594 9
  20150773.777    20150773.963    20896210.245 8 -61318513.674 7
  22610298.095    22610300.919    45290682.316 9 -42337696.602 9
 86  6 12  2  9 17.0800000  0  4G 6G13G 9G11
  22475019.348    22475020.341    45914721.198 9 -41729755.578 8
  20670125.786    20670127.673    -8623927.554 9   3965799.827 9
  20151710.788    20151711.455    20901134.058 8 -61314676.941 8
  22613334.659    22613336.828    45306637.157 9 -42325264.261 8
 86  6 12  2  9 23.0800000  0  4G 6G13G 9G11
  22478859.018    22478860.784    45934899.505 9 -41714032.237 9
  20669443.864    20669445.618    -8627508.796 9   3963009.245 8
  20152652.227    20152654.551    20906083.802 8 -61310819.995 8
  22616371.085    22616373.969    45322596.448 9 -42312828.450 9
 86  6 12  2  9 29.0800000  0  4G 6G13G 9G11
  22482701.755    22482703.118    45955092.578 9 -41698297.380 8
  20668765.458    20668768.021    -8631071.832 9   3960232.854 9
  20153598.932    20153601.082    20911059.237 9 -61306943.047 7
  22619409.752    22619411.346    45338560.121 8 -42300389.226 9
 86  6 12  2  9 35.0800000  0  4G 6G13G 9G11
  22486546.179    22486548.156    45975300.480 9 -41682550.974 8
  20668090.310    20668093.155    -8634616.645 8   3957470.673 9
  20154551.481    20154551.555    20916060.628 8 -61303045.854 7
  22622447.372    22622450.546    45354528.244 9 -42287946.547 9
 86  6 12  2  9 41.0800000  0  4G 6G13G 9G11
  22490396.206    22490396.898    45995523.160 9 -41666793.064 7
  20667420.345    20667422.184    -8638143.223 9   3954722.689 9
  20155507.323    20155508.033    20921087.746 8 -61299128.633 7
  22625487.519    22625489.599    45370500.733 9 -42275500.450 9
 86  6 12  2  9 47.0800000  0  4G 6G13G 9G11
  22494247.581    22494247.518    46015760.577 9 -41651023.659 8
  20666753.309    20666754.349    -8641651.728 9   3951988.784 9
  20156469.288    20156470.338    20926140.709 8 -61295191.251 8
  22628527.574    22628529.522    45386477.612 9 -42263050.940 8
 86  6 12  2  9 53.0800000  0  4G 6G13G 9G11
  22498100.503    22498101.131    46036012.771 8 -41635242.738 9
  20666088.066    20666091.123    -8645142.145 9   3949268.990 9
  20157435.630    20157436.718    20931219.517 8 -61291233.735 7
  22631568.894    22631572.154    45402458.872 9 -42250598.013 9
 86  6 12  2  9 59.0800000  0  4G 6G13G 9G11
  22501956.830    22501958.355    46056279.709 9 -41619450.345 9
  20665427.458    20665429.709    -8648614.393 9   3946563.340 9
  20158407.494    20158409.314    20936324.188 8 -61287256.078 8
  22634610.708    22634613.117    45418444.508 9 -42238141.677 9
 86  6 12  2 10  5.0800000  0  4G 6G13G 9G11
  22505816.877    22505818.468    46076561.295 9 -41603646.515 8
  20664770.133    20664772.256    -8652068.523 9   3943871.816 9
  20159384.477    20159384.737    20941454.723 8 -61283258.254 8
  22637653.384    22637655.681    45434434.470 9 -42225681.978 9
 86  6 12  2 10 11.0800000  0  4G 6G13G 9G11
  22509678.870    22509679.906    46096857.560 9 -41587831.255 8
  20664116.268    20664118.661    -8655504.492 9   3941194.436 8
  20160364.138    20160365.861    20946611.083 8 -61279240.316 7
  22640696.171    22640699.215    45450428.714 9 -42213218.934 9
 86  6 12  2 10 17.0800000  0  4G 6G13G 9G11
  22513543.068    22513545.906    46117168.469 9 -41572004.591 8
  20663466.241    20663468.737    -8658922.404 9   3938531.123 9
  20161351.004    20161353.116    20951793.223 7 -61275202.285 8
  22643742.223    22643743.498    45466427.234 9 -42200752.555 8
 86  6 12  2 10 23.0800000  0  4G 6G13G 9G11
  22517411.044    22517414.182    46137494.102 8 -41556166.449 9
  20662818.798    20662821.523    -8662322.154 9   3935881.982 8
  20162342.218    20162341.972    20957001.246 8 -61271144.096 8
  22646787.048    22646788.078    45482430.077 9 -42188282.809 8
 86  6 12  2 10 29.0800000  0  4G 6G13G 9G11
  22521282.193    22521283.701    46157834.338 9 -41540316.937 9
  20662175.438    20662177.107    -8665703.880 9   3933246.869 9
  20163338.722    20163339.289    20962235.091 8 -61267065.777 7
  22649833.589    22649834.892    45498437.110 9 -42175809.805 9
 86  6 12  2 10 35.0800000  0  4G 6G13G 9G11
  22525155.688    22525156.742    46178189.113 9 -41524456.085 8
  20661535.302    20661538.499    -8669067.560 9   3930625.813 9
  20164339.642    20164341.802    20967494.712 7 -61262967.369 7
  22652879.231    22652881.548    45514448.357 9 -42163333.508 9
 86  6 12  2 10 41.0800000  0  4G 6G13G 9G11
  22529030.847    22529033.677    46198558.502 9 -41508583.851 9
  20660898.279    20660900.172    -8672413.194 9   3928018.834 8
  20165344.233    20165345.477    20972780.182 8 -61258848.828 7
  22655928.361    22655928.433    45530463.872 9 -42150853.890 8
 86  6 12  2 10 47.0800000  0  4G 6G13G 9G11
  22532911.042    22532912.838    46218942.437 9 -41492700.274 8
  20660265.508    20660267.046    -8675740.773 9   3925425.911 9
  20166355.283    20166357.332    20978091.452 8 -61254710.184 7
  22658974.918    22658977.984    45546483.570 9 -42138371.008 9
 86  6 12  2 10 53.0800000  0  4G 6G13G 9G11
  22536792.212    22536793.820    46239340.909 9 -41476805.375 8
  20659636.455    20659637.810    -8679050.274 9   3922847.086 9
  20167371.462    20167373.468    20983428.560 9 -61250551.405 7
  22662024.214    22662026.467    45562507.452 9 -42125884.875 9
 86  6 12  2 10 59.0800000  0  4G 6G13G 9G11
  22540676.699    22540678.021    46259753.961 9 -41460899.112 8
  20659009.348    20659010.712    -8682341.686 9   3920282.356 9
  20168391.965    20168393.181    20988791.508 8 -61246372.474 8
  22665075.491    22665076.539    45578535.540 8 -42113395.457 9
 86  6 12  2 11  5.0800000  0  4G 6G13G 9G11
  22544563.704    22544565.383    46280181.445 9 -41444981.604 8
  20658386.901    20658388.634    -8685615.104 9   3917731.642 9
  20169416.715    20169418.183    20994180.290 8 -61242173.446 8
  22668125.623    22668127.224    45594567.749 9 -42100902.831 9
 86  6 12  2 11 11.0800000  0  4G 6G13G 9G11
  22548453.689    22548456.583    46300623.470 9 -41429052.776 9
  20657766.943    20657769.631    -8688870.486 9   3915194.979 8
  20170447.443    20170448.822    20999594.872 8 -61237954.290 7
  22671177.349    22671179.476    45610604.114 9 -42088406.965 9
 86  6 12  2 11 17.0800000  0  4G 6G13G 9G11
  22552347.446    22552348.324    46321079.973 9 -41413112.652 8
  20657151.066    20657153.553    -8692107.797 9   3912672.401 9
  20171482.974    20171485.570    21005035.253 8 -61233715.036 7
  22674228.610    22674231.799    45626644.611 9 -42075907.891 9
 86  6 12  2 11 23.0800000  0  4G 6G13G 9G11
  22556242.665    22556243.249    46341550.911 9 -41397161.292 7
  20656538.995    20656539.404    -8695327.116 9   3910163.849 9
  20172523.373    20172523.644    21010501.494 7 -61229455.626 8
  22677283.061    22677284.788    45642689.223 9 -42063405.592 9
 86  6 12  2 11 29.0800000  0  4G 6G13G 9G11
  22560140.660    22560142.289    46362036.272 9 -41381198.681 8
  20655928.826    20655931.507    -8698528.402 9   3907669.333 9
  20173569.297    20173569.726    21015993.589 9 -61225176.089 7
  22680337.337    22680338.793    45658737.918 9 -42050900.127 9
 86  6 12  2 11 35.0800000  0  4G 6G13G 9G11
  22564041.287    22564042.159    46382536.011 9 -41365224.877 9
  20655324.212    20655324.499    -8701711.659 9   3905188.880 8
  20174618.977    20174619.832    21021511.432 9 -61220876.469 8
  22683391.442    22683393.650    45674790.659 9 -42038391.499 8
 86  6 12  2 11 41.0800000  0  4G 6G13G 9G11
  22567945.409    22567946.745    46403050.178 9 -41349239.814 9
  20654720.687    20654723.440    -8704876.862 9   3902722.489 8
  20175674.402    20175674.345    21027055.171 8 -61216556.675 8
  22686447.526    22686449.629    45690847.448 9 -42025879.719 9
 86  6 12  2 11 47.0800000  0  4G 6G13G 9G11
  22571851.216    22571853.696    46423578.724 9 -41333243.562 8
  20654122.167    20654123.762    -8708024.099 9   3900270.092 8
  20176733.970    20176734.382    21032624.670 8 -61212216.806 8
  22689503.639    22689505.545    45706908.285 9 -42013364.784 8
 86  6 12  2 11 53.0800000  0  4G 6G13G 9G11
  22575759.858    22575762.496    46444121.652 9 -41317236.105 8
  20653527.570    20653527.771    -8711153.368 9   3897831.712 9
  20177798.459    20177798.293    21038220.108 9 -61207856.729 8
  22692561.199    22692561.794    45722973.238 9 -42000846.639 9
 86  6 12  2 11 59.0800000  0  4G 6G13G 9G11
  22579673.194    22579674.485    46464678.834 9 -41301217.529 8
  20652934.826    20652936.932    -8714264.742 9   3895407.266 9
  20178867.985    20178868.666    21043841.243 8 -61203476.620 8
  22695618.875    22695619.446    45739042.129 9 -41988325.429 9
 86  6 12  2 12  5.0800000  0  4G 6G13G 9G11
  22583586.697    22583589.992    46485250.379 9 -41285187.770 8
  20652345.553    20652348.477    -8717358.100 9   3892996.848 8
  20179942.970    20179943.997    21049488.176 8 -61199076.412 7
  22698676.555    22698679.839    45755115.031 9 -41975801.096 9
 86  6 12  2 12 11.0800000  0  4G 6G13G 9G11
  22587503.697    22587507.391    46505836.155 9 -41269146.925 9
  20651760.546    20651763.161    -8720433.561 9   3890600.398 9
  20181021.585    20181022.120    21055160.889 8 -61194656.131 8
  22701736.063    22701739.408    45771191.900 9 -41963273.672 9
 86  6 12  2 12 17.0800000  0  4G 6G13G 9G11
  22591423.784    22591426.725    46526436.259 9 -41253094.909 9
  20651178.509    20651181.587    -8723491.073 9   3888217.922 8
  20182107.089    20182107.346    21060859.476 8 -61190215.673 8
  22704796.497    22704798.223    45787272.758 9 -41950743.136 9
 86  6 12  2 12 23.0800000  0  4G 6G13G 9G11
  22595346.735    22595349.172    46547050.598 9 -41237031.799 9
  20650600.530    20650601.928    -8726530.674 9   3885849.396 8
  20183196.204    20183196.104    21066583.895 8 -61185755.091 8
  22707857.234    22707859.749    45803357.529 9 -41938209.557 8
 86  6 12  2 12 29.0800000  0  4G 6G13G 9G11
  22599272.916    22599274.758    46567679.199 9 -41220957.575 8
  20650025.836    20650028.220    -8729552.380 9   3883494.829 9
  20184290.694    20184291.164    21072334.119 9 -61181274.401 8
  22710919.185    22710921.751    45819446.205 9 -41925672.922 9
 86  6 12  2 12 35.0800000  0  4G 6G13G 9G11
  22603201.536    22603203.774    46588321.990 9 -41204872.307 9
  20649454.366    20649455.522    -8732556.168 8   3881154.219 9
  20185389.775    20185389.498    21078110.184 8 -61176773.561 8
  22713980.670    22713981.930    45835538.839 9 -41913133.208 8
 86  6 12  2 12 41.0800000  0  4G 6G13G 9G11
  22607132.501    22607134.010    46608978.975 9 -41188775.974 8
  20648885.405    20648887.574    -8735542.044 8   3878827.562 9
  20186494.422    20186493.841    21083911.936 9 -61172252.735 9
  22717044.414    22717046.680    45851635.351 9 -41900590.480 9
 86  6 12  2 12 47.0800000  0  4G 6G13G 9G11
  22611065.755    22611067.250    46629650.151 9 -41172668.576 9
  20648320.992    20648323.427    -8738510.007 9   3876514.862 8
  20187602.517    20187603.559    21089739.586 9 -61167711.710 8
  22720107.996    22720110.404    45867735.723 9 -41888044.740 8
 86  6 12  2 12 53.0800000  0  4G 6G13G 9G11
  22615000.899    22615003.993    46650335.497 9 -41156550.136 9
  20647759.746    20647761.493    -8741460.014 9   3874216.164 8
  20188715.741    20188717.031    21095592.971 9 -61163150.630 8
  22723171.748    22723174.725    45883840.002 9 -41875495.951 9
 86  6 12  2 12 59.0800000  0  4G 6G13G 9G11
  22618940.960    22618943.225    46671034.905 9 -41140420.738 8
  20647201.450    20647203.266    -8744392.118 9   3871931.409 9
  20189835.638    20189836.251    21101472.109 8 -61158569.483 8
  22726238.325    22726238.911    45899948.135 9 -41862944.155 9
 86  6 12  2 13  5.0800000  0  4G 6G13G 9G11
  22622881.426    22622883.835    46691748.492 9 -41124280.305 8
  20646647.669    20646648.994    -8747306.435 9   3869660.515 9
  20190959.007    20190959.333    21107377.091 9 -61153968.208 8
  22729304.155    22729306.271    45916060.106 8 -41850389.395 8
 86  6 12  2 13 11.0800000  0  4G 6G13G 9G11
  22626826.556    22626828.062    46712476.131 9 -41108128.894 8
  20646096.182    20646098.266    -8750202.951 9   3867403.488 9
  20192087.301    20192087.790    21113307.823 8 -61149346.857 8
  22732370.711    22732372.604    45932175.875 9 -41837831.655 8
 86  6 12  2 13 17.0800000  0  4G 6G13G 9G11
  22630774.061    22630775.625    46733217.834 9 -41091966.547 8
  20645549.170    20645549.267    -8753081.593 8   3865160.395 9
  20193221.007    20193222.762    21119264.396 8 -61144705.370 7
  22735437.759    22735438.906    45948295.424 8 -41825270.972 9
 86  6 12  2 13 23.0800000  0  4G 6G13G 9G11
  22634723.399    22634725.462    46753973.609 9 -41075793.231 9
  20645003.590    20645005.251    -8755942.476 9   3862931.135 9
  20194358.396    20194359.781    21125246.704 9 -61140043.838 8
  22738506.984    22738508.427    45964418.791 9 -41812707.310 8
 86  6 12  2 13 29.0800000  0  4G 6G13G 9G11
  22638675.878    22638677.945    46774743.437 9 -41059608.958 8
  20644462.664    20644464.924    -8758785.551 9   3860715.761 9
  20195501.787    20195502.576    21131254.790 9 -61135362.212 8
  22741575.952    22741576.670    45980545.928 9 -41800140.716 9
 86  6 12  2 13 35.0800000  0  4G 6G13G 9G11
  22642631.228    22642633.163    46795527.280 9 -41043413.777 8
  20643926.062    20643927.373    -8761610.713 9   3858514.340 8
  20196649.178    20196651.255    21137288.590 9 -61130660.567 8
  22744644.546    22744645.897    45996676.848 9 -41787571.176 8
 86  6 12  2 13 41.0800000  0  4G 6G13G 9G11
  22646588.834    22646590.559    46816325.128 9 -41027207.677 9
  20643390.325    20643392.624    -8764418.068 9   3856326.787 8
  20197803.340    20197803.689    21143348.252 8 -61125938.751 8
  22747714.578    22747717.053    46012811.591 9 -41774998.651 9
 86  6 12  2 13 47.0800000  0  4G 6G13G 9G11
  22650549.103    22650551.060    46837136.973 9 -41010990.665 8
  20642859.417    20642861.477    -8767207.599 9   3854153.124 9
  20198961.372    20198961.498    21149433.738 8 -61121196.814 8
  22750785.903    22750787.850    46028950.094 9 -41762423.203 9
 86  6 12  2 13 53.0800000  0  4G 6G13G 9G11
  22654512.062    22654514.671    46857962.742 9 -40994762.812 9
  20642332.885    20642334.358    -8769979.347 9   3851993.320 9
  20200124.758    20200124.818    21155545.018 8 -61116434.779 8
  22753858.258    22753859.445    46045092.246 9 -41749844.907 9
 86  6 12  2 13 59.0800000  0  4G 6G13G 9G11
  22658477.885    22658480.691    46878802.460 9 -40978524.084 8
  20641807.568    20641809.739    -8772733.312 9   3849847.376 9
  20201290.708    20201293.891    21161681.939 9 -61111652.772 8
  22756930.140    22756931.756    46061238.045 9 -41737263.770 9
 86  6 12  2 14  5.0800000  0  4G 6G13G 9G11
  22662445.820    22662447.933    46899656.103 9 -40962274.509 8
  20641287.345    20641290.216    -8775469.437 9   3847715.333 8
  20202465.238    20202465.326    21167844.769 8 -61106850.567 7
  22760002.935    22760005.657    46077387.488 9 -41724679.792 9
 86  6 12  2 14 11.0800000  0  4G 6G13G 9G11
  22666416.763    22666418.559    46920523.607 9 -40946014.132 8
  20640769.503    20640772.995    -8778187.765 8   3845597.167 9
  20203642.464    20203643.351    21174033.218 8 -61102028.404 7
  22763078.128    22763079.392    46093540.580 9 -41712092.969 8
 86  6 12  2 14 17.0800000  0  4G 6G13G 9G11
  22670390.224    22670393.393    46941405.035 9 -40929742.898 9
  20640256.921    20640258.352    -8780888.318 9   3843492.840 9
  20204824.334    20204826.550    21180247.553 8 -61097186.064 9
  22766151.735    22766154.037    46109697.316 9 -41699503.307 8
 86  6 12  2 14 23.0800000  0  4G 6G13G 9G11
  22674366.666    22674369.492    46962300.314 9 -40913460.883 9
  20639746.167    20639748.093    -8783571.130 9   3841402.327 9
  20206011.851    20206012.987    21186487.573 8 -61092323.717 8
  22769227.155    22769229.470    46125857.697 8 -41686910.810 8
 86  6 12  2 14 29.0800000  0  4G 6G13G 9G11
  22678345.936    22678348.289    46983209.406 8 -40897168.099 9
  20639237.906    20639241.004    -8786236.236 9   3839325.625 9
  20207204.940    20207204.863    21192753.348 8 -61087441.298 8
  22772302.879    22772305.629    46142021.630 9 -41674315.544 8
 86  6 12  2 14 35.0800000  0  4G 6G13G 9G11
  22682327.843    22682329.381    47004132.326 9 -40880864.525 9
  20638734.660    20638737.677    -8788883.595 9   3837262.754 8
  20208401.710    20208403.012    21199044.977 8 -61082538.726 8
  22775379.431    22775381.720    46158189.176 9 -41661717.456 9
 86  6 12  2 14 41.0800000  0  4G 6G13G 9G11
  22686311.289    22686314.376    47025069.115 8 -40864550.171 8
  20638234.205    20638237.210    -8791513.312 9   3835213.638 9
  20209603.365    20209605.391    21205362.336 8 -61077616.126 7
  22778456.477    22778458.756    46174360.384 8 -41649116.524 9
 86  6 12  2 14 47.0800000  0  4G 6G13G 9G11
  22690298.519    22690301.356    47046019.646 8 -40848225.096 8
  20637738.122    20637739.704    -8794125.270 9   3833178.327 8
  20210811.012    20210811.701    21211705.399 8 -61072673.474 8
  22781535.097    22781537.471    46190535.129 9 -41636512.826 9
 86  6 12  2 14 53.0800000  0  4G 6G13G 9G11
  22694287.319    22694289.775    47066983.938 9 -40831889.300 9
  20637244.531    20637245.799    -8796719.523 8   3831156.843 9
  20212022.663    20212024.646    21218074.191 8 -61067710.785 8
  22784613.358    22784615.814    46206713.435 9 -41623906.364 8
 86  6 12  2 14 59.0800000  0  4G 6G13G 9G11
  22698280.471    22698281.839    47087961.957 9 -40815542.805 9
  20636753.192    20636756.352    -8799296.084 9   3829149.130 9
  20213238.623    20213241.242    21224468.759 9 -61062728.003 8
  22787692.580    22787694.803    46222895.299 9 -41611297.125 8
 86  6 12  2 15  5.0800000  0  4G 6G13G 9G11
  22702274.796    22702276.604    47108953.685 9 -40799185.617 9
  20636266.700    20636269.238    -8801855.023 9   3827155.154 9
  20214461.247    20214461.558    21230889.107 8 -61057725.131 7
  22790772.217    22790775.133    46239080.683 9 -41598685.138 8
 86  6 12  2 15 11.0800000  0  4G 6G13G 9G11
  22706271.439    22706274.050    47129959.117 9 -40782817.769 9
  20635782.608    20635785.244    -8804396.297 8   3825174.947 9
  20215687.479    20215688.852    21237335.252 8 -61052702.179 7
  22793853.902    22793855.451    46255269.535 8 -41586070.462 9
 86  6 12  2 15 17.0800000  0  4G 6G13G 9G11
  22710272.519    22710273.152    47150978.217 9 -40766439.265 8
  20635303.109    20635305.566    -8806919.912 9   3823208.489 8
  20216919.892    20216921.160    21243807.039 9 -61047659.225 8
  22796935.199    22796936.769    46271461.892 8 -41573453.037 8
 86  6 12  2 15 23.0800000  0  4G 6G13G 9G11
  22714274.512    22714275.874    47172010.979 9 -40750050.115 9
  20634826.577    20634828.473    -8809425.858 9   3821255.806 9
  20218156.510    20218156.049    21250304.541 9 -61042596.245 8
  22800016.319    22800019.228    46287657.702 9 -41560832.929 9
 86  6 12  2 15 29.0800000  0  4G 6G13G 9G11
  22718278.740    22718280.876    47193057.365 9 -40733650.341 8
  20634352.827    20634354.451    -8811914.165 9   3819316.864 9
  20219396.235    20219398.419    21256827.654 9 -61037513.302 8
  22803100.067    22803102.330    46303856.925 9 -41548210.162 9
 86  6 12  2 15 35.0800000  0  4G 6G13G 9G11
  22722286.456    22722288.639    47214117.420 9 -40717239.933 9
  20633882.534    20633885.117    -8814384.830 9   3817391.676 9
  20220643.613    20220644.040    21263376.632 9 -61032410.194 7
  22806182.093    22806184.928    46320059.677 9 -41535584.639 8
 86  6 12  2 15 41.0800000  0  4G 6G13G 9G11
  22726296.751    22726299.033    47235191.025 9 -40700818.947 8
  20633415.756    20633417.508    -8816837.938 9   3815480.165 9
  20221894.337    20221895.997    21269951.347 8 -61027287.054 7
  22809265.971    22809268.078    46336265.834 9 -41522956.468 8
 86  6 12  2 15 47.0800000  0  4G 6G13G 9G11
  22730308.817    22730312.243    47256278.196 9 -40684387.405 8
  20632952.228    20632954.149    -8819273.410 9   3813582.392 9
  20223150.124    20223152.779    21276551.796 8 -61022143.839 7
  22812350.726    22812353.017    46352475.395 9 -41510325.652 8
 86  6 12  2 15 53.0800000  0  4G 6G13G 9G11
  22734324.090    22734326.216    47277379.009 9 -40667945.228 9
  20632492.627    20632494.067    -8821691.204 9   3811698.405 8
  20224411.702    20224413.276    21283177.991 8 -61016980.577 8
  22815436.258    22815438.406    46368688.347 9 -41497692.180 9
 86  6 12  2 15 59.0800000  0  4G 6G13G 9G11
  22738342.686    22738344.719    47298493.330 9 -40651492.518 9
  20632035.608    20632037.723    -8824091.361 9   3809828.148 9
  20225676.586    20225678.459    21289829.868 8 -61011797.297 9
  22818521.484    22818524.657    46384904.685 8 -41485056.083 9
 86  6 12  2 16  5.0800000  0  4G 6G13G 9G11
  22742362.766    22742364.992    47319621.155 9 -40635029.296 9
  20631582.330    20631583.368    -8826473.977 9   3807971.565 9
  20226948.813    20226949.397    21296507.426 8 -61006594.013 8
  22821608.490    22821611.169    46401124.353 9 -41472417.380 8
 86  6 12  2 16 11.0800000  0  4G 6G13G 9G11
  22746386.853    22746388.203    47340762.507 9 -40618555.531 8
  20631132.053    20631133.164    -8828839.031 9   3806128.663 9
  20228223.645    20228224.758    21303210.750 8 -61001370.633 8
  22824695.055    22824698.210    46417347.364 8 -41459776.079 8
 86  6 12  2 16 17.0800000  0  4G 6G13G 9G11
  22750411.456    22750414.393    47361917.316 9 -40602071.277 9
  20630685.356    20630686.934    -8831186.575 9   3804299.417 9
  20229503.989    20229505.403    21309939.760 7 -60996127.262 7
  22827783.421    22827785.671    46433573.698 9 -41447132.190 9
 86  6 12  2 16 23.0800000  0  4G 6G13G 9G11
  22754438.583    22754442.347    47383085.646 9 -40585576.484 9
  20630242.031    20630244.297    -8833516.525 9   3802483.873 9
  20230788.891    20230791.272    21316694.491 8 -60990863.841 8
  22830871.035    22830874.320    46449803.404 9 -41434485.666 8
 86  6 12  2 16 29.0800000  0  4G 6G13G 9G11
  22758470.736    22758472.648    47404267.344 9 -40569071.282 9
  20629801.763    20629803.439    -8835828.948 9   3800681.982 9
  20232080.648    20232080.370    21323474.807 8 -60985580.478 7
  22833960.580    22833962.408    46466036.414 9 -41421836.572 9
 86  6 12  2 16 35.0800000  0  4G 6G13G 9G11
  22762504.068    22762507.393    47425462.452 9 -40552555.636 8
  20629364.736    20629367.005    -8838123.853 9   3798893.746 9
  20233374.763    20233375.169    21330280.758 8 -60980277.139 7
  22837051.214    22837052.673    46482272.730 9 -41409184.897 9
 86  6 12  2 16 41.0800000  0  4G 6G13G 9G11
  22766539.259    22766542.040    47446671.036 9 -40536029.473 8
  20628931.785    20628933.669    -8840401.231 9   3797119.166 9
  20234674.032    20234675.617    21337112.515 7 -60974953.702 7
  22840139.549    22840142.593    46498512.296 8 -41396530.693 9
 86  6 12  2 16 47.0800000  0  4G 6G13G 9G11
  22770578.541    22770580.800    47467892.954 9 -40519492.932 8
  20628501.555    20628503.874    -8842661.056 9   3795358.271 9
  20235979.648    20235980.696    21343969.913 7 -60969610.276 8
  22843231.625    22843234.345    46514755.110 9 -41383873.953 9
 86  6 12  2 16 53.0800000  0  4G 6G13G 9G11
  22774619.171    22774622.227    47489128.186 9 -40502946.013 9
  20628074.732    20628076.295    -8844903.380 9   3793611.008 9
  20237290.390    20237290.685    21350852.973 8 -60964246.853 8
  22846323.722    22846325.360    46531001.161 8 -41371214.703 9
 86  6 12  2 16 59.0800000  0  4G 6G13G 9G11
  22778662.777    22778666.318    47510376.789 9 -40486388.676 9
  20627651.820    20627653.830    -8847128.167 9   3791877.401 9
  20238604.424    20238606.673    21357761.772 8 -60958863.380 7
  22849414.226    22849417.875    46547250.453 9 -41358552.927 9
 86  6 12  2 17  5.0800000  0  4G 6G13G 9G11
  22782709.076    22782711.140    47531638.706 8 -40469820.961 9
  20627231.074    20627234.227    -8849335.396 9   3790157.488 9
  20239924.080    20239925.328    21364696.333 7 -60953459.819 7
  22852508.030    22852510.232    46563502.978 8 -41345888.621 8
 86  6 12  2 17 11.0800000  0  4G 6G13G 9G11
  22786757.186    22786760.145    47552913.961 9 -40453242.863 8
  20626814.655    20626817.355    -8851525.178 9   3788451.165 8
  20241248.702    20241249.731    21371656.474 9 -60948036.347 8
  22855601.805    22855604.318    46579758.720 8 -41333221.815 9
 86  6 12  2 17 17.0800000  0  4G 6G13G 9G11
  22790808.287    22790810.093    47574202.490 9 -40436654.402 9
  20626401.464    20626403.423    -8853697.476 9   3786758.463 9
  20242579.114    20242578.968    21378642.313 8 -60942592.840 8
  22858694.497    22858698.341    46596017.623 9 -41320552.543 9
 86  6 12  2 17 23.0800000  0  4G 6G13G 9G11
  22794862.210    22794865.037    47595504.281 9 -40420055.623 9
  20625991.689    20625993.718    -8855852.295 9   3785079.389 9
  20243911.668    20243913.698    21385653.821 8 -60937129.326 8
  22861790.452    22861791.880    46612279.712 9 -41307880.794 9
 86  6 12  2 17 29.0800000  0  4G 6G13G 9G11
  22798918.265    22798920.222    47616819.340 9 -40403446.503 9
  20625585.099    20625586.033    -8857989.667 9   3783413.903 9
  20245250.472    20245252.166    21392690.982 8 -60931645.821 8
  22864885.385    22864887.778    46628544.969 9 -41295206.562 9
 86  6 12  2 17 35.0800000  0  4G 6G13G 9G11
  22802977.156    22802979.150    47638147.634 9 -40386827.063 8
  20625181.314    20625182.722    -8860109.611 9   3781762.000 9
  20246595.498    20246596.808    21399753.778 8 -60926142.350 8
  22867981.064    22867982.812    46644813.391 9 -41282529.869 9
 86  6 12  2 17 41.0800000  0  4G 6G13G 9G11
  22807037.377    22807040.025    47659489.038 9 -40370197.418 8
  20624780.845    20624783.128    -8862212.164 9   3780123.656 9
  20247945.030    20247944.713    21406842.248 8 -60920618.870 8
  22871076.377    22871079.907    46661084.882 9 -41269850.785 9
 86  6 12  2 17 47.0800000  0  4G 6G13G 9G11
  22811102.044    22811103.686    47680843.658 9 -40353557.462 8
  20624385.822    20624386.820    -8864297.265 9   3778498.893 8
  20249298.505    20249299.064    21413956.405 7 -60915075.377 8
  22874174.840    22874177.226    46677359.484 9 -41257169.289 9
 86  6 12  2 17 53.0800000  0  4G 6G13G 9G11
  22815167.838    22815170.021    47702211.452 8 -40336907.252 8
  20623990.254    20623993.402    -8866364.965 9   3776887.696 9
  20250657.478    20250658.167    21421096.126 7 -60909511.961 7
  22877272.202    22877274.270    46693637.192 9 -41244485.372 9
 86  6 12  2 17 59.0800000  0  4G 6G13G 9G11
  22819237.049    22819238.251    47723592.423 9 -40320246.760 9
  20623600.948    20623602.913    -8868415.305 9   3775290.034 9
  20252019.365    20252021.387    21428261.571 7 -60903928.498 8
  22880370.787    22880372.089    46709917.938 9 -41231799.067 9
 86  6 12  2 18  5.0800000  0  4G 6G13G 9G11
  22823306.752    22823310.481    47744986.431 9 -40303576.124 9
  20623213.591    20623215.768    -8870448.311 9   3773705.880 9
  20253389.015    20253390.114    21435452.572 7 -60898325.117 7
  22883468.618    22883471.429    46726201.742 9 -41219110.402 8
 86  6 12  2 18 11.0800000  0  4G 6G13G 9G11
  22827381.378    22827384.691    47766393.502 9 -40286895.297 8
  20622829.962    20622832.642    -8872463.937 8   3772135.259 9
  20254762.352    20254762.579    21442669.159 7 -60892701.823 8
  22886567.818    22886569.877    46742488.599 9 -41206419.342 8
 86  6 12  2 18 17.0800000  0  4G 6G13G 9G11
  22831457.731    22831459.635    47787813.711 9 -40270204.257 8
  20622450.273    20622451.710    -8874462.258 8   3770578.121 9
  20256140.755    20256141.570    21449911.445 8 -60887058.476 7
  22889667.568    22889670.502    46758778.545 9 -41193725.884 9
 86  6 12  2 18 23.0800000  0  4G 6G13G 9G11
  22835536.132    22835538.069    47809246.926 9 -40253503.053 8
  20622072.595    20622076.040    -8876443.219 9   3769034.521 8
  20257523.451    20257524.038    21457179.341 8 -60881395.181 8
  22892768.820    22892770.350    46775071.454 9 -41181030.117 9
 86  6 12  2 18 29.0800000  0  4G 6G13G 9G11
  22839617.568    22839618.352    47830693.220 9 -40236791.674 9
  20621699.145    20621701.307    -8878406.760 9   3767504.484 9
  20258911.155    20258911.561    21464472.908 8 -60875711.896 8
  22895869.323    22895871.501    46791367.394 9 -41168331.985 9
 86  6 12  2 18 35.0800000  0  4G 6G13G 9G11
  22843699.918    22843703.100    47852152.539 9 -40220070.134 8
  20621327.832    20621331.552    -8880352.960 9   3765987.965 8
  20260302.756    20260305.728    21471791.998 8 -60870008.713 7
  22898970.893    22898973.836    46807666.353 9 -41155631.506 9
 86  6 12  2 18 41.0800000  0  4G 6G13G 9G11
  22847786.586    22847788.563    47873624.841 9 -40203338.491 8
  20620961.974    20620963.937    -8882281.806 9   3764484.972 9
  20261701.332    20261701.487    21479136.703 8 -60864285.558 8
  22902073.422    22902075.909    46823968.262 9 -41142928.722 9
 86  6 12  2 18 47.0800000  0  4G 6G13G 9G11
  22851875.317    22851878.228    47895110.058 8 -40186596.777 8
  20620597.462    20620600.295    -8884193.445 9   3762995.383 9
  20263103.635    20263106.037    21486507.004 8 -60858542.478 7
  22905176.667    22905178.206    46840273.048 8 -41130223.701 9
 86  6 12  2 18 53.0800000  0  4G 6G13G 9G11
  22855966.201    22855969.095    47916608.269 9 -40169844.953 9
  20620237.025    20620239.981    -8886087.692 9   3761519.345 9
  20264511.658    20264511.672    21493902.982 9 -60852779.365 8
  22908279.530    22908281.348    46856580.817 9 -41117516.337 9
 86  6 12  2 18 59.0800000  0  4G 6G13G 9G11
  22860059.818    22860062.508    47938119.454 9 -40153082.997 8
  20619880.248    20619882.546    -8887964.657 9   3760056.782 9
  20265924.547    20265925.745    21501324.486 8 -60846996.384 8
  22911382.769    22911385.623    46872891.486 9 -41104806.740 9
 86  6 12  2 19  5.0800000  0  4G 6G13G 9G11
  22864156.042    22864158.154    47959643.526 9 -40136310.997 8
  20619526.296    20619529.171    -8889824.370 9   3758607.652 9
  20267341.672    20267342.769    21508771.527 7 -60841193.493 8
  22914489.128    22914489.184    46889205.092 8 -41092094.838 9
 86  6 12  2 19 11.0800000  0  4G 6G13G 9G11
  22868254.191    22868256.386    47981180.493 9 -40119528.979 8
  20619175.724    20619177.909    -8891666.834 9   3757171.973 9
  20268762.431    20268764.646    21516244.199 8 -60835370.635 7
  22917592.376    22917594.782    46905521.608 9 -41079380.682 9
 86  6 12  2 19 17.0800000  0  4G 6G13G 9G11
  22872354.937    22872358.517    48002730.267 9 -40102736.955 8
  20618828.408    20618830.208    -8893492.035 9   3755749.734 9
  20270189.229    20270191.516    21523742.435 8 -60829527.866 7
  22920698.147    22920700.595    46921840.968 9 -41066664.296 9
 86  6 12  2 19 23.0800000  0  4G 6G13G 9G11
  22876457.955    22876459.663    48024292.923 8 -40085934.895 8
  20618484.519    20618485.986    -8895299.894 9   3754341.017 8
  20271622.320    20271621.631    21531266.226 8 -60823665.173 9
  22923804.607    22923806.301    46938163.170 9 -41053945.700 9
 86  6 12  2 19 29.0800000  0  4G 6G13G 9G11
  22880562.993    22880566.390    48045868.374 9 -40069122.877 8
  20618144.041    20618145.423    -8897090.537 8   3752945.719 9
  20273058.103    20273059.146    21538815.553 8 -60817782.580 8
  22926909.889    22926912.899    46954488.203 9 -41041224.894 9
 86  6 12  2 19 35.0800000  0  4G 6G13G 9G11
  22884671.383    22884674.817    48067456.651 9 -40052300.853 9
  20617806.076    20617808.938    -8898863.985 9   3751563.809 9
  20274499.156    20274501.796    21546390.420 8 -60811880.102 7
  22930018.221    22930020.856    46970816.079 9 -41028501.883 9
 86  6 12  2 19 41.0800000  0  4G 6G13G 9G11
  22888781.400    22888785.327    48089057.688 9 -40035468.900 7
  20617471.928    20617474.528    -8900620.215 9   3750195.315 9
  20275945.871    20275946.739    21553990.870 7 -60805957.672 7
  22933125.493    22933127.674    46987146.837 9 -41015776.624 9
 86  6 12  2 19 47.0800000  0  4G 6G13G 9G11
  22892895.582    22892897.548    48110671.555 9 -40018626.938 8
  20617141.140    20617143.868    -8902359.224 9   3748840.244 9
  20277397.396    20277397.636    21561616.895 7 -60800015.315 8
  22936232.999    22936235.494    47003480.412 9 -41003049.167 8
 86  6 12  2 19 53.0800000  0  4G 6G13G 9G11
  22897010.359    22897014.217    48132298.148 9 -40001775.063 9
  20616812.896    20616816.686    -8904081.076 9   3747498.542 9
  20278853.379    20278854.915    21569268.457 9 -60794053.059 8
  22939341.620    22939343.676    47019816.719 9 -40990319.583 9
 86  6 12  2 19 59.0800000  0  4G 6G13G 9G11
  22901128.860    22901131.830    48153937.454 9 -39984913.289 9
  20616488.679    20616492.149    -8905785.713 9   3746170.258 8
  20280314.550    20280314.578    21576945.579 8 -60788070.905 8
  22942451.824    22942453.954    47036155.784 8 -40977587.844 9
 86  6 12  2 20  5.0800000  0  4G 6G13G 9G11
  22905248.568    22905251.218    48175589.457 9 -39968041.610 9
  20616168.734    20616170.322    -8907473.207 9   3744855.331 9
  20281780.527    20281780.913    21584648.205 8 -60782068.856 8
  22945560.769    22945563.030    47052497.629 9 -40964853.952 9
 86  6 12  2 20 11.0800000  0  4G 6G13G 9G11
  22909371.504    22909374.033    48197254.204 9 -39951159.999 9
  20615849.695    20615852.361    -8909143.464 9   3743553.831 9
  20283251.110    20283251.010    21592376.444 8 -60776046.856 8
  22948671.541    22948673.874    47068842.270 9 -40952117.861 8
 86  6 12  2 20 17.0800000  0  4G 6G13G 9G11
  22913496.515    22913499.603    48218931.609 8 -39934268.529 8
  20615534.783    20615538.008    -8910796.594 9   3742265.685 9
  20284725.727    20284726.034    21600130.155 8 -60770005.005 8
  22951781.883    22951784.371    47085189.666 8 -40939379.635 9
 86  6 12  2 20 23.0800000  0  4G 6G13G 9G11
  22917624.468    22917627.038    48240621.654 9 -39917367.217 8
  20615224.750    20615225.622    -8912432.564 8   3740990.900 9
  20286206.816    20286206.885    21607909.436 8 -60763943.230 8
  22954892.914    22954895.310    47101539.814 9 -40926639.267 8
 86  6 12  2 20 29.0800000  0  4G 6G13G 9G11
  22921754.499    22921757.225    48262324.298 9 -39900456.077 9
  20614915.560    20614918.522    -8914051.444 9   3739729.434 9
  20287691.992    20287691.803    21615714.170 8 -60757861.628 7
  22958005.572    22958007.947    47117892.571 8 -40913896.859 9
 86  6 12  2 20 35.0800000  0  4G 6G13G 9G11
  22925885.886    22925889.131    48284039.541 9 -39883535.124 9
  20614611.363    20614613.846    -8915653.147 9   3738481.364 9
  20289182.523    20289182.876    21623544.457 9 -60751760.101 8
  22961117.574    22961120.649    47134248.049 7 -40901152.341 9
 86  6 12  2 20 41.0800000  0  4G 6G13G 9G11
  22930020.844    22930023.223    48305767.355 9 -39866604.379 8
  20614308.428    20614311.750    -8917237.669 9   3737246.677 9
  20290677.263    20290677.748    21631400.207 8 -60745638.749 9
  22964230.177    22964233.260    47150606.240 9 -40888405.708 9
 86  6 12  2 20 47.0800000  0  4G 6G13G 9G11
  22934157.532    22934161.098    48327507.703 9 -39849663.861 8
  20614011.386    20614013.555    -8918805.107 9   3736025.284 9
  20292177.719    20292177.840    21639281.446 8 -60739497.526 8
  22967343.241    22967346.139    47166967.074 9 -40875657.011 9
 86  6 12  2 20 53.0800000  0  4G 6G13G 9G11
  22938297.070    22938300.180    48349260.650 9 -39832713.533 8
  20613716.180    20613718.533    -8920355.458 9   3734817.220 9
  20293681.134    20293681.277    21647188.250 7 -60733336.392 8
  22970457.044    22970460.977    47183330.543 9 -40862906.257 9
 86  6 12  2 20 59.0800000  0  4G 6G13G 9G11
  22942439.349    22942441.775    48371026.100 9 -39815753.443 9
  20613425.285    20613428.048    -8921888.747 9   3733622.450 9
  20295189.575    20295191.980    21655120.436 9 -60727155.452 8
  22973571.577    22973575.268    47199696.592 9 -40850153.502 9
 86  6 12  2 21  5.0800000  0  4G 6G13G 9G11
  22946583.706    22946586.176    48392804.029 9 -39798783.653 8
  20613136.416    20613138.839    -8923404.966 9   3732440.991 9
  20296705.519    20296705.676    21663078.137 8 -60720954.654 8
  22976686.387    22976689.071    47216065.293 8 -40837398.667 8
 86  6 12  2 21 11.0800000  0  4G 6G13G 9G11
  22950730.215    22950732.785    48414594.452 9 -39781804.117 7
  20612850.551    20612853.137    -8924904.138 8   3731272.803 9
  20298223.955    20298225.142    21671061.343 8 -60714733.984 7
  22979802.582    22979804.075    47232436.564 9 -40824641.843 9
 86  6 12  2 21 17.0800000  0  4G 6G13G 9G11
  22954879.025    22954881.998    48436397.319 9 -39764814.887 8
  20612568.071    20612571.409    -8926386.328 9   3730117.855 9
  20299748.028    20299749.098    21679070.096 8 -60708493.391 8
  22982917.873    22982920.328    47248810.411 9 -40811883.000 8
 86  6 12  2 21 23.0800000  0  4G 6G13G 9G11
  22959030.577    22959032.689    48458212.655 9 -39747815.937 8
  20612290.952    20612291.632    -8927851.452 9   3728976.200 9
  20301276.620    20301278.977    21687104.129 8 -60702233.114 8
  22986034.067    22986037.588    47265186.818 8 -40799122.170 9
 86  6 12  2 21 29.0800000  0  4G 6G13G 9G11
  22963184.707    22963185.674    48480040.413 9 -39730807.308 9
  20612014.639    20612016.751    -8929299.571 9   3727847.801 8
  20302811.305    20302812.688    21695163.829 8 -60695952.835 7
  22989150.562    22989153.987    47281565.836 9 -40786359.303 9
 86  6 12  2 21 35.0800000  0  4G 6G13G 9G11
  22967339.407    22967343.096    48501880.609 9 -39713788.987 8
  20611741.937    20611745.338    -8930730.622 9   3726732.695 9
  20304347.999    20304350.855    21703248.913 9 -60689652.788 9
  22992267.887    22992271.213    47297947.434 9 -40773594.425 8
 86  6 12  2 21 41.0800000  0  4G 6G13G 9G11
  22971498.287    22971500.328    48523733.214 9 -39696760.999 8
  20611472.814    20611475.247    -8932144.547 8   3725630.930 9
  20305892.591    20305893.047    21711359.542 8 -60683332.806 8
  22995386.820    22995388.467    47314331.554 8 -40760827.592 9
 86  6 12  2 21 47.0800000  0  4G 6G13G 9G11
  22975660.280    22975662.151    48545598.058 9 -39679723.472 9
  20611208.099    20611210.138    -8933541.583 9   3724542.335 9
  20307440.302    20307442.027    21719495.509 8 -60676993.092 7
  22998504.052    22998506.288    47330718.119 8 -40748058.835 9
 86  6 12  2 21 53.0800000  0  4G 6G13G 9G11
  22979822.675    22979825.868    48567475.346 9 -39662676.250 8
  20610944.786    20610947.924    -8934921.546 8   3723467.038 9
  20308994.882    20308995.149    21727656.886 8 -60670633.587 7
  23001623.487    23001626.226    47347107.259 9 -40735288.084 9
 86  6 12  2 21 59.0800000  0  4G 6G13G 9G11
  22983988.046    22983990.083    48589364.820 9 -39645619.532 9
  20610684.448    20610687.345    -8936284.568 8   3722404.955 9
  20310552.030    20310552.974    21735843.682 8 -60664254.270 7
  23004741.650    23004744.631    47363498.806 9 -40722515.456 9
 86  6 12  2 22  5.0800000  0  4G 6G13G 9G11
  22988155.527    22988158.660    48611266.570 9 -39628553.247 8
  20610429.195    20610431.713    -8937630.527 9   3721356.152 9
  20312113.539    20312115.628    21744055.910 8 -60657855.148 8
  23007862.081    23007864.188    47379892.885 8 -40709740.865 8
 86  6 12  2 22 11.0800000  0  4G 6G13G 9G11
  22992326.305    22992328.239    48633180.628 9 -39611477.372 9
  20610176.455    20610178.044    -8938959.561 9   3720320.527 9
  20313682.057    20313682.594    21752293.550 8 -60651436.202 7
  23010983.004    23010984.992    47396289.436 8 -40696964.327 8
 86  6 12  2 22 17.0800000  0  4G 6G13G 9G11
  22996498.673    22996502.001    48655106.900 9 -39594391.980 7
  20609925.919    20609928.406    -8940271.667 9   3719298.117 8
  20315255.144    20315255.577    21760556.478 9 -60644997.571 8
  23014101.331    23014105.616    47412688.396 9 -40684185.920 9
 86  6 12  2 22 23.0800000  0  4G 6G13G 9G11
  23000674.273    23000676.187    48677045.412 8 -39577297.041 8
  20609679.050    20609682.300    -8941566.852 9   3718288.886 9
  20316831.021    20316832.103    21768844.971 8 -60638538.999 8
  23017223.123    23017225.914    47429089.775 8 -40671405.634 9
 86  6 12  2 22 29.0800000  0  4G 6G13G 9G11
  23004850.139    23004852.033    48698996.075 9 -39560192.653 9
  20609435.726    20609439.574    -8942845.245 9   3717292.736 8
  20318413.157    20318413.255    21777158.696 8 -60632060.783 8
  23020344.473    23020347.849    47445493.480 8 -40658623.523 9
 86  6 12  2 22 35.0800000  0  4G 6G13G 9G11
  23009029.808    23009031.376    48720959.052 9 -39543078.670 8
  20609196.532    20609198.759    -8944106.616 9   3716309.848 9
  20320000.273    20320000.947    21785497.974 8 -60625562.657 8
  23023467.507    23023469.875    47461899.663 9 -40645839.488 9
 86  6 12  2 22 41.0800000  0  4G 6G13G 9G11
  23013212.039    23013213.192    48742934.208 9 -39525955.168 8
  20608960.335    20608961.955    -8945351.076 8   3715340.142 9
  20321591.854    20321592.530    21793862.721 7 -60619044.668 8
  23026589.190    23026592.479    47478308.187 7 -40633053.621 9
 86  6 12  2 22 47.0800000  0  4G 6G13G 9G11
  23017395.977    23017397.051    48764921.503 9 -39508822.232 9
  20608726.613    20608728.363    -8946578.626 9   3714383.605 9
  20323189.393    20323191.023    21802252.819 8 -60612506.934 7
  23029712.046    23029714.699    47494719.096 8 -40620265.914 8
 86  6 12  2 22 53.0800000  0  4G 6G13G 9G11
  23021582.524    23021584.854    48786920.941 9 -39491679.828 9
  20608494.841    20608499.191    -8947789.237 9   3713440.277 9
  20324790.872    20324790.129    21810668.268 8 -60605949.447 9
  23032835.717    23032838.136    47511132.388 8 -40607476.338 9
 86  6 12  2 22 59.0800000  0  4G 6G13G 9G11
  23025771.228    23025773.457    48808932.464 8 -39474528.006 8
  20608268.320    20608271.245    -8948982.997 8   3712510.071 9
  20326395.310    20326397.310    21819109.048 8 -60599372.222 8
  23035959.608    23035962.576    47527548.038 8 -40594684.934 9
 86  6 12  2 23  5.0800000  0  4G 6G13G 9G11
  23029960.957    23029963.544    48830955.995 9 -39457366.826 8
  20608044.243    20608047.650    -8950159.956 9   3711592.966 9
  20328006.465    20328009.204    21827575.136 8 -60592775.265 7
  23039083.919    23039086.337    47543966.007 9 -40581891.718 9
 86  6 12  2 23 11.0800000  0  4G 6G13G 9G11
  23034154.809    23034156.698    48852991.612 9 -39440196.224 8
  20607823.885    20607826.445    -8951320.062 9   3710688.990 9
  20329622.827    20329623.241    21836066.649 8 -60586158.505 9
  23042208.620    23042211.463    47560386.277 7 -40569096.704 9
 86  6 12  2 23 17.0800000  0  4G 6G13G 9G11
  23038350.602    23038352.972    48875039.219 9 -39423016.285 9
  20607605.966    20607609.110    -8952463.337 9   3709798.120 8
  20331243.887    20331244.726    21844583.453 9 -60579522.051 8
  23045333.461    23045336.840    47576808.844 8 -40556299.905 8
 86  6 12  2 23 23.0800000  0  4G 6G13G 9G11
  23042548.587    23042550.127    48897098.818 9 -39405827.019 9
  20607392.146    20607393.796    -8953589.844 8   3708920.321 9
  20332869.271    20332870.664    21853125.521 8 -60572865.890 7
  23048460.257    23048461.757    47593233.680 8 -40543501.342 9
 86  6 12  2 23 29.0800000  0  4G 6G13G 9G11
  23046747.760    23046750.676    48919170.368 9 -39388628.423 8
  20607180.428    20607183.137    -8954699.620 8   3708055.563 9
  20334499.715    20334500.588    21861692.802 8 -60566190.088 7
  23051585.715    23051587.442    47609660.749 9 -40530701.032 8
 86  6 12  2 23 35.0800000  0  4G 6G13G 9G11
  23050950.719    23050952.089    48941253.906 9 -39371420.479 9
  20606973.269    20606974.775    -8955792.614 8   3707203.882 8
  20336135.024    20336135.570    21870285.478 8 -60559494.504 8
  23054711.094    23054713.230    47626090.159 9 -40517898.897 8
 86  6 12  2 23 41.0800000  0  4G 6G13G 9G11
  23055155.051    23055157.790    48963349.341 9 -39354203.274 9
  20606767.628    20606770.091    -8956868.838 9   3706365.267 9
  20337774.800    20337774.159    21878903.487 8 -60552779.173 8
  23057838.922    23057841.010    47642521.762 9 -40505095.051 9
 86  6 12  2 23 47.0800000  0  4G 6G13G 9G11
  23059362.584    23059365.236    48985456.733 9 -39336976.755 9
  20606565.709    20606568.663    -8957928.293 8   3705539.719 9
  20339418.757    20339420.141    21887546.745 8 -60546044.176 7
  23060965.882    23060968.269    47658955.567 8 -40492289.506 8
 86  6 12  2 23 53.0800000  0  4G 6G13G 9G11
  23063571.538    23063572.963    49007576.036 8 -39319740.946 9
  20606368.010    20606370.223    -8958970.987 9   3704727.232 9
  20341069.231    20341070.405    21896215.330 8 -60539289.431 7
  23064093.348    23064096.779    47675391.541 9 -40479482.253 8
 86  6 12  2 23 59.0800000  0  4G 6G13G 9G11
  23067782.759    23067785.990    49029707.216 9 -39302495.882 8
  20606173.276    20606175.802    -8959996.856 9   3703927.863 9
  20342723.718    20342724.674    21904909.220 8 -60532514.982 8
  23067221.806    23067223.701    47691829.684 9 -40466673.309 8
 86  6 12  2 24  5.0800000  0  3G13G 9G11
  20605981.172    20605983.548    -8961005.929 9   3703141.573 9
  20344382.900    20344383.342    21913628.567 8 -60525720.698 8
  23070349.631    23070352.027    47708270.135 9 -40453862.571 8
 86  6 12  2 24 11.0800000  0  3G13G 9G11
  20605790.601    20605795.051    -8961998.181 8   3702368.383 8
  20346046.223    20346047.639    21922373.117 8 -60518906.762 7
  23073478.619    23073481.675    47724712.770 8 -40441050.143 9
 86  6 12  2 24 17.0800000  0  3G13G 9G11
  20605605.501    20605608.955    -8962973.696 8   3701608.251 8
  20347715.981    20347716.358    21931142.944 8 -60512073.133 8
  23076608.320    23076610.297    47741157.600 8 -40428235.987 8
 86  6 12  2 24 23.0800000  0  3G13G 9G11
  20605424.092    20605426.782    -8963932.598 9   3700861.054 9
  20349389.183    20349389.902    21939938.006 7 -60505219.841 8
  23079738.133    23079740.384    47757604.524 8 -40415420.209 8
 86  6 12  2 24 29.0800000  0  4G12G13G 9G11
                  22009768.397   -26730464.552 9
  20605244.924    20605247.207    -8964874.774 9   3700126.888 8
  20351067.995    20351068.227    21948758.329 8 -60498346.867 7
  23082868.600    23082871.158    47774053.611 9 -40402602.741 8
 86  6 12  2 24 35.0800000  0  4G12G13G 9G11
                  22006816.574   -26745977.059 9
  20605068.048    20605070.391    -8965800.205 8   3699405.786 8
  20352750.926    20352752.359    21957603.979 8 -60491454.161 8
  23085998.478    23086000.664    47790504.819 9 -40389783.626 8
 86  6 12  2 24 41.0800000  0  4G12G13G 9G11
                  22003893.583   -26761474.418 9
  20604896.387    20604898.458    -8966708.996 8   3698697.628 9
  20354438.236    20354439.966    21966474.828 8 -60484541.807 7
  23089129.166    23089131.972    47806958.067 9 -40376962.917 8
 86  6 12  2 24 47.0800000  0  4G12G13G 9G11
  22000946.087    22000950.180   -26776957.253 9  34085817.353 7
  20604725.503    20604728.305    -8967601.133 9   3698002.458 9
  20356132.043    20356132.646    21975370.825 8 -60477609.869 8
  23092261.068    23092263.714    47823413.407 9 -40364140.575 9
 86  6 12  2 24 53.0800000  0  4G12G13G 9G11
  21998003.112    21998005.205   -26792425.190 9  34073764.405 9
  20604559.288    20604561.379    -8968476.709 8   3697320.200 9
  20357829.454    20357830.158    21984292.022 7 -60470658.293 8
  23095392.646    23095395.959    47839870.860 9 -40351316.591 8
 86  6 12  2 24 59.0800000  0  4G12G13G 9G11
  21995063.165    21995063.779   -26807878.229 9  34061723.072 9
  20604395.616    20604398.329    -8969335.777 8   3696650.797 9
  20359530.365    20359533.252    21993238.380 7 -60463687.117 8
  23098525.353    23098527.743    47856330.240 8 -40338491.105 8
 86  6 12  2 25  5.0800000  0  4G12G13G 9G11
  21992125.100    21992127.062   -26823316.309 9  34049693.401 9
  20604234.761    20604238.180    -8970178.162 9   3695994.389 9
  20361239.368    20361239.994    22002209.962 8 -60456696.275 8
  23101657.877    23101660.331    47872791.678 9 -40325664.018 8
 86  6 12  2 25 11.0800000  0  4G12G13G 9G11
  21989190.157    21989192.093   -26838739.428 9  34037675.385 9
  20604077.489    20604081.243    -8971003.981 9   3695350.884 8
  20362950.115    20362952.218    22011206.698 8 -60449685.841 7
  23104789.914    23104793.241    47889255.099 9 -40312835.374 8
 86  6 12  2 25 17.0800000  0  4G12G13G 9G11
  21986258.243    21986259.637   -26854147.568 9  34025669.047 8
  20603924.853    20603926.618    -8971813.168 8   3694720.359 8
  20364668.105    20364669.722    22020228.765 8 -60442655.672 7
  23107923.750    23107926.840    47905720.552 9 -40300005.157 8
 86  6 12  2 25 23.0800000  0  4G12G13G 9G11
  21983329.367    21983330.020   -26869540.684 9  34013674.419 8
  20603773.353    20603776.045    -8972605.708 8   3694102.794 9
  20366389.497    20366389.571    22029275.951 8 -60435605.910 8
  23111057.357    23111058.511    47922188.023 9 -40287173.366 8
 86  6 12  2 25 29.0800000  0  4G12G13G 9G11
  21980402.352    21980403.889   -26884918.733 9  34001691.526 9
  20603625.702    20603628.088    -8973381.635 9   3693498.173 9
  20368115.675    20368117.421    22038348.410 8 -60428536.459 7
  23114191.200    23114193.163    47938657.475 9 -40274340.029 9
 86  6 12  2 25 35.0800000  0  4G12G13G 9G11
  21977478.984    21977479.704   -26900281.673 9  33989720.405 8
  20603481.085    20603483.193    -8974141.034 9   3692906.440 9
  20369847.085    20369847.615    22047445.999 8 -60421447.445 8
  23117326.181    23117328.198    47955128.921 9 -40261505.136 9
 86  6 12  2 25 41.0800000  0  4G12G13G 9G11
  21974558.281    21974559.125   -26915629.584 9  33977760.990 9
  20603340.600    20603342.013    -8974883.903 8   3692327.594 9
  20371582.850    20371585.108    22056568.723 8 -60414338.832 8
  23120460.704    23120464.042    47971602.306 9 -40248668.748 9
 86  6 12  2 25 47.0800000  0  4G12G13G 9G11
  21971639.470    21971642.719   -26930962.348 9  33965813.381 8
  20603201.658    20603203.701    -8975610.159 9   3691761.669 8
  20373323.245    20373324.447    22065716.690 8 -60407210.556 8
  23123596.689    23123599.203    47988077.667 9 -40235830.808 9
 86  6 12  2 25 53.0800000  0  4G12G13G 9G11
  21968725.940    21968727.188   -26946280.001 9  33953877.554 8
  20603066.765    20603068.667    -8976319.847 8   3691208.666 8
  20375069.197    20375070.425    22074889.808 8 -60400062.663 8
  23126731.033    23126733.958    48004554.950 9 -40222991.361 9
 86  6 12  2 25 59.0800000  0  4G12G13G 9G11
  21965814.042    21965815.137   -26961582.480 9  33941953.551 9
  20602934.133    20602937.527    -8977013.008 8   3690668.538 9
  20376820.636    20376821.725    22084087.983 8 -60392895.260 8
  23129867.812    23129870.043    48021034.155 9 -40210150.421 9
 86  6 12  2 26  5.0800000  0  4G12G13G 9G11
  21962904.296    21962906.955   -26976869.697 9  33930041.427 8
  20602805.602    20602808.767    -8977689.634 8   3690141.299 9
  20378574.712    20378576.676    22093311.374 8 -60385708.213 8
  23133003.340    23133006.657    48037515.319 9 -40197307.963 8
 86  6 12  2 26 11.0800000  0  4G12G13G 9G11
  21959997.832    21959999.910   -26992141.735 9  33918141.139 8
  20602680.686    20602683.510    -8978349.745 8   3689626.927 9
  20380335.261    20380336.718    22102559.904 8 -60378501.572 8
  23136140.602    23136143.090    48053998.351 9 -40184464.041 9
 86  6 12  2 26 17.0800000  0  4G12G13G 9G11
  21957094.891    21957097.038   -27007398.498 9  33906252.757 8
  20602557.956    20602560.153    -8978993.343 8   3689125.426 9
  20382099.208    20382101.259    22111833.564 8 -60371275.337 8
  23139277.200    23139278.961    48070483.279 9 -40171618.654 9
 86  6 12  2 26 23.0800000  0  4G12G13G 9G11
  21954195.175    21954196.900   -27022640.006 9  33894376.258 8
  20602438.846    20602440.941    -8979620.503 8   3688636.726 8
  20383869.429    20383870.588    22121132.334 8 -60364029.546 7
  23142414.839    23142417.173    48086970.071 9 -40158771.808 9
 86  6 12  2 26 29.0800000  0  4G12G13G 9G11
  21951296.772    21951298.930   -27037866.307 9  33882511.609 9
  20602321.388    20602325.219    -8980231.262 8   3688160.813 8
  20385643.741    20385644.227    22130456.133 8 -60356764.253 8
  23145552.469    23145554.394    48103458.678 9 -40145923.536 8
 86  6 12  2 26 35.0800000  0  4G12G13G 9G11
  21948402.773    21948404.854   -27053077.361 9  33870658.834 8
  20602209.015    20602211.811    -8980825.595 9   3687697.698 9
  20387421.798    20387423.015    22139805.044 9 -60349479.403 7
  23148690.250    23148692.949    48119949.104 9 -40133073.862 8
 86  6 12  2 26 41.0800000  0  4G12G13G 9G11
  21945511.226    21945512.521   -27068273.068 9  33858818.034 9
  20602099.732    20602102.036    -8981403.460 9   3687247.409 9
  20389205.411    20389208.347    22149178.974 8 -60342175.043 7
  23151829.114    23151830.706    48136441.347 9 -40120222.753 8
 86  6 12  2 26 47.0800000  0  4G12G13G 9G11
  21942622.429    21942624.401   -27083453.380 9  33846989.216 9
  20601992.156    20601995.175    -8981964.822 9   3686809.994 8
  20390995.119    20390996.434    22158578.052 8 -60334851.096 7
  23154968.534    23154969.685    48152935.354 9 -40107370.282 8
 86  6 12  2 26 53.0800000  0  4G12G13G 9G11
  21939736.493    21939737.352   -27098618.321 9  33835172.384 9
  20601888.546    20601891.542    -8982509.722 9   3686385.401 9
  20392787.946    20392788.229    22168002.221 7 -60327507.588 8
  23158105.494    23158109.379    48169431.216 9 -40094516.380 8
 86  6 12  2 26 59.0800000  0  4G12G13G 9G11
  21936853.471    21936855.465   -27113767.911 9  33823367.502 8
  20601788.425    20601790.771    -8983038.290 9   3685973.524 9
  20394586.293    20394586.168    22177451.411 8 -60320144.577 7
  23161245.822    23161247.672    48185928.835 8 -40081661.085 9
 86  6 12  2 27  5.0800000  0  4G12G13G 9G11
  21933973.928    21933974.811   -27128902.086 9  33811574.646 9
  20601691.374    20601693.503    -8983550.494 9   3685574.399 8
  20396389.137    20396390.038    22186925.706 8 -60312762.030 8
  23164386.010    23164387.337    48202428.295 9 -40068804.383 8
 86  6 12  2 27 11.0800000  0  4G12G13G 9G11
  21931097.220    21931097.886   -27144020.778 9  33799793.846 9
  20601596.324    20601599.234    -8984046.327 8   3685188.039 9
  20398197.762    20398198.818    22196424.947 8 -60305360.023 7
  23167525.308    23167527.975    48218929.500 9 -40055946.291 9
 86  6 12  2 27 17.0800000  0  4G12G13G 9G11
  21928222.778    21928225.175   -27159124.059 9  33788025.059 9
  20601505.781    20601507.209    -8984525.817 8   3684814.415 9
  20400008.959    20400010.832    22205949.194 8 -60297938.525 8
  23170665.824    23170668.767    48235432.348 9 -40043086.942 8
 86  6 12  2 27 23.0800000  0  4G12G13G 9G11
  21925351.501    21925353.018   -27174211.838 9  33776268.348 9
  20601417.351    20601419.579    -8984989.008 8   3684453.491 9
  20401826.600    20401828.173    22215498.611 8 -60290497.428 8
  23173806.422    23173809.426    48251936.898 9 -40030226.249 9
 86  6 12  2 27 29.0800000  0  4G12G13G 9G11
  21922483.697    21922484.322   -27189284.113 9  33764523.717 9
  20601331.561    20601334.136    -8985435.854 8   3684105.292 8
  20403649.243    20403648.975    22225072.903 8 -60283036.939 7
  23176947.396    23176950.055    48268443.170 9 -40017364.226 9
 86  6 12  2 27 35.0800000  0  4G12G13G 9G11
  21919617.732    21919620.478   -27204340.787 9  33752791.247 8
  20601249.592    20601253.581    -8985866.359 8   3683769.845 9
  20405474.553    20405475.155    22234672.272 8 -60275556.920 8
  23180088.942    23180092.066    48284951.160 9 -40004500.870 9
 86  6 12  2 27 41.0800000  0  4G12G13G 9G11
  21916756.403    21916758.064   -27219381.929 9  33741070.870 8
  20601172.168    20601173.495    -8986280.520 8   3683447.116 8
  20407307.389    20407307.631    22244296.585 8 -60268057.456 7
  23183230.824    23183233.270    48301460.806 9 -39991636.209 9
 86  6 12  2 27 47.0800000  0  4G12G13G 9G11
  21913897.235    21913898.203   -27234407.475 9  33729362.651 8
  20601095.605    20601097.731    -8986678.362 9   3683137.118 9
  20409141.198    20409143.744    22253945.862 9 -60260538.541 7
  23186373.066    23186375.718    48317972.191 9 -39978770.199 9
 86  6 12  2 27 53.0800000  0  4G12G13G 9G11
  21911040.618    21911042.837   -27249417.448 9  33717666.580 9
  20601023.295    20601024.731    -8987059.928 9   3682839.792 9
  20410984.023    20410984.332    22263620.157 7 -60253000.139 8
  23189515.127    23189516.646    48334485.206 8 -39965902.925 9
 86  6 12  2 27 59.0800000  0  4G12G13G 9G11
  21908187.381    21908188.996   -27264411.734 9  33705982.715 9
  20600954.294    20600956.385    -8987425.199 9   3682555.166 9
  20412829.389    20412831.047    22273319.415 8 -60245442.287 8
  23192657.597    23192660.238    48350999.820 9 -39953034.388 9
 86  6 12  2 28  5.0800000  0  4G12G13G 9G11
  21905336.490    21905338.892   -27279390.368 9  33694311.047 9
  20600887.212    20600889.309    -8987774.191 9   3682283.222 9
  20414679.682    20414680.910    22283043.587 8 -60237865.005 7
  23195801.261    23195801.737    48367516.108 9 -39940164.571 8
 86  6 12  2 28 11.0800000  0  4G12G13G 9G11
  21902490.876    21902491.419   -27294353.346 9  33682651.598 9
  20600824.469    20600826.177    -8988106.923 9   3682023.949 9
  20416534.094    20416536.943    22292792.683 8 -60230268.312 8
  23198944.223    23198945.780    48384033.992 9 -39927293.493 9
 86  6 12  2 28 17.0800000  0  4G12G13G 9G11
  21899645.458    21899647.080   -27309300.613 9  33671004.365 8
  20600763.961    20600765.896    -8988423.388 9   3681777.355 8
  20418394.547    20418395.478    22302566.782 8 -60222652.139 9
  23202087.592    23202089.875    48400553.526 9 -39914421.131 9
 86  6 12  2 28 23.0800000  0  4G12G13G 9G11
  21896803.220    21896804.723   -27324232.152 9  33659369.409 9
  20600706.146    20600708.086    -8988723.590 8   3681543.430 9
  20420260.576    20420261.037    22312365.793 9 -60215016.537 7
  23205231.914    23205233.623    48417074.703 9 -39901547.499 8
 86  6 12  2 28 29.0800000  0  4G12G13G 9G11
  21893965.905    21893966.560   -27339147.875 9  33647746.763 9
  20600652.324    20600654.885    -8989007.502 9   3681322.195 9
  20422129.070    20422129.917    22322189.779 8 -60207361.501 8
  23208375.407    23208377.714    48433597.469 8 -39888672.621 9
 86  6 12  2 28 35.0800000  0  4G12G13G 9G11
  21891130.449    21891131.393   -27354047.822 9  33636136.415 9
  20600601.695    20600604.293    -8989275.202 8   3681113.599 9
  20424004.088    20424005.367    22332038.656 8 -60199687.053 7
  23211519.798    23211522.551    48450121.781 8 -39875796.544 9
 86  6 12  2 28 41.0800000  0  4G12G13G 9G11
  21888297.548    21888299.480   -27368932.010 9  33624538.351 9
  20600553.685    20600556.500    -8989526.738 9   3680917.598 9
  20425884.029    20425882.703    22341912.346 8 -60191993.271 7
  23214663.585    23214667.843    48466647.597 9 -39862919.286 8
 86  6 12  2 28 47.0800000  0  4G12G13G 9G11
  21885468.200    21885469.808   -27383800.435 9  33612952.569 8
  20600509.021    20600511.369    -8989762.118 8   3680734.189 9
  20427765.803    20427767.795    22351811.085 9 -60184279.968 8
  23217809.924    23217812.108    48483174.945 8 -39850040.836 9
 86  6 12  2 28 53.0800000  0  4G12G13G 9G11
  21882642.046    21882643.425   -27398652.991 9  33601379.145 9
  20600467.913    20600469.621    -8989981.354 9   3680563.346 9
  20429654.049    20429655.822    22361734.640 8 -60176547.334 8
  23220954.421    23220958.051    48499703.799 8 -39837161.210 9
 86  6 12  2 28 59.0800000  0  4G12G13G 9G11
  21879818.944    21879819.696   -27413489.690 9  33589818.086 9
  20600427.567    20600429.773    -8990184.419 9   3680405.130 9
  20431546.405    20431548.016    22371683.107 8 -60168795.281 8
  23224100.383    23224104.301    48516234.151 9 -39824280.412 9
 86  6 12  2 29  5.0800000  0  4G12G13G 9G11
  21876998.367    21877000.889   -27428310.398 9  33578269.483 9
  20600392.418    20600395.625    -8990371.343 9   3680259.468 9
  20433445.292    20433445.625    22381656.414 8 -60161023.884 7
  23227246.934    23227249.336    48532766.015 8 -39811398.441 9
 86  6 12  2 29 11.0800000  0  4G12G13G 9G11
  21874180.512    21874182.712   -27443115.237 9  33566733.259 9
  20600360.797    20600362.920    -8990542.133 8   3680126.390 9
  20435347.272    20435349.516    22391654.602 8 -60153233.095 7
  23230392.846    23230395.652    48549299.344 9 -39798515.336 9
 86  6 12  2 29 17.0800000  0  4G12G13G 9G11
  21871366.696    21871367.220   -27457904.101 9  33555209.473 9
  20600331.606    20600333.466    -8990696.771 8   3680005.892 9
  20437256.059    20437256.243    22401677.738 8 -60145422.852 6
  23233538.587    23233542.290    48565834.176 9 -39785631.070 9
 86  6 12  2 29 23.0800000  0  4G12G13G 9G11
  21868555.569    21868556.960   -27472677.049 9  33543698.076 8
  20600303.955    20600307.029    -8990835.320 8   3679897.932 9
  20439166.621    20439168.439    22411725.610 8 -60137593.355 7
  23236685.760    23236689.178    48582370.468 9 -39772745.636 9
 86  6 12  2 29 29.0800000  0  4G12G13G 9G11
  21865747.695    21865749.142   -27487433.983 9  33532199.177 9
  20600280.709    20600283.024    -8990957.769 9   3679802.511 9
  20441085.028    20441084.681    22421798.362 7 -60129744.450 7
  23239832.375    23239835.615    48598908.202 8 -39759859.092 9
 86  6 12  2 29 35.0800000  0  4G12G13G 9G11
  21862941.243    21862943.864   -27502174.849 9  33520712.772 9
  20600260.791    20600263.975    -8991064.148 8   3679719.615 9
  20443006.033    20443005.737    22431895.883 8 -60121876.257 7
  23242980.037    23242983.428    48615447.318 8 -39746971.488 8
 86  6 12  2 29 41.0800000  0  4G12G13G 9G11
  21860140.604    21860142.457   -27516899.664 9  33509238.905 9
  20600244.072    20600245.030    -8991154.401 9   3679649.301 9
  20444931.481    20444933.038    22442018.285 8 -60113988.678 7
  23246128.010    23246130.590    48631987.915 9 -39734082.709 9
 86  6 12  2 29 47.0800000  0  4G12G13G 9G11
  21857340.823    21857342.276   -27531608.378 9  33497777.564 8
  20600230.181    20600231.505    -8991228.512 9   3679591.542 8
  20446861.561    20446863.016    22452165.500 9 -60106081.756 7
  23249274.807    23249278.749    48648530.030 8 -39721192.762 9
 86  6 12  2 29 53.0800000  0  4G12G13G 9G11
  21854545.232    21854547.617   -27546301.102 9  33486328.695 9
  20600219.303    20600220.836    -8991286.596 8   3679546.290 8
  20448797.707    20448799.451    22462337.411 9 -60098155.609 7
  23252424.141    23252426.640    48665073.466 9 -39708301.770 9
 86  6 12  2 29 59.0800000  0  4G12G13G 9G11
  21851751.509    21851753.735   -27560977.764 9  33474892.339 8
  20600210.583    20600212.846    -8991328.689 9   3679513.492 8
  20450739.574    20450738.838    22472534.035 9 -60090210.180 8
  23255573.292    23255575.059    48681618.292 9 -39695409.704 9
 86  6 12  2 30  5.0800000  0  4G12G13G 9G11
  21848963.321    21848963.648   -27575638.280 9  33463468.562 7
  20600205.480    20600208.519    -8991354.698 8   3679493.227 9
  20452684.310    20452685.151    22482755.650 8 -60082245.295 7
  23258720.545    23258723.482    48698164.544 8 -39682516.519 9
 86  6 12  2 30 11.0800000  0  4G12G13G 9G11
  21846176.056    21846177.317   -27590282.637 9  33452057.380 9
  20600204.510    20600206.172    -8991364.706 9   3679485.428 9
  20454633.050    20454633.321    22493002.007 8 -60074261.117 7
  23261870.898    23261873.415    48714712.206 9 -39669622.247 9
 86  6 12  2 30 17.0800000  0  4G12G13G 9G11
  21843391.475    21843393.810   -27604910.819 9  33440658.803 9
  20600204.916    20600207.053    -8991358.644 9   3679490.152 9
  20456588.057    20456587.925    22503273.168 7 -60066257.628 7
  23265018.753    23265021.692    48731261.235 8 -39656726.906 9
 86  6 12  2 30 23.0800000  0  4G12G13G 9G11
  21840611.307    21840612.639   -27619522.734 9  33429272.890 9
  20600209.541    20600211.804    -8991336.636 8   3679507.296 8
  20458547.698    20458548.602    22513569.048 7 -60058234.859 7
  23268167.679    23268171.672    48747811.606 9 -39643830.522 9
 86  6 12  2 30 29.0800000  0  4G12G13G 9G11
  21837833.651    21837836.110   -27634118.496 9  33417899.580 8
  20600216.389    20600219.302    -8991298.644 9   3679536.904 8
  20460511.517    20460512.508    22523889.487 8 -60050192.977 8
  23271317.810    23271321.418    48764363.182 9 -39630933.184 9
 86  6 12  2 30 35.0800000  0  4G12G13G 9G11
  21835059.970    21835060.709   -27648698.024 9  33406538.909 9
  20600227.004    20600228.472    -8991244.706 9   3679578.932 9
  20462480.178    20462480.137    22534234.702 7 -60042131.755 8
  23274468.532    23274471.447    48780916.042 8 -39618034.861 9
 86  6 12  2 30 41.0800000  0  4G12G13G 9G11
  21832289.148    21832290.910   -27663261.232 9  33395190.951 9
  20600241.018    20600242.059    -8991174.776 8   3679633.420 9
  20464453.071    20464453.917    22544604.711 8 -60034051.236 7
  23277617.763    23277620.574    48797470.256 9 -39605135.475 9
 86  6 12  2 30 47.0800000  0  4G12G13G 9G11
  21829520.027    21829522.429   -27677808.300 9  33383855.575 9
  20600256.730    20600258.132    -8991088.969 8   3679700.283 9
  20466430.544    20466431.717    22554999.326 8 -60025951.558 7
  23280768.496    23280771.688    48814025.652 8 -39592235.175 9
 86  6 12  2 30 53.0800000  0  4G12G13G 9G11
  21826755.364    21826756.916   -27692338.941 9  33372533.002 9
  20600275.409    20600277.832    -8990987.125 9   3679779.652 8
  20468413.767    20468414.775    22565418.568 8 -60017832.651 8
  23283920.247    23283922.419    48830582.407 9 -39579333.812 9
 86  6 12  2 30 59.0800000  0  4G12G13G 9G11
  21823992.952    21823995.335   -27706853.301 9  33361223.112 8
  20600297.503    20600300.304    -8990869.341 9   3679871.424 8
  20470401.141    20470400.864    22575862.627 9 -60009694.430 6
  23287070.579    23287072.442    48847140.356 9 -39566431.519 9
 86  6 12  2 31  5.0800000  0  4G12G13G 9G11
  21821234.410    21821236.887   -27721351.355 9  33349925.934 9
  20600323.551    20600325.591    -8990735.748 8   3679975.511 8
  20472393.669    20472394.916    22586331.330 9 -60001537.017 8
  23290221.631    23290224.111    48863699.513 8 -39553528.287 9
 86  6 12  2 31 11.0800000  0  4G12G13G 9G11
  21818477.703    21818480.880   -27735832.963 9  33338641.568 9
  20600352.659    20600354.667    -8990586.210 9   3680092.042 9
  20474390.488    20474391.035    22596824.669 8 -59993360.387 7
  23293372.360    23293375.416    48880259.860 9 -39540624.114 9
 86  6 12  2 31 17.0800000  0  4G12G13G 9G11
  21815726.192    21815727.853   -27750298.078 9  33327370.048 9
  20600383.461    20600386.136    -8990420.848 8   3680220.886 9
  20476391.884    20476393.016    22607342.681 8 -59985164.528 7
  23296524.054    23296526.641    48896821.468 9 -39527718.979 9
 86  6 12  2 31 23.0800000  0  4G12G13G 9G11
  21812976.089    21812977.621   -27764746.771 9  33316111.329 9
  20600418.461    20600419.574    -8990239.645 9   3680362.099 9
  20478399.007    20478400.221    22617885.376 8 -59976949.442 8
  23299676.156    23299678.899    48913384.236 8 -39514812.924 9
 86  6 12  2 31 29.0800000  0  4G12G13G 9G11
  21810229.105    21810231.469   -27779178.990 9  33304865.445 9
  20600456.186    20600457.934    -8990042.601 8   3680515.628 9
  20480408.760    20480410.321    22628452.657 7 -59968715.209 7
  23302828.258    23302830.583    48929948.201 8 -39501905.947 9
 86  6 12  2 31 35.0800000  0  4G12G13G 9G11
  21807487.172    21807487.853   -27793594.801 9  33293632.352 9
  20600496.501    20600498.549    -8989829.750 9   3680681.496 9
  20482424.925    20482427.084    22639044.519 9 -59960461.810 7
  23305980.402    23305982.406    48946513.273 9 -39488998.089 9
 86  6 12  2 31 41.0800000  0  4G12G13G 9G11
  21804746.084    21804747.674   -27807994.059 9  33282412.160 9
  20600539.978    20600542.816    -8989601.035 8   3680859.716 9
  20484446.011    20484446.072    22649661.043 9 -59952189.201 7
  23309133.771    23309136.026    48963079.640 8 -39476089.244 9
 86  6 12  2 31 47.0800000  0  4G12G13G 9G11
  21802010.097    21802012.084   -27822376.775 9  33271204.846 8
  20600585.607    20600588.605    -8989356.477 9   3681050.284 9
  20486469.846    20486469.863    22660302.162 9 -59943897.413 8
  23312285.669    23312287.883    48979647.113 9 -39463179.532 9
 86  6 12  2 31 53.0800000  0  4G12G13G 9G11
  21799275.757    21799277.683   -27836742.924 9  33260010.451 9
  20600636.233    20600637.572    -8989096.092 8   3681253.184 9
  20488499.887    20488499.745    22670967.881 8 -59935586.474 8
  23315438.213    23315441.238    48996215.760 8 -39450268.897 9
 86  6 12  2 31 59.0800000  0  4G12G13G 9G11
  21796545.512    21796547.601   -27851092.468 9  33248828.990 9
  20600688.009    20600690.293    -8988819.875 9   3681468.412 9
  20490534.202    20490534.498    22681658.194 9 -59927256.360 8
  23318591.019    23318594.183    49012785.514 9 -39437357.406 9
 86  6 12  2 32  5.0800000  0  4G12G13G 9G11
  21793817.328    21793820.545   -27865425.356 9  33237660.510 9
  20600743.578    20600747.037    -8988527.890 9   3681695.928 8
  20492573.455    20492574.217    22692373.062 9 -59918907.125 7
  23321745.289    23321747.748    49029356.406 8 -39424445.028 9
 86  6 12  2 32 11.0800000  0  4G12G13G 9G11
  21791093.544    21791095.364   -27879741.614 9  33226504.982 9
  20600803.602    20600804.606    -8988220.119 8   3681935.758 9
  20494617.326    20494616.268    22703112.547 9 -59910538.685 8
  23324898.102    23324902.011    49045928.362 9 -39411531.828 9
 86  6 12  2 32 17.0800000  0  4G12G13G 9G11
  21788372.588    21788373.592   -27894041.263 9  33215362.400 9
  20600863.781    20600866.296    -8987896.630 8   3682187.831 9
  20496664.627    20496666.028    22713876.490 9 -59902151.213 8
  23328052.094    23328054.513    49062501.430 9 -39398617.757 9
 86  6 12  2 32 23.0800000  0  4G12G13G 9G11
  21785654.815    21785657.099   -27908324.241 9  33204232.813 9
  20600927.820    20600931.053    -8987557.451 9   3682452.125 9
  20498718.682    20498719.854    22724665.086 8 -59893744.515 7
  23331205.823    23331209.023    49079075.566 9 -39385702.847 9
 86  6 12  2 32 29.0800000  0  4G12G13G 9G11
  21782939.376    21782942.634   -27922590.541 9  33193116.221 9
  20600995.048    20600997.975    -8987202.604 8   3682728.627 9
  20500775.540    20500775.697    22735478.077 8 -59885318.808 8
  23334360.530    23334362.234    49095650.713 8 -39372787.155 9
 86  6 12  2 32 35.0800000  0  4G12G13G 9G11
  21780228.537    21780230.090   -27936840.141 9  33182012.639 9
  20601066.865    20601069.138    -8986832.085 8   3683017.343 8
  20502836.895    20502838.309    22746315.647 9 -59876873.956 7
  23337514.893    23337517.098    49112226.941 9 -39359870.614 9
 86  6 12  2 32 41.0800000  0  4G12G13G 9G11
  21777520.033    21777520.052   -27951072.990 9  33170922.111 9
  20601140.194    20601142.269    -8986445.759 9   3683318.379 9
  20504905.314    20504906.189    22757177.733 9 -59868409.997 7
  23340668.414    23340672.349    49128804.235 8 -39346953.242 8
 86  6 12  2 32 47.0800000  0  4G12G13G 9G11
  21774814.241    21774816.067   -27965289.025 9  33159844.681 9
  20601216.259    20601218.542    -8986043.711 8   3683631.653 9
  20506977.404    20506977.984    22768064.340 8 -59859926.938 7
  23343824.258    23343826.687    49145382.603 8 -39334035.056 8
 86  6 12  2 32 53.0800000  0  4G12G13G 9G11
  21772111.355    21772114.346   -27979488.291 9  33148780.320 9
  20601295.695    20601297.895    -8985626.065 9   3683957.101 9
  20509053.489    20509053.820    22778975.366 8 -59851424.837 8
  23346978.764    23346981.216    49161961.926 8 -39321116.099 9
 86  6 12  2 32 59.0800000  0  4G12G13G 9G11
  21769412.903    21769414.690   -27993670.765 9  33137729.038 9
  20601377.804    20601380.111    -8985192.745 8   3684294.754 8
  20511134.048    20511134.608    22789911.046 8 -59842903.521 8
  23350133.172    23350136.930    49178542.243 8 -39308196.368 9
 86  6 12  2 33  5.0800000  0  4G12G13G 9G11
  21766717.846    21766719.242   -28007836.375 9  33126690.904 9
  20601464.072    20601466.383    -8984743.748 9   3684644.613 9
  20513219.696    20513220.717    22800871.004 9 -59834363.297 8
  23353288.893    23353291.188    49195123.551 8 -39295275.874 9
 86  6 12  2 33 11.0800000  0  4G12G13G 9G11
  21764025.873    21764028.018   -28021985.166 9  33115665.883 8
  20601551.847    20601555.421    -8984279.036 8   3685006.736 9
  20515309.757    20515311.299    22811855.449 8 -59825804.003 7
  23356445.104    23356447.004    49211705.822 8 -39282354.637 9
 86  6 12  2 33 17.0800000  0  4G12G13G 9G11
  21761335.892    21761338.681   -28036117.088 9  33104653.995 9
  20601643.403    20601645.575    -8983798.668 9   3685381.049 9
  20517404.991    20517404.207    22822864.286 8 -59817225.697 7
  23359600.305    23359603.040    49228288.975 8 -39269432.694 9
 86  6 12  2 33 23.0800000  0  4G12G13G 9G11
  21758650.645    21758652.580   -28050232.113 9  33093655.276 9
  20601737.852    20601740.679    -8983302.630 8   3685767.580 8
  20519504.090    20519506.066    22833897.556 9 -59808628.344 7
  23362755.551    23362759.277    49244873.101 8 -39256510.006 8
 86  6 12  2 33 29.0800000  0  4G12G13G 9G11
  21755968.291    21755969.495   -28064330.263 9  33082669.707 9
  20601835.083    20601837.867    -8982791.066 9   3686166.199 9
  20521609.402    20521608.660    22844955.248 8 -59800011.963 8
  23365912.310    23365914.949    49261458.125 8 -39243586.622 9
 86  6 12  2 33 35.0800000  0  4G12G13G 9G11
  21753288.015    21753289.862   -28078411.507 9  33071697.312 9
  20601934.993    20601937.683    -8982263.929 9   3686576.947 9
  20523717.459    20523716.731    22856037.278 8 -59791376.618 8
  23369067.901    23369071.100    49278044.130 8 -39230662.466 9
 86  6 12  2 33 41.0800000  0  4G12G13G 9G11
  21750611.031    21750613.135   -28092475.786 9  33060738.146 8
  20602039.387    20602041.338    -8981721.240 8   3686999.827 8
  20525831.671    20525831.641    22867143.780 9 -59782722.198 7
  23372223.430    23372227.018    49294631.056 8 -39217737.602 9
 86  6 12  2 33 47.0800000  0  4G12G13G 9G11
  21747938.838    21747939.470   -28106523.112 9  33049792.166 8
  20602144.783    20602147.123    -8981163.025 9   3687434.802 9
  20527949.659    20527949.463    22878274.577 9 -59774048.852 7
  23375380.846    23375384.335    49311218.827 8 -39204812.065 8
 86  6 12  2 33 53.0800000  0  4G12G13G 9G11
  21745268.441    21745270.878   -28120553.428 9  33038859.455 9
  20602253.822    20602256.549    -8980589.271 8   3687881.891 9
  20530071.397    20530072.572    22889429.702 8 -59765356.554 8
  23378538.610    23378541.382    49327807.472 8 -39191885.858 9
 86  6 12  2 33 59.0800000  0  4G12G13G 9G11
  21742602.079    21742602.917   -28134566.669 9  33027940.056 8
  20602366.755    20602369.019    -8980000.005 8   3688341.048 9
  20532199.689    20532199.419    22900609.252 9 -59756645.221 7
  23381694.753    23381698.104    49344396.952 8 -39178958.991 8
 86  6 12  2 34  5.0800000  0  4G12G13G 9G11
  21739939.138    21739940.614   -28148562.811 9  33017033.967 9
  20602481.241    20602483.801    -8979395.157 7   3688812.368 9
  20534331.987    20534332.230    22911813.116 8 -59747914.931 8
  23384851.369    23384855.047    49360987.340 8 -39166031.421 9
 86  6 12  2 34 11.0800000  0  4G12G13G 9G11
  21737278.080    21737280.139   -28162541.845 9  33006141.216 8
  20602599.523    20602601.789    -8978774.790 9   3689295.773 9
  20536467.808    20536468.146    22923041.429 8 -59739165.612 7
  23388009.157    23388012.921    49377578.561 8 -39153103.197 9
 86  6 12  2 34 17.0800000  0  4G12G13G 9G11
  21734621.162    21734624.272   -28176503.806 9  32995261.767 9
  20602721.355    20602723.292    -8978138.871 9   3689791.294 9
  20538609.205    20538609.905    22934294.025 9 -59730397.358 7
  23391166.216    23391169.156    49394170.613 9 -39140174.338 8
 86  6 12  2 34 23.0800000  0  4G12G13G 9G11
  21731968.302    21731969.610   -28190448.702 9  32984395.615 8
  20602844.974    20602846.831    -8977487.443 9   3690298.901 9
  20540754.579    20540754.583    22945570.805 8 -59721610.260 8
  23394323.583    23394327.264    49410763.478 9 -39127244.836 9
 86  6 12  2 34 29.0800000  0  4G12G13G 9G11
  21729317.139    21729320.594   -28204376.418 9  32973542.849 9
  20602971.657    20602973.749    -8976820.604 9   3690818.517 9
  20542905.737    20542905.562    22956871.970 9 -59712804.169 7
  23397481.721    23397484.119    49427357.200 8 -39114314.658 9
 86  6 12  2 34 35.0800000  0  4G12G13G 9G11
  21726670.858    21726672.212   -28218286.914 9  32962703.508 8
  20603101.158    20603103.424    -8976138.261 8   3691350.208 9
  20545060.559    20545060.373    22968197.484 9 -59703979.088 8
  23400639.368    23400642.463    49443951.793 7 -39101383.815 9
 86  6 12  2 34 41.0800000  0  4G12G13G 9G11
  21724027.578    21724028.245   -28232180.222 9  32951877.556 9
  20603233.432    20603236.568    -8975440.540 8   3691893.893 9
  20547221.590    20547220.445    22979547.244 9 -59695135.121 7
  23403798.860    23403799.241    49460547.061 9 -39088452.446 8
 86  6 12  2 34 47.0800000  0  4G12G13G 9G11
  21721385.567    21721387.455   -28246056.280 9  32941065.036 9
  20603369.681    20603371.344    -8974727.373 8   3692449.614 9
  20549384.739    20549385.353    22990921.120 9 -59686272.374 8
  23406956.033    23406958.119    49477143.035 8 -39075520.522 9
 86  6 12  2 34 53.0800000  0  4G12G13G 9G11
  21718748.879    21718751.143   -28259915.130 9  32930265.932 9
  20603508.197    20603511.093    -8973998.737 9   3693017.376 9
  20551554.095    20551554.395    23002319.261 9 -59677390.709 8
  23410113.769    23410116.426    49493739.785 8 -39062587.998 9
 86  6 12  2 34 59.0800000  0  4G12G13G 9G11
  21716115.434    21716116.425   -28273756.721 9  32919480.271 9
  20603650.119    20603652.342    -8973254.724 9   3693597.132 9
  20553727.003    20553727.665    23013741.738 8 -59668490.090 8
  23413272.298    23413275.076    49510337.283 9 -39049654.874 9
 86  6 12  2 35  5.0800000  0  4G12G13G 9G11
  21713484.470    21713486.221   -28287580.998 9  32908708.109 9
  20603794.229    20603795.669    -8972495.276 9   3694188.910 9
  20555905.946    20555906.461    23025188.466 9 -59659570.565 8
  23416431.277    23416434.134    49526935.524 7 -39036721.193 9
 86  6 12  2 35 11.0800000  0  4G12G13G 9G11
  21710856.393    21710858.483   -28301387.916 9  32897949.475 9
  20603942.776    20603944.845    -8971720.453 8   3694792.676 8
  20558089.073    20558090.089    23036659.352 8 -59650632.206 8
  23419589.472    23419591.761    49543534.489 9 -39023786.930 8
 86  6 12  2 35 17.0800000  0  4G12G13G 9G11
  21708233.435    21708234.469   -28315177.413 9  32887204.413 8
  20604092.267    20604094.553    -8970930.267 9   3695408.406 9
  20560275.461    20560276.178    23048154.468 9 -59641674.988 8
  23422750.061    23422751.365    49560134.216 8 -39010852.090 9
 86  6 12  2 35 23.0800000  0  4G12G13G 9G11
  21705612.144    21705614.011   -28328949.578 9  32876472.854 8
  20604246.349    20604247.936    -8970124.714 7   3696036.114 8
  20562469.170    20562468.655    23059673.885 8 -59632698.815 9
  23425907.528    23425909.594    49576734.671 9 -38997916.675 9
 86  6 12  2 35 29.0800000  0  4G12G13G 9G11
  21702994.694    21702996.110   -28342704.349 9  32865754.854 9
  20604400.816    20604403.322    -8969303.754 8   3696675.807 9
  20564665.286    20564665.750    23071217.343 8 -59623703.924 7
  23429067.602    23429069.362    49593335.840 8 -38984980.698 8
 86  6 12  2 35 35.0800000  0  4G12G13G 9G11
  21700380.942    21700382.367   -28356441.746 9  32855050.385 8
  20604561.397    20604563.242    -8968467.494 9   3697327.439 9
  20566866.470    20566865.972    23082785.009 8 -59614690.152 7
  23432225.567    23432227.855    49609937.719 8 -38972044.171 9
 86  6 12  2 35 41.0800000  0  4G12G13G 9G11
  21697769.476    21697771.080   -28370161.681 9  32844359.531 9
  20604722.968    20604725.268    -8967615.998 8   3697990.951 8
  20569072.056    20569073.502    23094376.794 9 -59605657.605 8
  23435385.896    23435388.528    49626540.205 9 -38959107.178 8
 86  6 12  2 35 47.0800000  0  4G12G13G 9G11
  21695162.164    21695163.259   -28383864.131 9  32833682.294 8
  20604888.222    20604889.618    -8966749.194 9   3698666.383 9
  20571282.463    20571283.591    23105992.763 8 -59596606.202 8
  23438545.275    23438546.912    49643143.312 9 -38946169.694 8
 86  6 12  2 35 53.0800000  0  4G12G13G 9G11
  21692558.456    21692560.370   -28397549.041 9  32823018.740 9
  20605055.640    20605057.963    -8965867.019 9   3699353.788 9
  20573495.802    20573498.249    23117632.970 8 -59587535.919 7
  23441705.293    23441706.285    49659747.135 9 -38933231.658 8
 86  6 12  2 35 59.0800000  0  4G12G13G 9G11
  21689957.542    21689960.400   -28411216.537 9  32812368.733 9
  20605226.651    20605228.374    -8964969.708 9   3700052.997 9
  20575717.648    20575717.823    23129297.207 8 -59578446.913 8
  23444864.505    23444866.195    49676351.546 9 -38920293.151 8
 86  6 12  2 36  5.0800000  0  4G12G13G 9G11
  21687359.438    21687361.213   -28424866.574 9  32801732.340 9
  20605399.549    20605402.007    -8964057.070 9   3700764.150 9
  20577941.983    20577942.540    23140985.506 8 -59569339.149 7
  23448024.444    23448025.873    49692956.542 9 -38907354.200 9
 86  6 12  2 36 11.0800000  0  4G12G13G 9G11
  21684766.170    21684767.500   -28438499.191 9  32791109.522 9
  20605577.630    20605579.601    -8963129.219 9   3701487.150 9
  20580170.436    20580171.187    23152697.890 9 -59560212.617 8
  23451184.511    23451186.257    49709562.125 9 -38894414.787 8
 86  6 12  2 36 17.0800000  0  4G12G13G 9G11
  21682175.208    21682176.340   -28452114.294 9  32780500.356 8
  20605756.521    20605757.814    -8962186.086 8   3702222.066 9
  20582403.560    20582403.856    23164434.366 7 -59551067.308 8
  23454344.961    23454346.989    49726168.306 9 -38881474.913 8
 86  6 12  2 36 23.0800000  0  4G12G13G 9G11
  21679587.483    21679589.035   -28465711.725 9  32769904.956 9
  20605940.056    20605940.594    -8961227.746 9   3702968.828 9
  20584641.428    20584643.389    23176194.890 8 -59541903.263 8
  23457504.089    23457507.297    49742775.116 8 -38868534.552 9
 86  6 12  2 36 29.0800000  0  4G12G13G 9G11
  21677002.693    21677005.284   -28479291.503 9  32759323.310 8
  20606123.921    20606124.804    -8960254.206 9   3703727.427 9
  20586884.510    20586885.199    23187979.500 8 -59532720.474 8
  23460663.664    23460667.342    49759382.471 9 -38855593.757 8
 86  6 12  2 36 35.0800000  0  4G12G13G 9G11
  21674423.254    21674424.316   -28492853.587 9  32748755.450 8
  20606312.937    20606314.465    -8959265.511 9   3704497.839 9
  20589131.080    20589131.653    23199788.180 8 -59523518.899 8
  23463824.797    23463827.430    49775990.384 9 -38842652.528 8
 86  6 12  2 36 41.0800000  0  4G12G13G 9G11
  21671845.081    21671846.815   -28506398.021 9  32738201.347 9
  20606503.152    20606504.891    -8958261.519 9   3705280.172 8
  20591382.088    20591383.746    23211620.779 8 -59514298.698 8
  23466985.208    23466987.726    49792598.860 9 -38829710.862 8
 86  6 12  2 36 47.0800000  0  4G12G13G 9G11
  21669271.704    21669271.556   -28519924.772 9  32727661.017 8
  20606697.740    20606699.210    -8957242.360 9   3706074.339 9
  20593638.875    20593639.635    23223477.469 9 -59505059.723 7
  23470146.256    23470148.306    49809207.862 8 -38816768.781 9
 86  6 12  2 36 53.0800000  0  4G12G13G 9G11
  21666700.507    21666701.849   -28533433.827 9  32717134.483 9
  20606894.423    20606896.059    -8956208.020 9   3706880.306 8
  20595898.498    20595900.217    23235358.240 9 -59495801.981 7
  23473306.338    23473308.385    49825817.390 9 -38803826.298 8
 86  6 12  2 36 59.0800000  0  4G12G13G 9G11
  21664132.828    21664134.878   -28546925.184 9  32706621.743 8
  20607094.402    20607095.684    -8955158.569 9   3707698.069 9
  20598165.644    20598166.246    23247262.936 8 -59486525.600 8
  23476466.851    23476469.237    49842427.415 9 -38790883.426 8
 86  6 12  2 37  5.0800000  0  4G12G13G 9G11
  21661569.078    21661570.866   -28560398.771 9  32696122.838 9
  20607296.262    20607298.090    -8954093.935 9   3708527.654 9
  20600434.257    20600436.725    23259191.638 8 -59477230.508 8
  23479629.403    23479630.884    49859037.873 9 -38777940.208 8
 86  6 12  2 37 11.0800000  0  4G12G13G 9G11
  21659008.264    21659010.171   -28573854.541 9  32685637.820 9
  20607502.429    20607503.169    -8953014.187 8   3709369.014 8
  20602710.043    20602710.504    23271144.369 9 -59467916.708 8
  23482788.962    23482792.363    49875648.852 9 -38764996.600 8
 86  6 12  2 37 17.0800000  0  4G12G13G 9G11
  21656450.875    21656452.999   -28587292.466 9  32675166.709 9
  20607709.866    20607711.809    -8951919.340 9   3710222.148 8
  20604988.177    20604989.257    23283120.970 8 -59458584.290 7
  23485949.479    23485952.751    49892260.304 9 -38752052.617 9
 86  6 12  2 37 23.0800000  0  4G12G13G 9G11
  21653897.148    21653899.999   -28600712.586 9  32664709.468 9
  20607921.800    20607923.762    -8950809.378 9   3711087.061 9
  20607272.211    20607273.729    23295121.577 9 -59449233.163 9
  23489111.646    23489114.261    49908872.239 9 -38739108.243 9
 86  6 12  2 37 29.0800000  0  4G12G13G 9G11
  21651347.527    21651349.573   -28614114.865 9  32654266.133 9
  20608135.642    20608138.000    -8949684.261 9   3711963.773 9
  20609560.424    20609561.182    23307146.048 8 -59439863.458 8
  23492272.571    23492275.580    49925484.618 9 -38726163.540 8
 86  6 12  2 37 35.0800000  0  4G12G13G 9G11
  21648800.223    21648801.351   -28627499.355 9  32643836.666 9
  20608352.532    20608354.229    -8948544.139 9   3712852.175 9
  20611852.528    20611855.290    23319194.426 8 -59430475.115 8
  23495434.380    23495435.910    49942097.390 9 -38713218.522 8
 86  6 12  2 37 41.0800000  0  4G12G13G 9G11
  21646257.016    21646258.237   -28640865.933 9  32633421.155 9
  20608572.794    20608573.554    -8947388.937 9   3713752.345 9
  20614150.239    20614151.956    23331266.693 8 -59421068.159 7
  23498595.607    23498597.304    49958710.632 9 -38700273.146 8
 86  6 12  2 37 47.0800000  0  4G12G13G 9G11
  21643717.103    21643717.196   -28654214.547 9  32623019.634 9
  20608794.924    20608797.430    -8946218.724 9   3714664.197 9
  20616451.783    20616453.989    23343362.827 8 -59411642.598 7
  23501756.721    23501759.038    49975324.288 9 -38687327.432 8
 86  6 12  2 37 53.0800000  0  4G12G13G 9G11
  21641178.916    21641181.003   -28667545.255 9  32612632.076 9
  20609019.930    20609022.428    -8945033.547 9   3715587.715 8
  20618758.941    20618760.087    23355482.852 9 -59402198.431 8
  23504918.741    23504920.596    49991938.309 9 -38674381.448 9
 86  6 12  2 37 59.0800000  0  4G12G13G 9G11
  21638646.320    21638647.865   -28680857.908 9  32602258.571 8
  20609248.013    20609250.700    -8943833.284 9   3716522.986 8
  20621069.759    20621071.578    23367626.867 8 -59392735.557 8
  23508079.879    23508082.892    50008552.791 9 -38661435.101 8
 86  6 12  2 38  5.0800000  0  4G12G13G 9G11
  21636116.492    21636118.359   -28694152.641 9  32591899.035 8
  20609480.283    20609482.623    -8942618.015 9   3717469.952 9
  20623385.417    20623385.987    23379794.700 8 -59383254.141 9
  23511242.439    23511243.791    50025167.659 9 -38648488.453 8
 86  6 12  2 38 11.0800000  0  4G12G13G 9G11
  21633589.401    21633590.417   -28707429.446 9  32581553.477 8
  20609713.783    20609715.451    -8941387.782 9   3718428.573 9
  20625704.708    20625706.926    23391986.377 8 -59373754.149 8
  23514403.822    23514406.522    50041782.917 9 -38635541.498 9
 86  6 12  2 38 17.0800000  0  4G12G13G 9G11
  21631066.956    21631068.635   -28720688.236 9  32571221.943 8
  20609950.511    20609952.577    -8940142.592 8   3719398.851 9
  20628029.724    20628031.109    23404201.880 9 -59364235.572 8
  23517566.501    23517568.530    50058398.548 9 -38622594.257 8
 86  6 12  2 38 23.0800000  0  4G12G13G 9G11
  21628547.057    21628548.409   -28733928.980 9  32560904.493 9
  20610190.892    20610192.302    -8938882.450 9   3720380.786 9
  20630359.140    20630359.248    23416441.196 8 -59354698.442 8
  23520727.135    23520729.579    50075014.517 9 -38609646.749 8
 86  6 12  2 38 29.0800000  0  4G12G13G 9G11
  21626030.191    21626032.296   -28747151.679 9  32550601.080 8
  20610433.324    20610435.238    -8937607.421 9   3721374.313 9
  20632692.140    20632692.570    23428704.194 8 -59345142.866 8
  23523889.222    23523891.855    50091630.849 9 -38596698.958 9
 86  6 12  2 38 35.0800000  0  4G12G13G 9G11
  21623518.063    21623519.763   -28760356.293 9  32540311.777 9
  20610678.142    20610681.070    -8936317.490 9   3722379.464 8
  20635030.547    20635031.739    23440990.970 8 -59335568.764 7
  23527051.296    23527053.942    50108247.476 9 -38583750.944 9
 86  6 12  2 38 41.0800000  0  4G12G13G 9G11
  21621008.943    21621010.077   -28773542.821 9  32530036.560 8
  20610926.736    20610928.876    -8935012.610 8   3723396.245 7
  20637373.309    20637374.246    23453301.487 8 -59325976.151 8
  23530213.889    23530216.860    50124864.457 9 -38570802.641 8
 86  6 12  2 38 47.0800000  0  4G12G13G 9G11
  21618502.710    21618504.599   -28786711.189 9  32519775.485 9
  20611178.426    20611179.573    -8933692.848 9   3724424.640 9
  20639720.243    20639722.330    23465635.782 8 -59316365.027 7
  23533375.730    23533377.915    50141481.747 9 -38557854.107 8
 86  6 12  2 38 53.0800000  0  4G12G13G 9G11
  21616000.532    21616001.825   -28799861.366 9  32509528.601 9
  20611432.620    20611435.199    -8932358.262 9   3725464.562 9
  20642071.582    20642072.485    23477993.893 8 -59306735.330 8
  23536537.702    23536538.976    50158099.253 9 -38544905.393 8
 86  6 12  2 38 59.0800000  0  4G12G13G 9G11
  21613501.899    21613504.127   -28812993.417 9  32499295.833 9
  20611689.760    20611690.555    -8931008.791 9   3726516.115 8
  20644428.508    20644428.668    23490375.733 9 -59297087.149 8
  23539700.013    23539702.722    50174717.051 9 -38531956.465 8
 86  6 12  2 39  5.0800000  0  4G12G13G 9G11
  21611005.721    21611008.024   -28826107.220 9  32489077.290 8
  20611949.277    20611950.696    -8929644.492 9   3727579.206 9
  20646788.493    20646789.768    23502781.244 8 -59287420.522 8
  23542863.112    23542864.710    50191335.101 9 -38519007.343 8
 86  6 12  2 39 11.0800000  0  4G12G13G 9G11
  21608514.555    21608516.143   -28839202.799 9  32478872.936 9
  20612211.407    20612212.857    -8928265.211 8   3728653.964 9
  20649154.314    20649154.609    23515210.519 7 -59277735.371 8
  23546025.068    23546026.451    50207953.393 9 -38506058.018 8
 86  6 12  2 39 17.0800000  0  4G12G13G 9G11
  21606025.092    21606027.832   -28852280.138 9  32468682.808 9
  20612476.937    20612478.012    -8926871.061 8   3729740.318 8
  20651523.516    20651525.188    23527663.453 8 -59268031.794 8
  23549187.498    23549189.527    50224571.899 9 -38493108.532 9
 86  6 12  2 39 23.0800000  0  4G12G13G 9G11
  21603540.168    21603542.658   -28865339.232 9  32458506.889 8
  20612744.199    20612746.945    -8925462.088 9   3730838.223 9
  20653898.159    20653899.045    23540140.066 8 -59258309.756 8
  23552349.743    23552352.160    50241190.644 9 -38480158.875 9
 86  6 12  2 39 29.0800000  0  4G12G13G 9G11
  21601058.785    21601061.532   -28878380.104 9  32448345.176 8
  20613015.509    20613017.372    -8924038.321 8   3731947.657 9
  20656277.373    20656279.421    23552640.269 8 -59248569.348 8
  23555512.116    23555513.846    50257809.594 9 -38467209.041 9
 86  6 12  2 39 35.0800000  0  4G12G13G 9G11
  21598580.567    21598582.436   -28891402.632 9  32438197.741 9
  20613289.473    20613291.491    -8922599.743 9   3733068.626 9
  20658660.107    20658660.784    23565164.168 7 -59238810.479 8
  23558674.268    23558677.169    50274428.759 9 -38454259.041 9
 86  6 12  2 39 41.0800000  0  4G12G13G 9G11
  21596105.897    21596108.023   -28904406.834 9  32428064.600 9
  20613565.930    20613568.270    -8921146.416 9   3734201.097 8
  20661047.914    20661047.973    23577711.702 8 -59229033.185 7
  23561836.926    23561839.156    50291048.081 8 -38441308.920 9
 86  6 12  2 39 47.0800000  0  4G12G13G 9G11
  21593634.751    21593635.967   -28917392.695 9  32417945.757 9
  20613845.022    20613846.910    -8919678.265 9   3735345.112 9
  20663439.549    20663441.499    23590282.867 8 -59219237.475 8
  23564999.809    23565001.467    50307667.650 8 -38428358.606 8
 86  6 12  2 39 53.0800000  0  4G12G13G 9G11
  21591167.563    21591168.997   -28930360.151 9  32407841.240 8
  20614127.316    20614129.185    -8918195.439 9   3736500.559 9
  20665836.995    20665837.688    23602877.605 8 -59209423.390 9
  23568162.717    23568165.271    50324287.382 9 -38415408.181 8
 86  6 12  2 39 59.0800000  0  4G12G13G 9G11
  21588704.032    21588705.152   -28943309.200 9  32397751.071 9
  20614411.938    20614414.613    -8916697.948 9   3737667.438 9
  20668238.251    20668238.865    23615495.940 9 -59199590.931 8
  23571324.820    23571327.850    50340907.249 9 -38402457.623 9
 86  6 12  2 40  5.0800000  0  4G12G13G 9G11
  21586242.177    21586244.359   -28956239.746 9  32387675.326 9
  20614699.773    20614702.342    -8915185.737 9   3738845.787 9
  20670643.451    20670645.287    23628137.786 9 -59189740.142 8
  23574486.975    23574489.798    50357527.270 9 -38389506.975 9
 86  6 12  2 40 11.0800000  0  4G12G13G 9G11
  21583785.709    21583787.959   -28969151.865 9  32377613.932 8
  20614991.211    20614993.706    -8913658.768 9   3740035.635 8
  20673053.520    20673054.668    23640803.242 8 -59179870.968 8
  23577650.476    23577652.320    50374147.399 9 -38376556.211 8
 86  6 12  2 40 17.0800000  0  4G12G13G 9G11
  21581332.414    21581334.035   -28982045.497 9  32367566.951 9
  20615283.445    20615286.014    -8912117.065 9   3741236.960 8
  20675467.829    20675469.585    23653492.211 7 -59169983.455 9
  23580813.143    23580815.444    50390767.658 9 -38363605.357 8
 86  6 12  2 40 23.0800000  0  4G12G13G 9G11
  21578882.206    21578883.882   -28994920.628 9  32357534.379 9
  20615580.538    20615582.793    -8910560.633 9   3742449.772 9
  20677887.509    20677888.583    23666204.764 8 -59160077.581 9
  23583975.940    23583978.388    50407388.051 9 -38350654.404 9
 86  6 12  2 40 29.0800000  0  4G12G13G 9G11
  21576435.964    21576437.208   -29007777.253 9  32347516.237 9
  20615878.830    20615881.843    -8908989.449 9   3743674.071 9
  20680310.801    20680312.688    23678940.825 8 -59150153.389 8
  23587138.599    23587140.565    50424008.573 9 -38337703.352 8
 86  6 12  2 40 35.0800000  0  4G12G13G 9G11
  21573991.553    21573993.429   -29020615.384 9  32337512.490 9
  20616180.651    20616182.954    -8907403.668 9   3744909.749 8
  20682738.498    20682740.086    23691700.411 7 -59140210.864 8
  23590302.382    23590303.804    50440629.149 9 -38324752.262 9
 86  6 12  2 40 41.0800000  0  4G12G13G 9G11
  21571553.223    21571554.477   -29033434.951 9  32327523.223 9
  20616486.030    20616487.866    -8905803.258 9   3746156.819 9
  20685172.118    20685174.407    23704483.399 9 -59130250.097 7
  23593463.626    23593466.556    50457249.834 8 -38311801.075 9
 86  6 12  2 40 47.0800000  0  4G12G13G 9G11
  21569116.879    21569119.021   -29046235.957 9  32317548.410 9
  20616793.460    20616794.970    -8904188.245 8   3747415.273 9
  20687608.943    20687609.946    23717289.971 8 -59120270.952 8
  23596626.488    23596629.221    50473870.509 9 -38298849.898 9
 86  6 12  2 40 53.0800000  0  4G12G13G 9G11
  21566684.348    21566686.396   -29059018.384 9  32307588.080 9
  20617103.339    20617105.949    -8902558.589 9   3748685.136 9
  20690050.062    20690051.922    23730120.062 8 -59110273.482 8
  23599789.034    23599792.638    50490491.261 8 -38285898.664 8
 86  6 12  2 40 59.0800000  0  4G12G13G 9G11
  21564255.697    21564258.168   -29071782.195 9  32297642.254 9
  20617415.389    20617418.502    -8900914.389 9   3749966.331 9
  20692496.244    20692497.009    23742973.498 8 -59100257.831 8
  23602953.392    23602953.727    50507112.085 8 -38272947.377 9
 86  6 12  2 41  5.0800000  0  4G12G13G 9G11
  21561831.295    21561832.887   -29084527.386 9  32287710.926 8
  20617730.712    20617734.037    -8899255.681 9   3751258.835 8
  20694946.550    20694947.882    23755850.361 9 -59090223.913 7
  23606115.806    23606117.550    50523733.011 8 -38259996.014 8
 86  6 12  2 41 11.0800000  0  4G12G13G 9G11
  21559408.557    21559411.075   -29097253.858 9  32277794.196 8
  20618050.285    20618052.159    -8897582.358 9   3752562.719 8
  20697401.091    20697402.871    23768750.700 8 -59080171.699 8
  23609278.611    23609280.633    50540353.973 8 -38247044.605 9
 86  6 12  2 41 17.0800000  0  4G12G13G 9G11
  21556990.638    21556991.614   -29109961.629 9  32267892.044 8
  20618371.317    20618373.692    -8895894.448 8   3753877.977 9
  20699860.529    20699862.028    23781674.451 8 -59070101.247 8
  23612441.278    23612443.218    50556974.986 9 -38234093.173 9
 86  6 12  2 41 23.0800000  0  4G12G13G 9G11
  21554575.659    21554578.215   -29122650.630 9  32258004.513 9
  20618695.999    20618698.333    -8894191.918 9   3755204.628 8
  20702322.883    20702325.805    23794621.512 8 -59060012.628 8
  23615603.830    23615606.441    50573595.995 8 -38221141.734 9
 86  6 12  2 41 29.0800000  0  4G12G13G 9G11
  21552164.650    21552166.232   -29135320.849 9  32248131.614 9
  20619022.643    20619024.411    -8892474.830 9   3756542.622 8
  20704792.133    20704794.622    23807591.998 8 -59049905.762 9
  23618767.232    23618768.146    50590217.043 9 -38208190.269 9
 86  6 12  2 41 35.0800000  0  4G12G13G 9G11
  21549757.192    21549758.478   -29147972.311 9  32238273.333 8
  20619351.709    20619353.935    -8890743.177 9   3757891.953 9
  20707264.846    20707267.634    23820585.842 8 -59039780.707 8
  23621929.957    23621931.639    50606838.095 8 -38195238.811 9
 86  6 12  2 41 41.0800000  0  4G12G13G 9G11
  21547352.999    21547355.336   -29160605.008 9  32228429.675 8
  20619683.894    20619685.765    -8888997.018 9   3759252.608 9
  20709742.338    20709743.555    23833603.085 8 -59029637.388 9
  23625092.902    23625095.144    50623459.106 8 -38182287.375 9
 86  6 12  2 41 47.0800000  0  4G12G13G 9G11
  21544953.549    21544954.453   -29173218.898 9  32218600.668 8
  20620018.900    20620021.653    -8887236.371 9   3760624.528 9
  20712223.152    20712226.454    23846643.692 8 -59019475.885 8
  23628254.387    23628257.953    50640080.032 8 -38169336.005 9
 86  6 12  2 41 53.0800000  0  4G12G13G 9G11
  21542556.110    21542557.352   -29185813.970 9  32208786.326 9
  20620356.234    20620359.619    -8885461.285 9   3762007.720 9
  20714709.518    20714710.718    23859707.494 9 -59009296.302 8
  23631418.145    23631420.454    50656700.826 8 -38156384.742 9
 86  6 12  2 41 59.0800000  0  4G12G13G 9G11
  21540163.407    21540164.287   -29198390.173 9  32198986.688 9
  20620696.908    20620699.119    -8883671.799 8   3763402.133 9
  20717199.625    20717202.275    23872794.578 9 -58999098.590 9
  23634581.437    23634583.827    50673321.607 8 -38143433.490 9
 86  6 12  2 42  5.0800000  0  4G12G13G 9G11
  21537774.264    21537774.590   -29210947.487 9  32189201.763 9
  20621040.981    20621043.352    -8881867.772 9   3764807.873 9
  20719694.947    20719696.285    23885905.058 8 -58988882.626 8
  23637744.341    23637746.213    50689942.374 8 -38130482.247 9
 86  6 12  2 42 11.0800000  0  4G12G13G 9G11
  21535386.875    21535389.037   -29223485.973 9  32179431.519 9
  20621386.359    20621389.308    -8880049.268 8   3766224.882 9
  20722194.538    20722196.368    23899038.781 9 -58978648.564 8
  23640908.291    23640909.578    50706563.081 8 -38117531.044 8
 86  6 12  2 42 17.0800000  0  4G12G13G 9G11
  21533005.116    21533006.920   -29236005.537 9  32169676.017 9
  20621735.452    20621737.514    -8878216.380 8   3767653.113 9
  20724698.298    20724699.117    23912195.810 8 -58968396.345 9
  23644070.161    23644072.332    50723183.692 8 -38104579.924 8
 86  6 12  2 42 23.0800000  0  4G12G13G 9G11
  21530625.987    21530627.859   -29248506.140 9  32159935.283 8
  20622086.917    20622089.561    -8876369.042 9   3769092.595 8
  20727204.986    20727207.762    23925376.011 8 -58958126.052 7
  23647232.808    23647235.937    50739804.191 8 -38091628.893 8
 86  6 12  2 42 29.0800000  0  4G12G13G 9G11
  21528251.424    21528252.623   -29260987.766 9  32150209.351 9
  20622440.975    20622443.776    -8874507.268 9   3770543.337 9
  20729718.193    20729719.828    23938579.566 8 -58947837.582 8
  23650396.144    23650397.869    50756424.579 9 -38078677.944 9
 86  6 12  2 42 35.0800000  0  4G12G13G 9G11
  21525879.829    21525880.019   -29273450.424 9  32140498.182 9
  20622798.436    20622800.224    -8872631.156 9   3772005.238 9
  20732235.237    20732237.513    23951806.233 9 -58937531.083 8
  23653557.904    23653560.850    50773044.836 7 -38065727.101 9
 86  6 12  2 42 41.0800000  0  4G12G13G 9G11
  21523511.225    21523513.055   -29285894.098 9  32130801.815 8
  20623159.050    20623160.529    -8870740.619 8   3773478.389 8
  20734757.317    20734757.961    23965056.151 8 -58927206.484 8
  23656721.707    23656723.019    50789664.989 7 -38052776.342 9
 86  6 12  2 42 47.0800000  0  4G12G13G 9G11
  21521147.623    21521148.338   -29298318.776 9  32121120.251 8
  20623520.014    20623522.386    -8868835.764 9   3774962.688 9
  20737282.660    20737284.435    23978329.165 9 -58916863.876 8
  23659882.942    23659885.885    50806284.994 7 -38039825.679 8
 86  6 12  2 42 53.0800000  0  4G12G13G 9G11
  21518786.314    21518788.627   -29310724.474 9  32111453.462 9
  20623885.897    20623888.094    -8866916.600 9   3776458.146 9
  20739813.295    20739814.571    23991625.467 9 -58906503.133 9
  23663046.418    23663048.245    50822904.869 8 -38026875.128 9
 86  6 12  2 42 59.0800000  0  4G12G13G 9G11
  21516429.037    21516431.846   -29323111.060 9  32101801.583 9
  20624253.938    20624255.772    -8864983.183 9   3777964.706 9
  20742346.482    20742349.457    24004944.827 8 -58896124.405 8
  23666208.509    23666211.681    50839524.587 8 -38013924.700 9
 86  6 12  2 43  5.0800000  0  4G12G13G 9G11
  21514075.817    21514077.634   -29335478.505 9  32092164.604 9
  20624623.696    20624626.002    -8863035.394 8   3779482.463 9
  20744885.791    20744886.903    24018287.235 9 -58885727.731 8
  23669371.466    23669374.242    50856144.089 8 -38000974.450 9
 86  6 12  2 43 11.0800000  0  4G12G13G 9G11
  21511726.445    21511728.514   -29347826.871 9  32082542.509 9
  20624997.381    20625000.010    -8861073.405 8   3781011.291 9
  20747429.880    20747430.092    24031652.907 9 -58875312.935 8
  23672533.045    23672536.384    50872763.368 9 -37988024.366 9
 86  6 12  2 43 17.0800000  0  4G12G13G 9G11
  21509379.923    21509382.795   -29360156.166 9  32072935.259 9
  20625374.113    20625376.537    -8859097.108 8   3782551.252 9
  20749978.401    20749979.845    24045041.652 9 -58864880.140 8
  23675696.276    23675699.442    50889382.411 9 -37975074.470 8
 86  6 12  2 43 23.0800000  0  4G12G13G 9G11
  21507037.475    21507039.730   -29372466.337 9  32063342.938 8
  20625751.979    20625754.322    -8857106.482 8   3784102.400 9
  20752530.104    20752531.276    24058453.494 9 -58854429.362 8
  23678858.281    23678862.041    50906001.283 7 -37962124.705 9
 86  6 12  2 43 29.0800000  0  4G12G13G 9G11
  21504698.593    21504700.476   -29384757.287 9  32053765.569 9
  20626134.487    20626136.710    -8855101.535 9   3785664.690 9
  20755085.812    20755087.115    24071888.424 8 -58843960.586 9
  23682021.671    23682023.835    50922619.935 7 -37949175.103 9
 86  6 12  2 43 35.0800000  0  4G12G13G 9G11
  21502362.981    21502364.747   -29397029.021 9  32044203.177 9
  20626517.558    20626520.528    -8853082.349 9   3787238.081 9
  20757646.870    20757649.131    24085346.445 8 -58833473.821 8
  23685183.521    23685186.638    50939238.330 8 -37936225.712 9
 86  6 12  2 43 41.0800000  0  4G12G13G 9G11
  21500032.249    21500033.530   -29409281.545 9  32034655.750 9
  20626905.975    20626906.728    -8851048.928 8   3788822.574 8
  20760211.676    20760214.104    24098827.401 9 -58822969.190 8
  23688346.026    23688348.926    50955856.513 8 -37923276.483 9
 86  6 12  2 43 47.0800000  0  4G12G13G 9G11
  21497703.666    21497705.347   -29421514.844 9  32025123.309 8
  20627293.855    20627296.287    -8849001.388 9   3790418.063 9
  20762784.063    20762783.795    24112331.416 8 -58812446.585 8
  23691507.132    23691511.796    50972474.423 8 -37910327.458 9
 86  6 12  2 43 53.0800000  0  4G12G13G 9G11
  21495379.793    21495381.758   -29433728.854 9  32015605.909 9
  20627687.675    20627689.498    -8846939.668 8   3792024.591 9
  20765357.547    20765357.029    24125858.453 9 -58801906.036 8
  23694669.734    23694673.552    50989092.050 8 -37897378.664 8
 86  6 12  2 43 59.0800000  0  4G12G13G 9G11
  21493058.922    21493060.531   -29445923.565 9  32006103.536 8
  20628081.839    20628083.636    -8844863.686 9   3793642.238 9
  20767935.520    20767936.680    24139408.548 8 -58791347.525 8
  23697831.522    23697835.085    51005709.427 8 -37884430.064 9
 86  6 12  2 44  5.0800000  0  4G12G13G 9G11
  21490741.812    21490744.078   -29458098.950 9  31996616.223 9
  20628480.290    20628482.731    -8842773.525 9   3795270.934 9
  20770518.207    20770518.210    24152981.594 8 -58780771.134 9
  23700993.420    23700996.998    51022326.492 8 -37871481.694 8
 86  6 12  2 44 11.0800000  0  4G12G13G 9G11
  21488428.658    21488430.180   -29470255.071 9  31987143.915 8
  20628880.893    20628882.770    -8840669.234 8   3796910.651 9
  20773105.827    20773106.617    24166577.631 9 -58770176.828 8
  23704156.519    23704159.996    51038943.288 8 -37858533.550 9
 86  6 12  2 44 17.0800000  0  4G12G13G 9G11
  21486119.339    21486120.237   -29482391.834 9  31977686.701 9
  20629283.528    20629285.871    -8838550.762 8   3798561.406 9
  20775697.361    20775699.402    24180196.541 8 -58759564.690 8
  23707317.707    23707321.935    51055559.779 8 -37845585.643 9
 86  6 12  2 44 23.0800000  0  4G12G13G 9G11
  21483813.416    21483815.466   -29494509.167 9  31968244.623 8
  20629689.337    20629691.240    -8836418.235 9   3800223.114 9
  20778292.481    20778293.995    24193838.464 8 -58748934.624 9
  23710481.007    23710483.544    51072175.964 8 -37832637.963 9
 86  6 12  2 44 29.0800000  0  4G12G13G 9G11
  21481511.150    21481512.976   -29506607.162 9  31958817.619 9
  20630097.687    20630100.482    -8834271.591 9   3801895.823 9
  20780893.637    20780894.418    24207503.254 8 -58738286.737 9
  23713641.989    23713645.416    51088791.825 8 -37819690.559 9
 86  6 12  2 44 35.0800000  0  4G12G13G 9G11
  21479212.362    21479214.394   -29518685.675 9  31949405.784 8
  20630507.937    20630511.099    -8832110.767 9   3803579.587 9
  20783497.845    20783498.606    24221191.064 9 -58727620.921 8
  23716802.709    23716807.499    51105407.343 9 -37806743.404 9
 86  6 12  2 44 41.0800000  0  4G12G13G 9G11
  21476917.762    21476918.716   -29530744.710 9  31940009.141 9
  20630922.597    20630925.487    -8829935.835 9   3805274.337 8
  20786107.752    20786109.002    24234901.714 8 -58716937.308 8
  23719966.031    23719969.502    51122022.507 9 -37793796.519 9
 86  6 12  2 44 47.0800000  0  4G12G13G 9G11
  21474626.744    21474628.618   -29542784.272 9  31930627.660 9
  20631339.038    20631341.559    -8827746.802 9   3806980.083 9
  20788720.985    20788722.046    24248635.207 9 -58706235.884 8
  23723127.813    23723130.865    51138637.313 8 -37780849.922 9
 86  6 12  2 44 53.0800000  0  4G12G13G 9G11
  21472339.422    21472341.153   -29554804.433 9  31921261.304 8
  20631758.890    20631760.211    -8825543.701 9   3808696.789 8
  20791337.827    20791338.726    24262391.531 8 -58695516.678 8
  23726288.814    23726292.353    51155251.746 8 -37767903.614 8
 86  6 12  2 44 59.0800000  0  4G12G13G 9G11
  21470056.194    21470058.132   -29566805.118 9  31911910.111 9
  20632181.025    20632182.321    -8823326.541 9   3810424.441 9
  20793961.183    20793961.041    24276170.777 9 -58684779.614 7
  23729451.189    23729453.574    51171865.830 9 -37754957.585 9
 86  6 12  2 45  5.0800000  0  4G12G13G 9G11
  21467775.709    21467777.944   -29578786.319 9  31902574.114 9
  20632605.295    20632607.052    -8821095.326 9   3812163.052 8
  20796587.060    20796587.763    24289972.818 8 -58674024.776 8
  23732612.736    23732614.747    51188479.542 9 -37742011.827 9
 86  6 12  2 45 11.0800000  0  4G12G13G 9G11
  21465499.584    21465502.231   -29590747.959 9  31893253.359 8
  20633032.528    20633035.132    -8818850.065 9   3813912.602 9
  20799217.436    20799218.893    24303797.686 9 -58663252.148 8
  23735772.835    23735777.481    51205092.833 8 -37729066.413 9
 86  6 12  2 45 17.0800000  0  4G12G13G 9G11
  21463227.653    21463229.244   -29602690.069 9  31883947.826 9
  20633462.559    20633464.304    -8816590.835 9   3815673.043 9
  20801852.614    20801854.745    24317645.318 9 -58652461.795 9
  23738935.106    23738937.886    51221705.695 9 -37716121.329 8
 86  6 12  2 45 23.0800000  0  4G12G13G 9G11
  21460958.584    21460960.957   -29614612.584 9  31874657.547 8
  20633894.534    20633896.620    -8814317.556 9   3817444.438 9
  20804493.062    20804493.560    24331515.777 9 -58641653.652 9
  23742097.297    23742099.356    51238318.143 9 -37703176.561 9
 86  6 12  2 45 29.0800000  0  4G12G13G 9G11
  21458692.879    21458695.327   -29626515.528 9  31865382.533 8
  20634330.068    20634332.054    -8812030.400 9   3819226.637 9
  20807135.914    20807138.114    24345408.954 9 -58630827.809 9
  23745257.397    23745260.028    51254930.115 9 -37690232.187 9
 86  6 12  2 45 35.0800000  0  4G12G13G 9G11
  21456431.716    21456433.640   -29638398.853 9  31856122.796 9
  20634768.631    20634770.293    -8809729.238 9   3821019.743 9
  20809784.114    20809784.783    24359324.808 9 -58619984.283 8
  23748418.952    23748422.076    51271541.592 9 -37677288.176 9
 86  6 12  2 45 41.0800000  0  4G12G13G 9G11
  21454174.177    21454175.673   -29650262.476 9  31846878.419 9
  20635209.102    20635210.845    -8807414.124 9   3822823.737 9
  20812436.293    20812438.006    24373263.394 8 -58609123.055 8
  23751580.089    23751582.823    51288152.626 9 -37664344.523 9
 86  6 12  2 45 47.0800000  0  4G12G13G 9G11
  21451921.434    21451922.579   -29662106.508 9  31837649.298 8
  20635652.261    20635654.275    -8805085.115 9   3824638.547 9
  20815093.882    20815094.896    24387224.664 9 -58598244.145 8
  23754741.194    23754743.955    51304763.153 8 -37651401.251 9
 86  6 12  2 45 53.0800000  0  4G12G13G 9G11
  21449670.105    21449672.273   -29673930.834 9  31828435.540 9
  20636096.833    20636099.354    -8802742.195 9   3826464.198 9
  20817754.132    20817755.344    24401208.618 9 -58587347.559 8
  23757902.394    23757904.212    51321373.269 8 -37638458.313 9
 86  6 12  2 45 59.0800000  0  4G12G13G 9G11
  21447424.096    21447425.691   -29685735.416 9  31819237.168 9
  20636546.808    20636548.262    -8800385.321 9   3828300.730 9
  20820418.844    20820420.391    24415215.425 9 -58576433.170 8
  23761062.303    23761065.345    51337982.931 9 -37625515.720 9
 86  6 12  2 46  5.0800000  0  4G12G13G 9G11
  21445181.267    21445182.645   -29697520.241 9  31810054.189 9
  20636997.357    20636998.738    -8798014.544 9   3830148.084 9
  20823089.853    20823090.770    24429244.827 9 -58565501.176 7
  23764223.442    23764226.757    51354592.166 9 -37612573.467 8
 86  6 12  2 46 11.0800000  0  4G12G13G 9G11
  21442942.940    21442943.841   -29709285.270 9  31800886.628 9
  20637451.659    20637453.273    -8795629.887 9   3832006.253 9
  20825762.470    20825765.330    24443296.925 8 -58554551.500 8
  23767383.517    23767386.496    51371200.899 9 -37599631.584 8
 86  6 12  2 46 17.0800000  0  4G12G13G 9G11
  21440708.598    21440708.954   -29721030.543 9  31791734.469 9
  20637907.573    20637908.671    -8793231.328 9   3833875.262 9
  20828441.659    20828442.523    24457371.683 9 -58543584.157 8
  23770544.323    23770546.975    51387809.112 9 -37586690.131 9
 86  6 12  2 46 23.0800000  0  4G12G13G 9G11
  21438476.772    21438477.844   -29732756.049 9  31782597.713 9
  20638366.775    20638368.844    -8790818.939 9   3835755.049 9
  20831124.010    20831125.867    24471469.025 9 -58532599.217 8
  23773704.374    23773707.532    51404416.751 9 -37573749.111 9
 86  6 12  2 46 29.0800000  0  4G12G13G 9G11
  21436249.447    21436251.541   -29744461.705 9  31773476.419 9
  20638828.000    20638829.599    -8788392.651 9   3837645.661 9
  20833811.386    20833812.376    24485588.914 9 -58521596.710 8
  23776864.244    23776866.755    51421023.861 9 -37560808.511 9
 86  6 12  2 46 35.0800000  0  4G12G13G 9G11
  21434025.728    21434026.941   -29756147.469 9  31764370.632 9
  20639292.857    20639295.026    -8785952.499 9   3839547.071 9
  20836502.256    20836503.746    24499731.522 8 -58510576.499 8
  23780025.683    23780027.511    51437630.484 9 -37547868.297 8
 86  6 12  2 46 41.0800000  0  4G12G13G 9G11
  21431805.377    21431808.126   -29767813.484 9  31755280.230 9
  20639759.723    20639762.261    -8783498.600 9   3841459.198 9
  20839198.196    20839199.026    24513896.545 9 -58499538.824 8
  23783184.401    23783187.516    51454236.454 9 -37534928.569 9
 86  6 12  2 46 47.0800000  0  4G12G13G 9G11
  21429589.669    21429591.078   -29779459.634 9  31746205.313 8
  20640229.754    20640231.569    -8781030.949 8   3843382.054 9
  20841897.080    20841899.538    24528084.092 9 -58488483.606 8
  23786345.053    23786347.025    51470841.874 9 -37521989.285 9
 86  6 12  2 46 53.0800000  0  4G12G13G 9G11
  21427376.572    21427377.938   -29791085.905 9  31737145.878 9
  20640701.912    20640703.955    -8778549.577 8   3845315.590 9
  20844602.492    20844603.804    24542294.211 8 -58477410.783 8
  23789504.318    23789506.969    51487446.717 9 -37509050.455 9
 86  6 12  2 46 59.0800000  0  4G12G13G 9G11
  21425168.295    21425169.816   -29802692.232 9  31728101.994 8
  20641175.981    20641178.311    -8776054.389 9   3847259.885 8
  20847310.875    20847311.877    24556526.903 9 -58466320.380 8
  23792664.278    23792665.561    51504051.078 9 -37496111.993 8
 86  6 12  2 47  5.0800000  0  4G12G13G 9G11
  21422963.652    21422964.566   -29814278.617 9  31719073.639 8
  20641653.222    20641655.802    -8773545.527 9   3849214.844 9
  20850022.410    20850024.600    24570782.074 9 -58455212.455 7
  23795824.933    23795826.436    51520654.897 9 -37483173.955 9
 86  6 12  2 47 11.0800000  0  4G12G13G 9G11
  21420762.367    21420763.209   -29825845.050 9  31710060.831 8
  20642132.714    20642135.830    -8771022.912 7   3851180.529 9
  20852740.467    20852741.615    24585059.677 9 -58444087.064 9
  23798982.249    23798985.006    51537258.067 9 -37470236.424 9
 86  6 12  2 47 17.0800000  0  4G12G13G 9G11
  21418565.862    21418566.503   -29837391.550 9  31701063.562 9
  20642616.136    20642618.158    -8768486.567 9   3853156.891 9
  20855462.106    20855462.463    24599359.840 9 -58432944.084 8
  23802143.035    23802145.221    51553860.573 9 -37457299.403 9
 86  6 12  2 47 23.0800000  0  4G12G13G 9G11
  21416372.111    21416374.023   -29848918.041 9  31692081.873 8
  20643101.452    20643103.000    -8765936.585 9   3855143.893 9
  20858186.516    20858187.391    24613682.445 8 -58421783.610 8
  23805301.646    23805304.269    51570462.451 9 -37444362.882 9
 86  6 12  2 47 29.0800000  0  4G12G13G 9G11
  21414182.646    21414182.992   -29860424.431 9  31683115.864 9
  20643589.186    20643591.561    -8763372.906 9   3857141.563 9
  20860916.593    20860917.801    24628027.464 9 -58410605.679 9
  23808461.197    23808464.133    51587063.671 9 -37431426.860 9
 86  6 12  2 47 35.0800000  0  4G12G13G 9G11
  21411996.626    21411998.316   -29871910.787 9  31674165.458 8
  20644079.660    20644081.543    -8760795.523 9   3859149.914 9
  20863650.025    20863651.424    24642394.800 8 -58399410.361 7
  23811620.323    23811622.618    51603664.257 9 -37418491.346 8
 86  6 12  2 47 41.0800000  0  4G12G13G 9G11
  21409814.774    21409815.337   -29883377.058 9  31665230.689 9
  20644572.016    20644574.133    -8758204.456 8   3861168.933 9
  20866389.544    20866389.958    24656784.614 9 -58388197.522 8
  23814779.040    23814782.413    51620264.197 9 -37405556.338 8
 86  6 12  2 47 47.0800000  0  4G12G13G 9G11
  21407636.235    21407638.194   -29894823.272 9  31656311.569 8
  20645067.716    20645070.617    -8755599.752 9   3863198.566 9
  20869131.248    20869132.905    24671196.748 8 -58376967.284 7
  23817937.790    23817939.744    51636863.420 9 -37392621.870 9
 86  6 12  2 47 53.0800000  0  4G12G13G 9G11
  21405462.325    21405463.729   -29906249.360 9  31647408.116 8
  20645567.258    20645569.075    -8752981.411 9   3865238.838 9
  20871877.749    20871879.424    24685631.270 8 -58365719.612 9
  23821096.075    23821098.413    51653461.998 9 -37379687.907 9
 86  6 12  2 47 59.0800000  0  4G12G13G 9G11
  21403291.569    21403292.729   -29917655.251 9  31638520.409 8
  20646066.846    20646069.478    -8750349.437 9   3867289.720 9
  20874630.034    20874629.679    24700088.209 9 -58354454.472 8
  23824253.819    23824257.579    51670059.870 9 -37366754.502 9
 86  6 12  2 48  5.0800000  0  4G12G13G 9G11
  21401124.687    21401126.738   -29929040.954 9  31629648.439 9
  20646570.868    20646572.802    -8747703.801 8   3869351.251 8
  20877384.898    20877385.631    24714567.473 9 -58343171.925 8
  23827412.725    23827415.511    51686657.077 9 -37353821.613 9
 86  6 12  2 48 11.0800000  0  4G12G13G 9G11
  21398961.974    21398964.734   -29940406.532 9  31620792.144 8
  20647076.460    20647079.376    -8745044.683 8   3871423.287 9
  20880144.027    20880145.856    24729069.026 9 -58331872.016 8
  23830571.090    23830573.147    51703253.501 9 -37340889.336 9
 86  6 12  2 48 17.0800000  0  4G12G13G 9G11
  21396802.971    21396804.894   -29951751.907 9  31611951.594 8
  20647585.392    20647587.650    -8742371.952 8   3873505.941 8
  20882908.560    20882909.175    24743592.818 8 -58320554.793 8
  23833729.121    23833731.628    51719849.229 9 -37327957.596 9
 86  6 12  2 48 23.0800000  0  4G12G13G 9G11
  21394648.051    21394649.578   -29963077.104 9  31603126.763 9
  20648096.777    20648099.770    -8739685.682 9   3875599.136 9
  20885675.845    20885677.373    24758138.923 8 -58309220.165 8
  23836886.629    23836889.600    51736444.181 9 -37315026.473 9
 86  6 12  2 48 29.0800000  0  4G12G13G 9G11
  21392497.129    21392498.771   -29974382.044 9  31594317.724 9
  20648609.587    20648612.520    -8736985.707 9   3877703.017 8
  20888447.274    20888449.629    24772707.325 9 -58297868.171 8
  23840043.911    23840047.781    51753038.456 9 -37302095.871 8
 86  6 12  2 48 35.0800000  0  4G12G13G 9G11
  21390349.322    21390350.316   -29985666.752 9  31585524.441 9
  20649127.070    20649130.055    -8734272.160 9   3879817.451 8
  20891224.514    20891225.718    24787297.927 9 -58286498.865 9
  23843202.286    23843204.980    51769631.964 9 -37289165.867 9
 86  6 12  2 48 41.0800000  0  4G12G13G 9G11
  21388205.895    21388206.825   -29996931.213 9  31576746.940 8
  20649645.432    20649647.922    -8731545.161 8   3881942.398 9
  20894005.449    20894006.469    24801910.817 9 -58275112.200 8
  23846359.898    23846362.531    51786224.712 9 -37276236.453 8
 86  6 12  2 48 47.0800000  0  4G12G13G 9G11
  21386065.952    21386067.664   -30008175.442 9  31567985.199 8
  20650166.479    20650169.085    -8728804.718 9   3884077.798 9
  20896788.902    20896792.050    24816545.874 9 -58263708.275 8
  23849516.902    23849521.852    51802816.697 9 -37263307.636 9
 86  6 12  2 48 53.0800000  0  4G12G13G 9G11
  21383930.060    21383931.551   -30019399.408 9  31559239.247 9
  20650691.268    20650694.416    -8726050.845 9   3886223.673 8
  20899579.592    20899580.783    24831203.077 9 -58252287.077 8
  23852674.728    23852676.282    51819407.894 9 -37250379.429 9
 86  6 12  2 48 59.0800000  0  4G12G13G 9G11
  21381797.832    21381800.137   -30030602.911 9  31550509.246 8
  20651217.229    20651220.073    -8723283.464 9   3888380.071 9
  20902372.920    20902374.391    24845882.550 8 -58240848.530 8
  23855831.987    23855834.159    51835998.389 9 -37237451.774 9
 86  6 12  2 49  5.0800000  0  4G12G13G 9G11
  21379670.462    21379672.152   -30041786.052 9  31541795.118 8
  20651747.129    20651749.163    -8720502.669 9   3890546.936 9
  20905170.565    20905171.751    24860584.135 9 -58229392.748 8
  23858987.606    23858990.214    51852588.082 9 -37224524.746 9
 86  6 12  2 49 11.0800000  0  4G12G13G 9G11
  21377545.776    21377546.711   -30052948.767 9  31533096.886 8
  20652279.700    20652281.351    -8717708.360 9   3892724.320 9
  20907972.448    20907974.291    24875307.823 9 -58217919.753 8
  23862144.515    23862147.776    51869176.948 9 -37211598.357 8
 86  6 12  2 49 17.0800000  0  4G12G13G 9G11
  21375425.332    21375426.872   -30064091.153 9  31524414.518 9
  20652812.827    20652815.244    -8714900.548 8   3894912.219 9
  20910779.082    20910780.820    24890053.667 8 -58206429.497 8
  23865300.690    23865303.731    51885764.977 9 -37198672.617 9
 86  6 12  2 49 23.0800000  0  4G12G13G 9G11
  21373309.480    21373310.909   -30075213.090 9  31515748.080 9
  20653349.636    20653351.656    -8712079.329 9   3897110.574 9
  20913587.830    20913589.466    24904821.653 8 -58194921.982 8
  23868457.632    23868461.356    51902352.188 9 -37185747.525 9
 86  6 12  2 49 29.0800000  0  4G12G13G 9G11
  21371195.716    21371197.309   -30086314.588 9  31507097.557 8
  20653889.104    20653891.169    -8709244.683 8   3899319.386 9
  20916403.681    20916404.229    24919611.699 9 -58183397.272 8
  23871614.027    23871618.295    51918938.591 9 -37172823.055 9
 86  6 12  2 49 35.0800000  0  4G12G13G 9G11
  21369087.390    21369090.317   -30097395.706 9  31498462.913 8
  20654431.016    20654433.728    -8706396.608 9   3901538.673 9
  20919222.074    20919222.905    24934423.791 9 -58171855.386 8
  23874770.460    23874772.765    51935524.103 9 -37159899.279 9
 86  6 12  2 49 41.0800000  0  4G12G13G 9G11
  21366982.737    21366985.273   -30108456.415 9  31489844.199 9
  20654977.072    20654978.920    -8703535.242 8   3903768.306 9
  20922045.538    20922046.351    24949258.005 9 -58160296.263 8
  23877925.776    23877930.060    51952108.780 8 -37146976.150 8
 86  6 12  2 49 47.0800000  0  4G12G13G 9G11
  21364882.281    21364884.184   -30119496.542 9  31481241.490 9
  20655523.260    20655525.548    -8700660.573 9   3906008.310 9
  20924870.915    20924871.964    24964114.251 9 -58148719.973 8
  23881081.705    23881085.081    51968692.558 9 -37134053.730 8
 86  6 12  2 49 53.0800000  0  4G12G13G 9G11
  21362785.012    21362786.629   -30130516.138 9  31472654.798 9
  20656073.173    20656075.090    -8697772.584 9   3908258.691 9
  20927703.331    20927704.762    24978992.472 9 -58137126.554 8
  23884237.618    23884241.752    51985275.520 9 -37121131.938 8
 86  6 12  2 49 59.0800000  0  4G12G13G 9G11
  21360691.997    21360693.818   -30141515.172 9  31464084.121 8
  20656625.342    20656626.647    -8694871.369 9   3910519.379 9
  20930536.784    20930538.857    24993892.612 8 -58125516.068 9
  23887393.858    23887395.715    52001857.664 9 -37108210.789 9
